<?xml version="1.0" encoding="UTF-8" standalone="no" ?>
<gpx xmlns="http://www.topografix.com/GPX/1/1" xmlns:xsi="http://www.w3.org/2001/XMLSchema-instance" xsi:schemaLocation="http://www.topografix.com/GPX/1/1 http://www.topografix.com/GPX/1/1/gpx.xsd" version="1.1" creator="VisuGPX - https://www.visugpx.com">
  <metadata>
    <name>Hospice de France - Refuge de la Rencluse</name>
  </metadata>
  <wpt lat="42.71032" lon="0.64641">
    <ele>1689.7</ele>
    <name><![CDATA[1]]></name>
  </wpt>
  <wpt lat="42.69961" lon="0.64219">
    <ele>2248.6</ele>
    <name><![CDATA[2]]></name>
  </wpt>
  <wpt lat="42.69078" lon="0.64055">
    <ele>2369.8</ele>
    <name><![CDATA[3]]></name>
  </wpt>
  <wpt lat="42.68581" lon="0.6532">
    <ele>2226.4</ele>
    <name><![CDATA[4]]></name>
  </wpt>
  <wpt lat="42.67601" lon="0.65217">
    <ele>1908.6</ele>
    <name><![CDATA[5]]></name>
  </wpt>
  <trk>
    <name><![CDATA[Hospice de France , réfuge Rencluse]]></name>
    <trkseg>
      <trkpt lat="42.72147" lon="0.65374">
        <ele>1299.4</ele>
        <time>2021-06-25T06:34:49.000Z</time>
      </trkpt>
      <trkpt lat="42.72147" lon="0.65374">
        <ele>1299.3</ele>
        <time>2021-06-25T06:34:50.000Z</time>
      </trkpt>
      <trkpt lat="42.72147" lon="0.65372">
        <ele>1304.1</ele>
        <time>2021-06-25T06:34:52.000Z</time>
      </trkpt>
      <trkpt lat="42.72147" lon="0.65372">
        <ele>1308.9</ele>
        <time>2021-06-25T06:34:53.000Z</time>
      </trkpt>
      <trkpt lat="42.72147" lon="0.65372">
        <ele>1308.9</ele>
        <time>2021-06-25T06:34:54.000Z</time>
      </trkpt>
      <trkpt lat="42.72147" lon="0.65371">
        <ele>1312.8</ele>
        <time>2021-06-25T06:34:56.000Z</time>
      </trkpt>
      <trkpt lat="42.72146" lon="0.65372">
        <ele>1317.2</ele>
        <time>2021-06-25T06:34:58.000Z</time>
      </trkpt>
      <trkpt lat="42.72146" lon="0.65372">
        <ele>1320.5</ele>
        <time>2021-06-25T06:35:00.000Z</time>
      </trkpt>
      <trkpt lat="42.72146" lon="0.65372">
        <ele>1324.3</ele>
        <time>2021-06-25T06:35:02.000Z</time>
      </trkpt>
      <trkpt lat="42.72146" lon="0.65372">
        <ele>1327.8</ele>
        <time>2021-06-25T06:35:04.000Z</time>
      </trkpt>
      <trkpt lat="42.72146" lon="0.65372">
        <ele>1330.7</ele>
        <time>2021-06-25T06:35:06.000Z</time>
      </trkpt>
      <trkpt lat="42.72146" lon="0.65372">
        <ele>1333.9</ele>
        <time>2021-06-25T06:35:08.000Z</time>
      </trkpt>
      <trkpt lat="42.72146" lon="0.65371">
        <ele>1337.8</ele>
        <time>2021-06-25T06:35:11.000Z</time>
      </trkpt>
      <trkpt lat="42.72147" lon="0.65371">
        <ele>1340.2</ele>
        <time>2021-06-25T06:35:14.000Z</time>
      </trkpt>
      <trkpt lat="42.72147" lon="0.65371">
        <ele>1344</ele>
        <time>2021-06-25T06:35:16.000Z</time>
      </trkpt>
      <trkpt lat="42.72148" lon="0.65371">
        <ele>1347.4</ele>
        <time>2021-06-25T06:35:19.000Z</time>
      </trkpt>
      <trkpt lat="42.72147" lon="0.6537">
        <ele>1351.3</ele>
        <time>2021-06-25T06:35:22.000Z</time>
      </trkpt>
      <trkpt lat="42.72147" lon="0.65369">
        <ele>1351.2</ele>
        <time>2021-06-25T06:35:23.000Z</time>
      </trkpt>
      <trkpt lat="42.72147" lon="0.65368">
        <ele>1355.2</ele>
        <time>2021-06-25T06:35:29.000Z</time>
      </trkpt>
      <trkpt lat="42.72148" lon="0.65369">
        <ele>1356.5</ele>
        <time>2021-06-25T06:35:31.000Z</time>
      </trkpt>
      <trkpt lat="42.72148" lon="0.6537">
        <ele>1376.8</ele>
        <time>2021-06-25T06:35:34.000Z</time>
      </trkpt>
      <trkpt lat="42.72148" lon="0.6537">
        <ele>1376.8</ele>
        <time>2021-06-25T06:35:35.000Z</time>
      </trkpt>
      <trkpt lat="42.72148" lon="0.65371">
        <ele>1373</ele>
        <time>2021-06-25T06:35:46.000Z</time>
      </trkpt>
      <trkpt lat="42.72148" lon="0.65371">
        <ele>1373</ele>
        <time>2021-06-25T06:35:47.000Z</time>
      </trkpt>
      <trkpt lat="42.72148" lon="0.65371">
        <ele>1380.1</ele>
        <time>2021-06-25T06:35:48.000Z</time>
      </trkpt>
      <trkpt lat="42.72148" lon="0.65371">
        <ele>1377.2</ele>
        <time>2021-06-25T06:35:49.000Z</time>
      </trkpt>
      <trkpt lat="42.72149" lon="0.6537">
        <ele>1376.2</ele>
        <time>2021-06-25T06:35:51.000Z</time>
      </trkpt>
      <trkpt lat="42.72147" lon="0.6537">
        <ele>1375.7</ele>
        <time>2021-06-25T06:36:18.000Z</time>
      </trkpt>
      <trkpt lat="42.72145" lon="0.65375">
        <ele>1375.7</ele>
        <time>2021-06-25T06:36:46.000Z</time>
      </trkpt>
      <trkpt lat="42.72147" lon="0.65374">
        <ele>1376.3</ele>
        <time>2021-06-25T06:37:11.000Z</time>
      </trkpt>
      <trkpt lat="42.72147" lon="0.65373">
        <ele>1376.2</ele>
        <time>2021-06-25T06:37:33.000Z</time>
      </trkpt>
      <trkpt lat="42.72146" lon="0.65374">
        <ele>1376.3</ele>
        <time>2021-06-25T06:37:58.000Z</time>
      </trkpt>
      <trkpt lat="42.72146" lon="0.65371">
        <ele>1376.2</ele>
        <time>2021-06-25T06:38:25.000Z</time>
      </trkpt>
      <trkpt lat="42.72148" lon="0.65371">
        <ele>1376.3</ele>
        <time>2021-06-25T06:38:51.000Z</time>
      </trkpt>
      <trkpt lat="42.72147" lon="0.65369">
        <ele>1376.2</ele>
        <time>2021-06-25T06:39:19.000Z</time>
      </trkpt>
      <trkpt lat="42.72148" lon="0.65368">
        <ele>1376.3</ele>
        <time>2021-06-25T06:39:49.000Z</time>
      </trkpt>
      <trkpt lat="42.72147" lon="0.65372">
        <ele>1376.3</ele>
        <time>2021-06-25T06:40:16.000Z</time>
      </trkpt>
      <trkpt lat="42.72151" lon="0.65369">
        <ele>1376.2</ele>
        <time>2021-06-25T06:40:44.000Z</time>
      </trkpt>
      <trkpt lat="42.7215" lon="0.65368">
        <ele>1376.2</ele>
        <time>2021-06-25T06:41:12.000Z</time>
      </trkpt>
      <trkpt lat="42.72149" lon="0.65371">
        <ele>1376.2</ele>
        <time>2021-06-25T06:41:38.000Z</time>
      </trkpt>
      <trkpt lat="42.72148" lon="0.65369">
        <ele>1376.2</ele>
        <time>2021-06-25T06:42:11.000Z</time>
      </trkpt>
      <trkpt lat="42.72148" lon="0.65369">
        <ele>1376.8</ele>
        <time>2021-06-25T06:42:48.000Z</time>
      </trkpt>
      <trkpt lat="42.72145" lon="0.65374">
        <ele>1376.7</ele>
        <time>2021-06-25T06:43:17.000Z</time>
      </trkpt>
      <trkpt lat="42.72145" lon="0.65374">
        <ele>1376.8</ele>
        <time>2021-06-25T06:43:44.000Z</time>
      </trkpt>
      <trkpt lat="42.7215" lon="0.65369">
        <ele>1376.8</ele>
        <time>2021-06-25T06:44:12.000Z</time>
      </trkpt>
      <trkpt lat="42.72149" lon="0.65372">
        <ele>1376.7</ele>
        <time>2021-06-25T06:44:38.000Z</time>
      </trkpt>
      <trkpt lat="42.72147" lon="0.65371">
        <ele>1376.7</ele>
        <time>2021-06-25T06:45:06.000Z</time>
      </trkpt>
      <trkpt lat="42.72149" lon="0.65369">
        <ele>1376.7</ele>
        <time>2021-06-25T06:45:34.000Z</time>
      </trkpt>
      <trkpt lat="42.72148" lon="0.65369">
        <ele>1376.7</ele>
        <time>2021-06-25T06:46:04.000Z</time>
      </trkpt>
      <trkpt lat="42.7215" lon="0.65365">
        <ele>1376.7</ele>
        <time>2021-06-25T06:46:41.000Z</time>
      </trkpt>
      <trkpt lat="42.72149" lon="0.65366">
        <ele>1377.2</ele>
        <time>2021-06-25T06:47:13.000Z</time>
      </trkpt>
      <trkpt lat="42.72149" lon="0.65368">
        <ele>1377.2</ele>
        <time>2021-06-25T06:47:47.000Z</time>
      </trkpt>
      <trkpt lat="42.7215" lon="0.6537">
        <ele>1377.2</ele>
        <time>2021-06-25T06:48:16.000Z</time>
      </trkpt>
      <trkpt lat="42.72152" lon="0.6537">
        <ele>1377.2</ele>
        <time>2021-06-25T06:48:39.000Z</time>
      </trkpt>
      <trkpt lat="42.72151" lon="0.65372">
        <ele>1377.8</ele>
        <time>2021-06-25T06:49:08.000Z</time>
      </trkpt>
      <trkpt lat="42.72154" lon="0.65367">
        <ele>1377.7</ele>
        <time>2021-06-25T06:49:40.000Z</time>
      </trkpt>
      <trkpt lat="42.72151" lon="0.65369">
        <ele>1377.8</ele>
        <time>2021-06-25T06:50:11.000Z</time>
      </trkpt>
      <trkpt lat="42.72152" lon="0.65368">
        <ele>1377.8</ele>
        <time>2021-06-25T06:50:40.000Z</time>
      </trkpt>
      <trkpt lat="42.72152" lon="0.6537">
        <ele>1377.7</ele>
        <time>2021-06-25T06:51:09.000Z</time>
      </trkpt>
      <trkpt lat="42.72152" lon="0.65371">
        <ele>1377.8</ele>
        <time>2021-06-25T06:51:39.000Z</time>
      </trkpt>
      <trkpt lat="42.72152" lon="0.65369">
        <ele>1377.8</ele>
        <time>2021-06-25T06:52:14.000Z</time>
      </trkpt>
      <trkpt lat="42.7215" lon="0.6537">
        <ele>1377.7</ele>
        <time>2021-06-25T06:52:45.000Z</time>
      </trkpt>
      <trkpt lat="42.72152" lon="0.65368">
        <ele>1377.7</ele>
        <time>2021-06-25T06:53:14.000Z</time>
      </trkpt>
      <trkpt lat="42.72153" lon="0.65367">
        <ele>1378.6</ele>
        <time>2021-06-25T06:53:38.000Z</time>
      </trkpt>
      <trkpt lat="42.72152" lon="0.65369">
        <ele>1378.7</ele>
        <time>2021-06-25T06:54:01.000Z</time>
      </trkpt>
      <trkpt lat="42.72151" lon="0.65371">
        <ele>1378.7</ele>
        <time>2021-06-25T06:54:21.000Z</time>
      </trkpt>
      <trkpt lat="42.72149" lon="0.65371">
        <ele>1378.7</ele>
        <time>2021-06-25T06:54:42.000Z</time>
      </trkpt>
      <trkpt lat="42.72152" lon="0.65369">
        <ele>1378.7</ele>
        <time>2021-06-25T06:55:09.000Z</time>
      </trkpt>
      <trkpt lat="42.72152" lon="0.65371">
        <ele>1378.7</ele>
        <time>2021-06-25T06:55:31.000Z</time>
      </trkpt>
      <trkpt lat="42.72153" lon="0.65369">
        <ele>1375.4</ele>
        <time>2021-06-25T06:55:45.000Z</time>
      </trkpt>
      <trkpt lat="42.72152" lon="0.65369">
        <ele>1380.6</ele>
        <time>2021-06-25T06:55:46.000Z</time>
      </trkpt>
      <trkpt lat="42.72148" lon="0.6537">
        <ele>1378.2</ele>
        <time>2021-06-25T06:55:59.000Z</time>
      </trkpt>
      <trkpt lat="42.72145" lon="0.65371">
        <ele>1378.2</ele>
        <time>2021-06-25T06:56:26.000Z</time>
      </trkpt>
      <trkpt lat="42.72143" lon="0.65368">
        <ele>1378.7</ele>
        <time>2021-06-25T06:56:53.000Z</time>
      </trkpt>
      <trkpt lat="42.72147" lon="0.65366">
        <ele>1378.6</ele>
        <time>2021-06-25T06:57:18.000Z</time>
      </trkpt>
      <trkpt lat="42.72147" lon="0.65366">
        <ele>1378.6</ele>
        <time>2021-06-25T06:57:40.000Z</time>
      </trkpt>
      <trkpt lat="42.72148" lon="0.65369">
        <ele>1378.7</ele>
        <time>2021-06-25T06:58:01.000Z</time>
      </trkpt>
      <trkpt lat="42.72148" lon="0.65369">
        <ele>1378.6</ele>
        <time>2021-06-25T06:58:28.000Z</time>
      </trkpt>
      <trkpt lat="42.72149" lon="0.65371">
        <ele>1378.6</ele>
        <time>2021-06-25T06:58:53.000Z</time>
      </trkpt>
      <trkpt lat="42.72147" lon="0.6537">
        <ele>1379.1</ele>
        <time>2021-06-25T06:59:24.000Z</time>
      </trkpt>
      <trkpt lat="42.72147" lon="0.65366">
        <ele>1379.2</ele>
        <time>2021-06-25T06:59:55.000Z</time>
      </trkpt>
      <trkpt lat="42.72147" lon="0.6537">
        <ele>1379.1</ele>
        <time>2021-06-25T07:00:24.000Z</time>
      </trkpt>
      <trkpt lat="42.72151" lon="0.65371">
        <ele>1381.1</ele>
        <time>2021-06-25T07:00:47.000Z</time>
      </trkpt>
      <trkpt lat="42.72152" lon="0.65371">
        <ele>1378.7</ele>
        <time>2021-06-25T07:00:50.000Z</time>
      </trkpt>
      <trkpt lat="42.72151" lon="0.65375">
        <ele>1380.2</ele>
        <time>2021-06-25T07:01:07.000Z</time>
      </trkpt>
      <trkpt lat="42.72148" lon="0.65371">
        <ele>1378.2</ele>
        <time>2021-06-25T07:01:16.000Z</time>
      </trkpt>
      <trkpt lat="42.72148" lon="0.65371">
        <ele>1383.4</ele>
        <time>2021-06-25T07:01:17.000Z</time>
      </trkpt>
      <trkpt lat="42.72148" lon="0.6537">
        <ele>1380.5</ele>
        <time>2021-06-25T07:01:18.000Z</time>
      </trkpt>
      <trkpt lat="42.72148" lon="0.6537">
        <ele>1377.8</ele>
        <time>2021-06-25T07:01:26.000Z</time>
      </trkpt>
      <trkpt lat="42.72147" lon="0.65371">
        <ele>1382.9</ele>
        <time>2021-06-25T07:01:27.000Z</time>
      </trkpt>
      <trkpt lat="42.72147" lon="0.65371">
        <ele>1383</ele>
        <time>2021-06-25T07:01:28.000Z</time>
      </trkpt>
      <trkpt lat="42.72147" lon="0.65372">
        <ele>1380.6</ele>
        <time>2021-06-25T07:01:30.000Z</time>
      </trkpt>
      <trkpt lat="42.72153" lon="0.65378">
        <ele>1379.7</ele>
        <time>2021-06-25T07:01:45.000Z</time>
      </trkpt>
      <trkpt lat="42.72151" lon="0.65379">
        <ele>1379.6</ele>
        <time>2021-06-25T07:02:01.000Z</time>
      </trkpt>
      <trkpt lat="42.72148" lon="0.65378">
        <ele>1379.6</ele>
        <time>2021-06-25T07:02:13.000Z</time>
      </trkpt>
      <trkpt lat="42.72147" lon="0.65373">
        <ele>1379.7</ele>
        <time>2021-06-25T07:02:31.000Z</time>
      </trkpt>
      <trkpt lat="42.72145" lon="0.65377">
        <ele>1379.6</ele>
        <time>2021-06-25T07:02:46.000Z</time>
      </trkpt>
      <trkpt lat="42.72141" lon="0.65388">
        <ele>1380.5</ele>
        <time>2021-06-25T07:02:58.000Z</time>
      </trkpt>
      <trkpt lat="42.72139" lon="0.654">
        <ele>1379.6</ele>
        <time>2021-06-25T07:03:09.000Z</time>
      </trkpt>
      <trkpt lat="42.72139" lon="0.65402">
        <ele>1383.4</ele>
        <time>2021-06-25T07:03:11.000Z</time>
      </trkpt>
      <trkpt lat="42.72139" lon="0.65403">
        <ele>1377.7</ele>
        <time>2021-06-25T07:03:12.000Z</time>
      </trkpt>
      <trkpt lat="42.72139" lon="0.65404">
        <ele>1381.5</ele>
        <time>2021-06-25T07:03:13.000Z</time>
      </trkpt>
      <trkpt lat="42.7214" lon="0.65406">
        <ele>1383</ele>
        <time>2021-06-25T07:03:15.000Z</time>
      </trkpt>
      <trkpt lat="42.7214" lon="0.65408">
        <ele>1381.5</ele>
        <time>2021-06-25T07:03:16.000Z</time>
      </trkpt>
      <trkpt lat="42.72139" lon="0.65411">
        <ele>1383.5</ele>
        <time>2021-06-25T07:03:19.000Z</time>
      </trkpt>
      <trkpt lat="42.72135" lon="0.65417">
        <ele>1384.4</ele>
        <time>2021-06-25T07:03:26.000Z</time>
      </trkpt>
      <trkpt lat="42.72134" lon="0.65419">
        <ele>1382.9</ele>
        <time>2021-06-25T07:03:28.000Z</time>
      </trkpt>
      <trkpt lat="42.72128" lon="0.65426">
        <ele>1384.5</ele>
        <time>2021-06-25T07:03:39.000Z</time>
      </trkpt>
      <trkpt lat="42.72122" lon="0.6543">
        <ele>1385</ele>
        <time>2021-06-25T07:03:50.000Z</time>
      </trkpt>
      <trkpt lat="42.72119" lon="0.65434">
        <ele>1380.1</ele>
        <time>2021-06-25T07:03:56.000Z</time>
      </trkpt>
      <trkpt lat="42.72119" lon="0.65435">
        <ele>1389.2</ele>
        <time>2021-06-25T07:03:57.000Z</time>
      </trkpt>
      <trkpt lat="42.72119" lon="0.65435">
        <ele>1384.9</ele>
        <time>2021-06-25T07:03:58.000Z</time>
      </trkpt>
      <trkpt lat="42.72119" lon="0.65437">
        <ele>1388.2</ele>
        <time>2021-06-25T07:04:00.000Z</time>
      </trkpt>
      <trkpt lat="42.72119" lon="0.65437">
        <ele>1388.2</ele>
        <time>2021-06-25T07:04:01.000Z</time>
      </trkpt>
      <trkpt lat="42.72114" lon="0.65448">
        <ele>1388.8</ele>
        <time>2021-06-25T07:04:16.000Z</time>
      </trkpt>
      <trkpt lat="42.72109" lon="0.65462">
        <ele>1390.2</ele>
        <time>2021-06-25T07:04:30.000Z</time>
      </trkpt>
      <trkpt lat="42.72101" lon="0.65477">
        <ele>1390.2</ele>
        <time>2021-06-25T07:04:46.000Z</time>
      </trkpt>
      <trkpt lat="42.72094" lon="0.65488">
        <ele>1390.7</ele>
        <time>2021-06-25T07:05:01.000Z</time>
      </trkpt>
      <trkpt lat="42.72092" lon="0.65488">
        <ele>1388.8</ele>
        <time>2021-06-25T07:05:14.000Z</time>
      </trkpt>
      <trkpt lat="42.72093" lon="0.65488">
        <ele>1391.1</ele>
        <time>2021-06-25T07:05:16.000Z</time>
      </trkpt>
      <trkpt lat="42.7209" lon="0.65497">
        <ele>1390.3</ele>
        <time>2021-06-25T07:05:30.000Z</time>
      </trkpt>
      <trkpt lat="42.7209" lon="0.65496">
        <ele>1389.2</ele>
        <time>2021-06-25T07:05:34.000Z</time>
      </trkpt>
      <trkpt lat="42.7209" lon="0.65496">
        <ele>1391.6</ele>
        <time>2021-06-25T07:05:37.000Z</time>
      </trkpt>
      <trkpt lat="42.7209" lon="0.65496">
        <ele>1390.2</ele>
        <time>2021-06-25T07:05:39.000Z</time>
      </trkpt>
      <trkpt lat="42.72086" lon="0.65496">
        <ele>1389.7</ele>
        <time>2021-06-25T07:05:57.000Z</time>
      </trkpt>
      <trkpt lat="42.72085" lon="0.65495">
        <ele>1389.7</ele>
        <time>2021-06-25T07:06:21.000Z</time>
      </trkpt>
      <trkpt lat="42.72086" lon="0.65497">
        <ele>1389.8</ele>
        <time>2021-06-25T07:06:44.000Z</time>
      </trkpt>
      <trkpt lat="42.72085" lon="0.65498">
        <ele>1389.2</ele>
        <time>2021-06-25T07:07:20.000Z</time>
      </trkpt>
      <trkpt lat="42.72086" lon="0.65495">
        <ele>1391.7</ele>
        <time>2021-06-25T07:07:46.000Z</time>
      </trkpt>
      <trkpt lat="42.72088" lon="0.65495">
        <ele>1387.9</ele>
        <time>2021-06-25T07:07:53.000Z</time>
      </trkpt>
      <trkpt lat="42.72088" lon="0.65496">
        <ele>1389.7</ele>
        <time>2021-06-25T07:08:17.000Z</time>
      </trkpt>
      <trkpt lat="42.72089" lon="0.65497">
        <ele>1389.7</ele>
        <time>2021-06-25T07:08:31.000Z</time>
      </trkpt>
      <trkpt lat="42.72089" lon="0.65499">
        <ele>1389.8</ele>
        <time>2021-06-25T07:08:52.000Z</time>
      </trkpt>
      <trkpt lat="42.72085" lon="0.65496">
        <ele>1387.8</ele>
        <time>2021-06-25T07:08:58.000Z</time>
      </trkpt>
      <trkpt lat="42.72073" lon="0.65491">
        <ele>1386.3</ele>
        <time>2021-06-25T07:09:12.000Z</time>
      </trkpt>
      <trkpt lat="42.72072" lon="0.65489">
        <ele>1384.4</ele>
        <time>2021-06-25T07:09:14.000Z</time>
      </trkpt>
      <trkpt lat="42.72071" lon="0.65488">
        <ele>1386.9</ele>
        <time>2021-06-25T07:09:16.000Z</time>
      </trkpt>
      <trkpt lat="42.72069" lon="0.65485">
        <ele>1384.4</ele>
        <time>2021-06-25T07:09:20.000Z</time>
      </trkpt>
      <trkpt lat="42.72069" lon="0.65484">
        <ele>1385.8</ele>
        <time>2021-06-25T07:09:21.000Z</time>
      </trkpt>
      <trkpt lat="42.72068" lon="0.6548">
        <ele>1384.5</ele>
        <time>2021-06-25T07:09:24.000Z</time>
      </trkpt>
      <trkpt lat="42.72067" lon="0.65477">
        <ele>1383</ele>
        <time>2021-06-25T07:09:26.000Z</time>
      </trkpt>
      <trkpt lat="42.72065" lon="0.65474">
        <ele>1383.5</ele>
        <time>2021-06-25T07:09:29.000Z</time>
      </trkpt>
      <trkpt lat="42.72056" lon="0.65467">
        <ele>1379.1</ele>
        <time>2021-06-25T07:09:37.000Z</time>
      </trkpt>
      <trkpt lat="42.72055" lon="0.65466">
        <ele>1384.5</ele>
        <time>2021-06-25T07:09:38.000Z</time>
      </trkpt>
      <trkpt lat="42.72052" lon="0.65462">
        <ele>1383</ele>
        <time>2021-06-25T07:09:43.000Z</time>
      </trkpt>
      <trkpt lat="42.72046" lon="0.65455">
        <ele>1382.9</ele>
        <time>2021-06-25T07:09:55.000Z</time>
      </trkpt>
      <trkpt lat="42.72044" lon="0.65454">
        <ele>1384.4</ele>
        <time>2021-06-25T07:09:59.000Z</time>
      </trkpt>
      <trkpt lat="42.72041" lon="0.65453">
        <ele>1384.4</ele>
        <time>2021-06-25T07:10:03.000Z</time>
      </trkpt>
      <trkpt lat="42.72038" lon="0.65452">
        <ele>1384.9</ele>
        <time>2021-06-25T07:10:06.000Z</time>
      </trkpt>
      <trkpt lat="42.72031" lon="0.65446">
        <ele>1386.8</ele>
        <time>2021-06-25T07:10:18.000Z</time>
      </trkpt>
      <trkpt lat="42.72025" lon="0.65441">
        <ele>1388.7</ele>
        <time>2021-06-25T07:10:28.000Z</time>
      </trkpt>
      <trkpt lat="42.72017" lon="0.65434">
        <ele>1389.3</ele>
        <time>2021-06-25T07:10:42.000Z</time>
      </trkpt>
      <trkpt lat="42.72009" lon="0.65428">
        <ele>1391.7</ele>
        <time>2021-06-25T07:10:55.000Z</time>
      </trkpt>
      <trkpt lat="42.72002" lon="0.65421">
        <ele>1393</ele>
        <time>2021-06-25T07:11:10.000Z</time>
      </trkpt>
      <trkpt lat="42.72004" lon="0.65411">
        <ele>1394.6</ele>
        <time>2021-06-25T07:11:22.000Z</time>
      </trkpt>
      <trkpt lat="42.72001" lon="0.65406">
        <ele>1395</ele>
        <time>2021-06-25T07:11:26.000Z</time>
      </trkpt>
      <trkpt lat="42.71994" lon="0.65401">
        <ele>1389.7</ele>
        <time>2021-06-25T07:11:35.000Z</time>
      </trkpt>
      <trkpt lat="42.71993" lon="0.65401">
        <ele>1395.1</ele>
        <time>2021-06-25T07:11:36.000Z</time>
      </trkpt>
      <trkpt lat="42.71993" lon="0.65401">
        <ele>1399.3</ele>
        <time>2021-06-25T07:11:37.000Z</time>
      </trkpt>
      <trkpt lat="42.71992" lon="0.654">
        <ele>1395.9</ele>
        <time>2021-06-25T07:11:38.000Z</time>
      </trkpt>
      <trkpt lat="42.71991" lon="0.654">
        <ele>1389.2</ele>
        <time>2021-06-25T07:11:39.000Z</time>
      </trkpt>
      <trkpt lat="42.7199" lon="0.65399">
        <ele>1402.2</ele>
        <time>2021-06-25T07:11:41.000Z</time>
      </trkpt>
      <trkpt lat="42.7199" lon="0.65398">
        <ele>1394.5</ele>
        <time>2021-06-25T07:11:43.000Z</time>
      </trkpt>
      <trkpt lat="42.71988" lon="0.65397">
        <ele>1395.1</ele>
        <time>2021-06-25T07:11:45.000Z</time>
      </trkpt>
      <trkpt lat="42.71988" lon="0.65397">
        <ele>1397.4</ele>
        <time>2021-06-25T07:11:46.000Z</time>
      </trkpt>
      <trkpt lat="42.71987" lon="0.65396">
        <ele>1403.7</ele>
        <time>2021-06-25T07:11:47.000Z</time>
      </trkpt>
      <trkpt lat="42.71986" lon="0.65396">
        <ele>1402.2</ele>
        <time>2021-06-25T07:11:48.000Z</time>
      </trkpt>
      <trkpt lat="42.71984" lon="0.65395">
        <ele>1397.8</ele>
        <time>2021-06-25T07:11:49.000Z</time>
      </trkpt>
      <trkpt lat="42.71983" lon="0.65394">
        <ele>1397.8</ele>
        <time>2021-06-25T07:11:50.000Z</time>
      </trkpt>
      <trkpt lat="42.71971" lon="0.65385">
        <ele>1399.3</ele>
        <time>2021-06-25T07:12:04.000Z</time>
      </trkpt>
      <trkpt lat="42.71967" lon="0.6538">
        <ele>1401.2</ele>
        <time>2021-06-25T07:12:18.000Z</time>
      </trkpt>
      <trkpt lat="42.71966" lon="0.65378">
        <ele>1401.7</ele>
        <time>2021-06-25T07:12:23.000Z</time>
      </trkpt>
      <trkpt lat="42.71963" lon="0.65377">
        <ele>1403.6</ele>
        <time>2021-06-25T07:12:35.000Z</time>
      </trkpt>
      <trkpt lat="42.71959" lon="0.65379">
        <ele>1405.5</ele>
        <time>2021-06-25T07:12:49.000Z</time>
      </trkpt>
      <trkpt lat="42.71948" lon="0.65376">
        <ele>1408</ele>
        <time>2021-06-25T07:13:04.000Z</time>
      </trkpt>
      <trkpt lat="42.71943" lon="0.65375">
        <ele>1408.4</ele>
        <time>2021-06-25T07:13:11.000Z</time>
      </trkpt>
      <trkpt lat="42.7193" lon="0.65371">
        <ele>1410.8</ele>
        <time>2021-06-25T07:13:27.000Z</time>
      </trkpt>
      <trkpt lat="42.71919" lon="0.65367">
        <ele>1413.3</ele>
        <time>2021-06-25T07:13:42.000Z</time>
      </trkpt>
      <trkpt lat="42.71916" lon="0.65367">
        <ele>1414.2</ele>
        <time>2021-06-25T07:13:49.000Z</time>
      </trkpt>
      <trkpt lat="42.71904" lon="0.65374">
        <ele>1416.7</ele>
        <time>2021-06-25T07:14:04.000Z</time>
      </trkpt>
      <trkpt lat="42.71894" lon="0.65382">
        <ele>1418.1</ele>
        <time>2021-06-25T07:14:20.000Z</time>
      </trkpt>
      <trkpt lat="42.71879" lon="0.65382">
        <ele>1419.5</ele>
        <time>2021-06-25T07:14:37.000Z</time>
      </trkpt>
      <trkpt lat="42.71873" lon="0.6538">
        <ele>1419.5</ele>
        <time>2021-06-25T07:14:43.000Z</time>
      </trkpt>
      <trkpt lat="42.71872" lon="0.65379">
        <ele>1420</ele>
        <time>2021-06-25T07:14:45.000Z</time>
      </trkpt>
      <trkpt lat="42.71854" lon="0.65363">
        <ele>1421</ele>
        <time>2021-06-25T07:15:06.000Z</time>
      </trkpt>
      <trkpt lat="42.71851" lon="0.65358">
        <ele>1420.4</ele>
        <time>2021-06-25T07:15:11.000Z</time>
      </trkpt>
      <trkpt lat="42.71841" lon="0.65343">
        <ele>1420.5</ele>
        <time>2021-06-25T07:15:27.000Z</time>
      </trkpt>
      <trkpt lat="42.71835" lon="0.65339">
        <ele>1420.5</ele>
        <time>2021-06-25T07:15:35.000Z</time>
      </trkpt>
      <trkpt lat="42.71828" lon="0.65335">
        <ele>1417.2</ele>
        <time>2021-06-25T07:15:43.000Z</time>
      </trkpt>
      <trkpt lat="42.71827" lon="0.65334">
        <ele>1417.1</ele>
        <time>2021-06-25T07:15:44.000Z</time>
      </trkpt>
      <trkpt lat="42.71827" lon="0.65334">
        <ele>1423.3</ele>
        <time>2021-06-25T07:15:45.000Z</time>
      </trkpt>
      <trkpt lat="42.71826" lon="0.65333">
        <ele>1422</ele>
        <time>2021-06-25T07:15:46.000Z</time>
      </trkpt>
      <trkpt lat="42.71824" lon="0.65331">
        <ele>1421</ele>
        <time>2021-06-25T07:15:50.000Z</time>
      </trkpt>
      <trkpt lat="42.71809" lon="0.65324">
        <ele>1422</ele>
        <time>2021-06-25T07:16:03.000Z</time>
      </trkpt>
      <trkpt lat="42.71807" lon="0.65323">
        <ele>1421.9</ele>
        <time>2021-06-25T07:16:05.000Z</time>
      </trkpt>
      <trkpt lat="42.71806" lon="0.65322">
        <ele>1421.9</ele>
        <time>2021-06-25T07:16:07.000Z</time>
      </trkpt>
      <trkpt lat="42.71789" lon="0.65305">
        <ele>1423.3</ele>
        <time>2021-06-25T07:16:26.000Z</time>
      </trkpt>
      <trkpt lat="42.71781" lon="0.65287">
        <ele>1425.3</ele>
        <time>2021-06-25T07:16:43.000Z</time>
      </trkpt>
      <trkpt lat="42.71776" lon="0.65278">
        <ele>1425.7</ele>
        <time>2021-06-25T07:16:54.000Z</time>
      </trkpt>
      <trkpt lat="42.71775" lon="0.65277">
        <ele>1426.8</ele>
        <time>2021-06-25T07:16:56.000Z</time>
      </trkpt>
      <trkpt lat="42.71766" lon="0.65271">
        <ele>1427.3</ele>
        <time>2021-06-25T07:17:07.000Z</time>
      </trkpt>
      <trkpt lat="42.71763" lon="0.6527">
        <ele>1427.3</ele>
        <time>2021-06-25T07:17:10.000Z</time>
      </trkpt>
      <trkpt lat="42.71749" lon="0.65264">
        <ele>1429.2</ele>
        <time>2021-06-25T07:17:28.000Z</time>
      </trkpt>
      <trkpt lat="42.71733" lon="0.65258">
        <ele>1431.1</ele>
        <time>2021-06-25T07:17:46.000Z</time>
      </trkpt>
      <trkpt lat="42.71728" lon="0.65255">
        <ele>1431</ele>
        <time>2021-06-25T07:17:52.000Z</time>
      </trkpt>
      <trkpt lat="42.71725" lon="0.65254">
        <ele>1431.1</ele>
        <time>2021-06-25T07:17:54.000Z</time>
      </trkpt>
      <trkpt lat="42.71712" lon="0.65247">
        <ele>1431.5</ele>
        <time>2021-06-25T07:18:08.000Z</time>
      </trkpt>
      <trkpt lat="42.71695" lon="0.65237">
        <ele>1432.5</ele>
        <time>2021-06-25T07:18:23.000Z</time>
      </trkpt>
      <trkpt lat="42.71677" lon="0.65229">
        <ele>1433.5</ele>
        <time>2021-06-25T07:18:41.000Z</time>
      </trkpt>
      <trkpt lat="42.71664" lon="0.65227">
        <ele>1434.5</ele>
        <time>2021-06-25T07:18:58.000Z</time>
      </trkpt>
      <trkpt lat="42.71649" lon="0.65224">
        <ele>1435.4</ele>
        <time>2021-06-25T07:19:18.000Z</time>
      </trkpt>
      <trkpt lat="42.71633" lon="0.65214">
        <ele>1437.4</ele>
        <time>2021-06-25T07:19:40.000Z</time>
      </trkpt>
      <trkpt lat="42.71625" lon="0.65204">
        <ele>1439.8</ele>
        <time>2021-06-25T07:19:59.000Z</time>
      </trkpt>
      <trkpt lat="42.71618" lon="0.65197">
        <ele>1441.7</ele>
        <time>2021-06-25T07:20:15.000Z</time>
      </trkpt>
      <trkpt lat="42.71616" lon="0.65195">
        <ele>1441.7</ele>
        <time>2021-06-25T07:20:41.000Z</time>
      </trkpt>
      <trkpt lat="42.71638" lon="0.65202">
        <ele>1441.7</ele>
        <time>2021-06-25T07:21:08.000Z</time>
      </trkpt>
      <trkpt lat="42.71644" lon="0.65203">
        <ele>1441.7</ele>
        <time>2021-06-25T07:21:34.000Z</time>
      </trkpt>
      <trkpt lat="42.71637" lon="0.65199">
        <ele>1442.2</ele>
        <time>2021-06-25T07:22:00.000Z</time>
      </trkpt>
      <trkpt lat="42.71634" lon="0.65191">
        <ele>1443.5</ele>
        <time>2021-06-25T07:22:14.000Z</time>
      </trkpt>
      <trkpt lat="42.71633" lon="0.65177">
        <ele>1444</ele>
        <time>2021-06-25T07:22:29.000Z</time>
      </trkpt>
      <trkpt lat="42.71634" lon="0.65157">
        <ele>1444.1</ele>
        <time>2021-06-25T07:22:45.000Z</time>
      </trkpt>
      <trkpt lat="42.71633" lon="0.65141">
        <ele>1447.4</ele>
        <time>2021-06-25T07:23:01.000Z</time>
      </trkpt>
      <trkpt lat="42.71637" lon="0.6513">
        <ele>1448.9</ele>
        <time>2021-06-25T07:23:17.000Z</time>
      </trkpt>
      <trkpt lat="42.71627" lon="0.65126">
        <ele>1451.3</ele>
        <time>2021-06-25T07:23:35.000Z</time>
      </trkpt>
      <trkpt lat="42.71615" lon="0.65123">
        <ele>1455</ele>
        <time>2021-06-25T07:23:55.000Z</time>
      </trkpt>
      <trkpt lat="42.71601" lon="0.65121">
        <ele>1457</ele>
        <time>2021-06-25T07:24:13.000Z</time>
      </trkpt>
      <trkpt lat="42.7159" lon="0.65121">
        <ele>1459.5</ele>
        <time>2021-06-25T07:24:33.000Z</time>
      </trkpt>
      <trkpt lat="42.71573" lon="0.65119">
        <ele>1461.9</ele>
        <time>2021-06-25T07:24:49.000Z</time>
      </trkpt>
      <trkpt lat="42.71551" lon="0.65111">
        <ele>1464.2</ele>
        <time>2021-06-25T07:25:07.000Z</time>
      </trkpt>
      <trkpt lat="42.71549" lon="0.6511">
        <ele>1464.3</ele>
        <time>2021-06-25T07:25:08.000Z</time>
      </trkpt>
      <trkpt lat="42.71523" lon="0.651">
        <ele>1466.6</ele>
        <time>2021-06-25T07:25:27.000Z</time>
      </trkpt>
      <trkpt lat="42.71518" lon="0.65097">
        <ele>1467.5</ele>
        <time>2021-06-25T07:25:33.000Z</time>
      </trkpt>
      <trkpt lat="42.71517" lon="0.65097">
        <ele>1467.5</ele>
        <time>2021-06-25T07:25:35.000Z</time>
      </trkpt>
      <trkpt lat="42.71504" lon="0.65089">
        <ele>1469.9</ele>
        <time>2021-06-25T07:25:52.000Z</time>
      </trkpt>
      <trkpt lat="42.71494" lon="0.65081">
        <ele>1471.5</ele>
        <time>2021-06-25T07:26:07.000Z</time>
      </trkpt>
      <trkpt lat="42.71481" lon="0.65073">
        <ele>1474.4</ele>
        <time>2021-06-25T07:26:23.000Z</time>
      </trkpt>
      <trkpt lat="42.71477" lon="0.65071">
        <ele>1474.4</ele>
        <time>2021-06-25T07:26:27.000Z</time>
      </trkpt>
      <trkpt lat="42.71476" lon="0.6507">
        <ele>1474.3</ele>
        <time>2021-06-25T07:26:29.000Z</time>
      </trkpt>
      <trkpt lat="42.71462" lon="0.65066">
        <ele>1476.3</ele>
        <time>2021-06-25T07:26:42.000Z</time>
      </trkpt>
      <trkpt lat="42.71451" lon="0.65058">
        <ele>1478.1</ele>
        <time>2021-06-25T07:26:58.000Z</time>
      </trkpt>
      <trkpt lat="42.71445" lon="0.65056">
        <ele>1479.6</ele>
        <time>2021-06-25T07:27:05.000Z</time>
      </trkpt>
      <trkpt lat="42.71438" lon="0.65048">
        <ele>1480.5</ele>
        <time>2021-06-25T07:27:19.000Z</time>
      </trkpt>
      <trkpt lat="42.71426" lon="0.65043">
        <ele>1482</ele>
        <time>2021-06-25T07:27:33.000Z</time>
      </trkpt>
      <trkpt lat="42.71412" lon="0.65033">
        <ele>1483.9</ele>
        <time>2021-06-25T07:27:49.000Z</time>
      </trkpt>
      <trkpt lat="42.71394" lon="0.65026">
        <ele>1485.8</ele>
        <time>2021-06-25T07:28:01.000Z</time>
      </trkpt>
      <trkpt lat="42.71392" lon="0.65039">
        <ele>1497.1</ele>
        <time>2021-07-01T19:18:20.000Z</time>
      </trkpt>
      <trkpt lat="42.71346" lon="0.6507">
        <ele>1506.3</ele>
        <time>2021-07-01T19:18:40.000Z</time>
      </trkpt>
      <trkpt lat="42.71346" lon="0.65074">
        <ele>1505.8</ele>
        <time>2021-07-01T19:19:00.000Z</time>
      </trkpt>
      <trkpt lat="42.71292" lon="0.65026">
        <ele>1521.4</ele>
        <time>2021-07-01T19:19:20.000Z</time>
      </trkpt>
      <trkpt lat="42.71293" lon="0.65026">
        <ele>1521.1</ele>
        <time>2021-07-01T19:19:40.000Z</time>
      </trkpt>
      <trkpt lat="42.71296" lon="0.64965">
        <ele>1530.8</ele>
        <time>2021-07-01T19:20:00.000Z</time>
      </trkpt>
      <trkpt lat="42.71296" lon="0.64969">
        <ele>1529.4</ele>
        <time>2021-07-01T19:20:20.000Z</time>
      </trkpt>
      <trkpt lat="42.71256" lon="0.64958">
        <ele>1542.1</ele>
        <time>2021-07-01T19:20:40.000Z</time>
      </trkpt>
      <trkpt lat="42.71254" lon="0.64958">
        <ele>1542.2</ele>
        <time>2021-07-01T19:21:00.000Z</time>
      </trkpt>
      <trkpt lat="42.713" lon="0.64892">
        <ele>1561.4</ele>
        <time>2021-07-01T19:21:20.000Z</time>
      </trkpt>
      <trkpt lat="42.71159" lon="0.64848">
        <ele>1597.6</ele>
        <time>2021-07-01T19:21:40.000Z</time>
      </trkpt>
      <trkpt lat="42.7114" lon="0.64857">
        <ele>1597.3</ele>
        <time>2021-07-01T19:22:00.000Z</time>
      </trkpt>
      <trkpt lat="42.71141" lon="0.64831">
        <ele>1607.5</ele>
        <time>2021-07-01T19:22:20.000Z</time>
      </trkpt>
      <trkpt lat="42.71141" lon="0.64833">
        <ele>1606.8</ele>
        <time>2021-07-01T19:22:40.000Z</time>
      </trkpt>
      <trkpt lat="42.71124" lon="0.64822">
        <ele>1612</ele>
        <time>2021-07-01T19:23:00.000Z</time>
      </trkpt>
      <trkpt lat="42.71128" lon="0.64811">
        <ele>1616.4</ele>
        <time>2021-07-01T19:23:20.000Z</time>
      </trkpt>
      <trkpt lat="42.71132" lon="0.64804">
        <ele>1619.7</ele>
        <time>2021-07-01T19:23:40.000Z</time>
      </trkpt>
      <trkpt lat="42.71134" lon="0.64804">
        <ele>1619.8</ele>
        <time>2021-07-01T19:24:00.000Z</time>
      </trkpt>
      <trkpt lat="42.71137" lon="0.64794">
        <ele>1624.1</ele>
        <time>2021-07-01T19:24:20.000Z</time>
      </trkpt>
      <trkpt lat="42.71132" lon="0.64789">
        <ele>1627.6</ele>
        <time>2021-07-01T19:24:40.000Z</time>
      </trkpt>
      <trkpt lat="42.71124" lon="0.64789">
        <ele>1627.4</ele>
        <time>2021-07-01T19:25:00.000Z</time>
      </trkpt>
      <trkpt lat="42.71118" lon="0.64785">
        <ele>1629.3</ele>
        <time>2021-07-01T19:25:20.000Z</time>
      </trkpt>
      <trkpt lat="42.71118" lon="0.64772">
        <ele>1637</ele>
        <time>2021-07-01T19:25:40.000Z</time>
      </trkpt>
      <trkpt lat="42.71114" lon="0.64765">
        <ele>1641.2</ele>
        <time>2021-07-01T19:26:00.000Z</time>
      </trkpt>
      <trkpt lat="42.71106" lon="0.64765">
        <ele>1640.7</ele>
        <time>2021-07-01T19:26:20.000Z</time>
      </trkpt>
      <trkpt lat="42.71097" lon="0.64763">
        <ele>1641.4</ele>
        <time>2021-07-01T19:26:40.000Z</time>
      </trkpt>
      <trkpt lat="42.71088" lon="0.64761">
        <ele>1642.4</ele>
        <time>2021-07-01T19:27:00.000Z</time>
      </trkpt>
      <trkpt lat="42.7108" lon="0.6476">
        <ele>1643.5</ele>
        <time>2021-07-01T19:27:20.000Z</time>
      </trkpt>
      <trkpt lat="42.71071" lon="0.64756">
        <ele>1645.7</ele>
        <time>2021-07-01T19:27:40.000Z</time>
      </trkpt>
      <trkpt lat="42.71063" lon="0.64748">
        <ele>1649.5</ele>
        <time>2021-07-01T19:28:00.000Z</time>
      </trkpt>
      <trkpt lat="42.71057" lon="0.64741">
        <ele>1653.3</ele>
        <time>2021-07-01T19:28:20.000Z</time>
      </trkpt>
      <trkpt lat="42.71049" lon="0.64734">
        <ele>1657.9</ele>
        <time>2021-07-01T19:28:40.000Z</time>
      </trkpt>
      <trkpt lat="42.71043" lon="0.64725">
        <ele>1662.7</ele>
        <time>2021-07-01T19:29:00.000Z</time>
      </trkpt>
      <trkpt lat="42.71035" lon="0.64719">
        <ele>1665.9</ele>
        <time>2021-07-01T19:29:20.000Z</time>
      </trkpt>
      <trkpt lat="42.71036" lon="0.6471">
        <ele>1669.2</ele>
        <time>2021-07-01T19:29:40.000Z</time>
      </trkpt>
      <trkpt lat="42.71045" lon="0.6471">
        <ele>1669.1</ele>
        <time>2021-07-01T19:30:00.000Z</time>
      </trkpt>
      <trkpt lat="42.71053" lon="0.6471">
        <ele>1670.2</ele>
        <time>2021-07-01T19:30:20.000Z</time>
      </trkpt>
      <trkpt lat="42.71063" lon="0.64714">
        <ele>1670</ele>
        <time>2021-07-01T19:30:40.000Z</time>
      </trkpt>
      <trkpt lat="42.71059" lon="0.64712">
        <ele>1670.2</ele>
        <time>2021-07-01T19:31:00.000Z</time>
      </trkpt>
      <trkpt lat="42.71051" lon="0.64708">
        <ele>1670.8</ele>
        <time>2021-07-01T19:31:20.000Z</time>
      </trkpt>
      <trkpt lat="42.71043" lon="0.64706">
        <ele>1670.9</ele>
        <time>2021-07-01T19:31:40.000Z</time>
      </trkpt>
      <trkpt lat="42.71036" lon="0.64703">
        <ele>1672.7</ele>
        <time>2021-07-01T19:32:00.000Z</time>
      </trkpt>
      <trkpt lat="42.71033" lon="0.64692">
        <ele>1678</ele>
        <time>2021-07-01T19:32:20.000Z</time>
      </trkpt>
      <trkpt lat="42.71039" lon="0.64682">
        <ele>1683</ele>
        <time>2021-07-01T19:32:40.000Z</time>
      </trkpt>
      <trkpt lat="42.71047" lon="0.64682">
        <ele>1684.3</ele>
        <time>2021-07-01T19:33:00.000Z</time>
      </trkpt>
      <trkpt lat="42.71049" lon="0.64682">
        <ele>1685.2</ele>
        <time>2021-07-01T19:33:20.000Z</time>
      </trkpt>
      <trkpt lat="42.7104" lon="0.64679">
        <ele>1686</ele>
        <time>2021-07-01T19:33:40.000Z</time>
      </trkpt>
      <trkpt lat="42.71032" lon="0.64677">
        <ele>1687.9</ele>
        <time>2021-07-01T19:34:00.000Z</time>
      </trkpt>
      <trkpt lat="42.71025" lon="0.64669">
        <ele>1694.7</ele>
        <time>2021-07-01T19:34:20.000Z</time>
      </trkpt>
      <trkpt lat="42.7102" lon="0.64658">
        <ele>1703.5</ele>
        <time>2021-07-01T19:34:40.000Z</time>
      </trkpt>
      <trkpt lat="42.71022" lon="0.64649">
        <ele>1710.3</ele>
        <time>2021-07-01T19:35:00.000Z</time>
      </trkpt>
      <trkpt lat="42.71031" lon="0.64646">
        <ele>1713.5</ele>
        <time>2021-07-01T19:35:20.000Z</time>
      </trkpt>
      <trkpt lat="42.71037" lon="0.64638">
        <ele>1720.2</ele>
        <time>2021-07-01T19:35:40.000Z</time>
      </trkpt>
      <trkpt lat="42.71031" lon="0.64636">
        <ele>1721.1</ele>
        <time>2021-07-01T19:36:00.000Z</time>
      </trkpt>
      <trkpt lat="42.71022" lon="0.64638">
        <ele>1718.5</ele>
        <time>2021-07-01T19:36:20.000Z</time>
      </trkpt>
      <trkpt lat="42.71014" lon="0.64638">
        <ele>1717</ele>
        <time>2021-07-01T19:36:40.000Z</time>
      </trkpt>
      <trkpt lat="42.71005" lon="0.64636">
        <ele>1716.1</ele>
        <time>2021-07-01T19:37:00.000Z</time>
      </trkpt>
      <trkpt lat="42.70998" lon="0.64633">
        <ele>1717.3</ele>
        <time>2021-07-01T19:37:20.000Z</time>
      </trkpt>
      <trkpt lat="42.70994" lon="0.64638">
        <ele>1713.8</ele>
        <time>2021-07-01T19:37:40.000Z</time>
      </trkpt>
      <trkpt lat="42.70985" lon="0.64642">
        <ele>1712</ele>
        <time>2021-07-01T19:38:00.000Z</time>
      </trkpt>
      <trkpt lat="42.70977" lon="0.64642">
        <ele>1712.6</ele>
        <time>2021-07-01T19:38:20.000Z</time>
      </trkpt>
      <trkpt lat="42.70967" lon="0.64642">
        <ele>1712.9</ele>
        <time>2021-07-01T19:38:40.000Z</time>
      </trkpt>
      <trkpt lat="42.70959" lon="0.64642">
        <ele>1713.2</ele>
        <time>2021-07-01T19:39:00.000Z</time>
      </trkpt>
      <trkpt lat="42.70952" lon="0.64638">
        <ele>1714.9</ele>
        <time>2021-07-01T19:39:20.000Z</time>
      </trkpt>
      <trkpt lat="42.70948" lon="0.64629">
        <ele>1719.5</ele>
        <time>2021-07-01T19:39:40.000Z</time>
      </trkpt>
      <trkpt lat="42.70951" lon="0.6462">
        <ele>1724.1</ele>
        <time>2021-07-01T19:40:00.000Z</time>
      </trkpt>
      <trkpt lat="42.70958" lon="0.64614">
        <ele>1727.1</ele>
        <time>2021-07-01T19:40:20.000Z</time>
      </trkpt>
      <trkpt lat="42.70948" lon="0.64614">
        <ele>1727.1</ele>
        <time>2021-07-01T19:40:40.000Z</time>
      </trkpt>
      <trkpt lat="42.7094" lon="0.64611">
        <ele>1730.2</ele>
        <time>2021-07-01T19:41:00.000Z</time>
      </trkpt>
      <trkpt lat="42.70934" lon="0.64605">
        <ele>1734.5</ele>
        <time>2021-07-01T19:41:20.000Z</time>
      </trkpt>
      <trkpt lat="42.70924" lon="0.64603">
        <ele>1737.4</ele>
        <time>2021-07-01T19:41:40.000Z</time>
      </trkpt>
      <trkpt lat="42.70919" lon="0.64596">
        <ele>1741.9</ele>
        <time>2021-07-01T19:42:00.000Z</time>
      </trkpt>
      <trkpt lat="42.70909" lon="0.64592">
        <ele>1745.7</ele>
        <time>2021-07-01T19:42:20.000Z</time>
      </trkpt>
      <trkpt lat="42.70901" lon="0.6459">
        <ele>1749.2</ele>
        <time>2021-07-01T19:42:40.000Z</time>
      </trkpt>
      <trkpt lat="42.70893" lon="0.64587">
        <ele>1753.1</ele>
        <time>2021-07-01T19:43:00.000Z</time>
      </trkpt>
      <trkpt lat="42.70884" lon="0.64587">
        <ele>1755.4</ele>
        <time>2021-07-01T19:43:20.000Z</time>
      </trkpt>
      <trkpt lat="42.70874" lon="0.64587">
        <ele>1756.7</ele>
        <time>2021-07-01T19:43:40.000Z</time>
      </trkpt>
      <trkpt lat="42.70866" lon="0.64587">
        <ele>1758.4</ele>
        <time>2021-07-01T19:44:00.000Z</time>
      </trkpt>
      <trkpt lat="42.70862" lon="0.64596">
        <ele>1758.1</ele>
        <time>2021-07-01T19:44:20.000Z</time>
      </trkpt>
      <trkpt lat="42.70862" lon="0.64607">
        <ele>1756.1</ele>
        <time>2021-07-01T19:44:40.000Z</time>
      </trkpt>
      <trkpt lat="42.70862" lon="0.64618">
        <ele>1753.6</ele>
        <time>2021-07-01T19:45:00.000Z</time>
      </trkpt>
      <trkpt lat="42.70857" lon="0.64622">
        <ele>1755</ele>
        <time>2021-07-01T19:45:20.000Z</time>
      </trkpt>
      <trkpt lat="42.70849" lon="0.64624">
        <ele>1757.7</ele>
        <time>2021-07-01T19:45:40.000Z</time>
      </trkpt>
      <trkpt lat="42.70842" lon="0.64625">
        <ele>1759.2</ele>
        <time>2021-07-01T19:46:00.000Z</time>
      </trkpt>
      <trkpt lat="42.70834" lon="0.64627">
        <ele>1760.4</ele>
        <time>2021-07-01T19:46:20.000Z</time>
      </trkpt>
      <trkpt lat="42.70826" lon="0.64627">
        <ele>1761.1</ele>
        <time>2021-07-01T19:46:40.000Z</time>
      </trkpt>
      <trkpt lat="42.70815" lon="0.64627">
        <ele>1762</ele>
        <time>2021-07-01T19:47:00.000Z</time>
      </trkpt>
      <trkpt lat="42.70808" lon="0.64624">
        <ele>1763.6</ele>
        <time>2021-07-01T19:47:20.000Z</time>
      </trkpt>
      <trkpt lat="42.70799" lon="0.64622">
        <ele>1765.2</ele>
        <time>2021-07-01T19:47:40.000Z</time>
      </trkpt>
      <trkpt lat="42.70793" lon="0.64614">
        <ele>1768</ele>
        <time>2021-07-01T19:48:00.000Z</time>
      </trkpt>
      <trkpt lat="42.70785" lon="0.64613">
        <ele>1770.9</ele>
        <time>2021-07-01T19:48:20.000Z</time>
      </trkpt>
      <trkpt lat="42.70777" lon="0.64613">
        <ele>1773.5</ele>
        <time>2021-07-01T19:48:40.000Z</time>
      </trkpt>
      <trkpt lat="42.70769" lon="0.64614">
        <ele>1775.7</ele>
        <time>2021-07-01T19:49:00.000Z</time>
      </trkpt>
      <trkpt lat="42.70762" lon="0.6462">
        <ele>1776.5</ele>
        <time>2021-07-01T19:49:20.000Z</time>
      </trkpt>
      <trkpt lat="42.70758" lon="0.64624">
        <ele>1777.3</ele>
        <time>2021-07-01T19:49:40.000Z</time>
      </trkpt>
      <trkpt lat="42.7076" lon="0.6465">
        <ele>1771.8</ele>
        <time>2021-06-25T08:17:54.000Z</time>
      </trkpt>
      <trkpt lat="42.70758" lon="0.64655">
        <ele>1771.9</ele>
        <time>2021-06-25T08:18:14.000Z</time>
      </trkpt>
      <trkpt lat="42.70757" lon="0.64664">
        <ele>1772.3</ele>
        <time>2021-06-25T08:18:31.000Z</time>
      </trkpt>
      <trkpt lat="42.70754" lon="0.64664">
        <ele>1771.8</ele>
        <time>2021-06-25T08:18:55.000Z</time>
      </trkpt>
      <trkpt lat="42.70757" lon="0.64663">
        <ele>1772.3</ele>
        <time>2021-06-25T08:19:12.000Z</time>
      </trkpt>
      <trkpt lat="42.70758" lon="0.64664">
        <ele>1772.4</ele>
        <time>2021-06-25T08:19:34.000Z</time>
      </trkpt>
      <trkpt lat="42.70759" lon="0.64664">
        <ele>1772.3</ele>
        <time>2021-06-25T08:19:50.000Z</time>
      </trkpt>
      <trkpt lat="42.70758" lon="0.64663">
        <ele>1772.4</ele>
        <time>2021-06-25T08:20:12.000Z</time>
      </trkpt>
      <trkpt lat="42.70759" lon="0.6467">
        <ele>1771.3</ele>
        <time>2021-06-25T08:20:32.000Z</time>
      </trkpt>
      <trkpt lat="42.70759" lon="0.64673">
        <ele>1772.4</ele>
        <time>2021-06-25T08:20:35.000Z</time>
      </trkpt>
      <trkpt lat="42.7076" lon="0.64682">
        <ele>1773.7</ele>
        <time>2021-06-25T08:20:49.000Z</time>
      </trkpt>
      <trkpt lat="42.70761" lon="0.64693">
        <ele>1774.2</ele>
        <time>2021-06-25T08:21:05.000Z</time>
      </trkpt>
      <trkpt lat="42.70761" lon="0.64702">
        <ele>1776.2</ele>
        <time>2021-06-25T08:21:20.000Z</time>
      </trkpt>
      <trkpt lat="42.70764" lon="0.64721">
        <ele>1777.6</ele>
        <time>2021-06-25T08:21:39.000Z</time>
      </trkpt>
      <trkpt lat="42.70766" lon="0.64741">
        <ele>1779</ele>
        <time>2021-06-25T08:21:57.000Z</time>
      </trkpt>
      <trkpt lat="42.7077" lon="0.64759">
        <ele>1780.6</ele>
        <time>2021-06-25T08:22:14.000Z</time>
      </trkpt>
      <trkpt lat="42.70765" lon="0.64754">
        <ele>1782.5</ele>
        <time>2021-06-25T08:22:29.000Z</time>
      </trkpt>
      <trkpt lat="42.70758" lon="0.64746">
        <ele>1783.9</ele>
        <time>2021-06-25T08:22:44.000Z</time>
      </trkpt>
      <trkpt lat="42.70751" lon="0.64734">
        <ele>1786.3</ele>
        <time>2021-06-25T08:23:01.000Z</time>
      </trkpt>
      <trkpt lat="42.70744" lon="0.64729">
        <ele>1787.7</ele>
        <time>2021-06-25T08:23:17.000Z</time>
      </trkpt>
      <trkpt lat="42.70743" lon="0.64745">
        <ele>1790.2</ele>
        <time>2021-06-25T08:23:35.000Z</time>
      </trkpt>
      <trkpt lat="42.70743" lon="0.6476">
        <ele>1792.1</ele>
        <time>2021-06-25T08:23:52.000Z</time>
      </trkpt>
      <trkpt lat="42.70744" lon="0.64773">
        <ele>1793.9</ele>
        <time>2021-06-25T08:24:09.000Z</time>
      </trkpt>
      <trkpt lat="42.70746" lon="0.64785">
        <ele>1796.3</ele>
        <time>2021-06-25T08:24:25.000Z</time>
      </trkpt>
      <trkpt lat="42.70739" lon="0.64778">
        <ele>1797.3</ele>
        <time>2021-06-25T08:24:39.000Z</time>
      </trkpt>
      <trkpt lat="42.70731" lon="0.64774">
        <ele>1799.3</ele>
        <time>2021-06-25T08:24:54.000Z</time>
      </trkpt>
      <trkpt lat="42.70724" lon="0.64767">
        <ele>1801.2</ele>
        <time>2021-06-25T08:25:09.000Z</time>
      </trkpt>
      <trkpt lat="42.70721" lon="0.64754">
        <ele>1803</ele>
        <time>2021-06-25T08:25:25.000Z</time>
      </trkpt>
      <trkpt lat="42.70716" lon="0.64763">
        <ele>1805</ele>
        <time>2021-06-25T08:25:40.000Z</time>
      </trkpt>
      <trkpt lat="42.70713" lon="0.64778">
        <ele>1806.9</ele>
        <time>2021-06-25T08:25:58.000Z</time>
      </trkpt>
      <trkpt lat="42.70714" lon="0.6479">
        <ele>1808.9</ele>
        <time>2021-06-25T08:26:15.000Z</time>
      </trkpt>
      <trkpt lat="42.7072" lon="0.64801">
        <ele>1810.4</ele>
        <time>2021-06-25T08:26:30.000Z</time>
      </trkpt>
      <trkpt lat="42.70713" lon="0.648">
        <ele>1811.8</ele>
        <time>2021-06-25T08:26:43.000Z</time>
      </trkpt>
      <trkpt lat="42.70704" lon="0.64797">
        <ele>1814.1</ele>
        <time>2021-06-25T08:26:59.000Z</time>
      </trkpt>
      <trkpt lat="42.70699" lon="0.64785">
        <ele>1816.5</ele>
        <time>2021-06-25T08:27:16.000Z</time>
      </trkpt>
      <trkpt lat="42.70697" lon="0.64771">
        <ele>1812.2</ele>
        <time>2021-06-25T08:27:30.000Z</time>
      </trkpt>
      <trkpt lat="42.70696" lon="0.6477">
        <ele>1820.3</ele>
        <time>2021-06-25T08:27:31.000Z</time>
      </trkpt>
      <trkpt lat="42.70695" lon="0.64768">
        <ele>1817</ele>
        <time>2021-06-25T08:27:34.000Z</time>
      </trkpt>
      <trkpt lat="42.70694" lon="0.64765">
        <ele>1818.4</ele>
        <time>2021-06-25T08:27:38.000Z</time>
      </trkpt>
      <trkpt lat="42.70691" lon="0.64766">
        <ele>1820.4</ele>
        <time>2021-06-25T08:27:56.000Z</time>
      </trkpt>
      <trkpt lat="42.7069" lon="0.64782">
        <ele>1822.4</ele>
        <time>2021-06-25T08:28:15.000Z</time>
      </trkpt>
      <trkpt lat="42.70686" lon="0.64794">
        <ele>1825.6</ele>
        <time>2021-06-25T08:28:35.000Z</time>
      </trkpt>
      <trkpt lat="42.70685" lon="0.64795">
        <ele>1825.6</ele>
        <time>2021-06-25T08:28:36.000Z</time>
      </trkpt>
      <trkpt lat="42.70681" lon="0.64808">
        <ele>1827.7</ele>
        <time>2021-06-25T08:28:55.000Z</time>
      </trkpt>
      <trkpt lat="42.70685" lon="0.64813">
        <ele>1829.5</ele>
        <time>2021-06-25T08:29:04.000Z</time>
      </trkpt>
      <trkpt lat="42.70685" lon="0.64817">
        <ele>1830.4</ele>
        <time>2021-06-25T08:29:09.000Z</time>
      </trkpt>
      <trkpt lat="42.70685" lon="0.64819">
        <ele>1829</ele>
        <time>2021-06-25T08:29:11.000Z</time>
      </trkpt>
      <trkpt lat="42.70685" lon="0.64819">
        <ele>1830.4</ele>
        <time>2021-06-25T08:29:12.000Z</time>
      </trkpt>
      <trkpt lat="42.70687" lon="0.64824">
        <ele>1830.5</ele>
        <time>2021-06-25T08:29:21.000Z</time>
      </trkpt>
      <trkpt lat="42.70688" lon="0.64826">
        <ele>1832</ele>
        <time>2021-06-25T08:29:24.000Z</time>
      </trkpt>
      <trkpt lat="42.70689" lon="0.64828">
        <ele>1831.4</ele>
        <time>2021-06-25T08:29:26.000Z</time>
      </trkpt>
      <trkpt lat="42.70689" lon="0.64828">
        <ele>1830</ele>
        <time>2021-06-25T08:29:27.000Z</time>
      </trkpt>
      <trkpt lat="42.70689" lon="0.64829">
        <ele>1832</ele>
        <time>2021-06-25T08:29:29.000Z</time>
      </trkpt>
      <trkpt lat="42.70685" lon="0.64833">
        <ele>1833.9</ele>
        <time>2021-06-25T08:29:40.000Z</time>
      </trkpt>
      <trkpt lat="42.70683" lon="0.64831">
        <ele>1832.4</ele>
        <time>2021-06-25T08:29:44.000Z</time>
      </trkpt>
      <trkpt lat="42.70683" lon="0.64831">
        <ele>1834.3</ele>
        <time>2021-06-25T08:29:46.000Z</time>
      </trkpt>
      <trkpt lat="42.70678" lon="0.6483">
        <ele>1833.9</ele>
        <time>2021-06-25T08:29:56.000Z</time>
      </trkpt>
      <trkpt lat="42.70676" lon="0.6483">
        <ele>1835.7</ele>
        <time>2021-06-25T08:30:01.000Z</time>
      </trkpt>
      <trkpt lat="42.70674" lon="0.64829">
        <ele>1834.3</ele>
        <time>2021-06-25T08:30:03.000Z</time>
      </trkpt>
      <trkpt lat="42.70674" lon="0.64829">
        <ele>1836.7</ele>
        <time>2021-06-25T08:30:04.000Z</time>
      </trkpt>
      <trkpt lat="42.70672" lon="0.64828">
        <ele>1836.8</ele>
        <time>2021-06-25T08:30:07.000Z</time>
      </trkpt>
      <trkpt lat="42.7067" lon="0.64827">
        <ele>1835.7</ele>
        <time>2021-06-25T08:30:11.000Z</time>
      </trkpt>
      <trkpt lat="42.70668" lon="0.64827">
        <ele>1837.8</ele>
        <time>2021-06-25T08:30:13.000Z</time>
      </trkpt>
      <trkpt lat="42.70665" lon="0.64826">
        <ele>1836.8</ele>
        <time>2021-06-25T08:30:16.000Z</time>
      </trkpt>
      <trkpt lat="42.70661" lon="0.6482">
        <ele>1837.8</ele>
        <time>2021-06-25T08:30:23.000Z</time>
      </trkpt>
      <trkpt lat="42.70656" lon="0.64807">
        <ele>1837.7</ele>
        <time>2021-06-25T08:30:41.000Z</time>
      </trkpt>
      <trkpt lat="42.70656" lon="0.64806">
        <ele>1839.6</ele>
        <time>2021-06-25T08:30:42.000Z</time>
      </trkpt>
      <trkpt lat="42.70655" lon="0.64805">
        <ele>1838.2</ele>
        <time>2021-06-25T08:30:46.000Z</time>
      </trkpt>
      <trkpt lat="42.70654" lon="0.64804">
        <ele>1840.6</ele>
        <time>2021-06-25T08:30:47.000Z</time>
      </trkpt>
      <trkpt lat="42.70653" lon="0.64805">
        <ele>1839.7</ele>
        <time>2021-06-25T08:30:51.000Z</time>
      </trkpt>
      <trkpt lat="42.7065" lon="0.64811">
        <ele>1840.5</ele>
        <time>2021-06-25T08:31:01.000Z</time>
      </trkpt>
      <trkpt lat="42.70649" lon="0.64812">
        <ele>1842</ele>
        <time>2021-06-25T08:31:03.000Z</time>
      </trkpt>
      <trkpt lat="42.70647" lon="0.64811">
        <ele>1842</ele>
        <time>2021-06-25T08:31:12.000Z</time>
      </trkpt>
      <trkpt lat="42.70647" lon="0.64807">
        <ele>1843.9</ele>
        <time>2021-06-25T08:31:18.000Z</time>
      </trkpt>
      <trkpt lat="42.70645" lon="0.64806">
        <ele>1843</ele>
        <time>2021-06-25T08:31:21.000Z</time>
      </trkpt>
      <trkpt lat="42.70643" lon="0.64805">
        <ele>1845</ele>
        <time>2021-06-25T08:31:25.000Z</time>
      </trkpt>
      <trkpt lat="42.70643" lon="0.64805">
        <ele>1842.9</ele>
        <time>2021-06-25T08:31:26.000Z</time>
      </trkpt>
      <trkpt lat="42.70642" lon="0.64805">
        <ele>1844.9</ele>
        <time>2021-06-25T08:31:27.000Z</time>
      </trkpt>
      <trkpt lat="42.70642" lon="0.64804">
        <ele>1843</ele>
        <time>2021-06-25T08:31:28.000Z</time>
      </trkpt>
      <trkpt lat="42.70642" lon="0.64804">
        <ele>1845</ele>
        <time>2021-06-25T08:31:29.000Z</time>
      </trkpt>
      <trkpt lat="42.7064" lon="0.64802">
        <ele>1844</ele>
        <time>2021-06-25T08:31:31.000Z</time>
      </trkpt>
      <trkpt lat="42.70639" lon="0.64802">
        <ele>1845.3</ele>
        <time>2021-06-25T08:31:33.000Z</time>
      </trkpt>
      <trkpt lat="42.70642" lon="0.64795">
        <ele>1845.8</ele>
        <time>2021-06-25T08:31:39.000Z</time>
      </trkpt>
      <trkpt lat="42.70641" lon="0.64788">
        <ele>1848.7</ele>
        <time>2021-06-25T08:31:57.000Z</time>
      </trkpt>
      <trkpt lat="42.70642" lon="0.64792">
        <ele>1848.7</ele>
        <time>2021-06-25T08:32:11.000Z</time>
      </trkpt>
      <trkpt lat="42.70642" lon="0.64792">
        <ele>1850.1</ele>
        <time>2021-06-25T08:32:12.000Z</time>
      </trkpt>
      <trkpt lat="42.70642" lon="0.64796">
        <ele>1851.1</ele>
        <time>2021-06-25T08:32:18.000Z</time>
      </trkpt>
      <trkpt lat="42.70639" lon="0.64795">
        <ele>1851.2</ele>
        <time>2021-06-25T08:32:25.000Z</time>
      </trkpt>
      <trkpt lat="42.70638" lon="0.64795">
        <ele>1853.1</ele>
        <time>2021-06-25T08:32:26.000Z</time>
      </trkpt>
      <trkpt lat="42.70637" lon="0.64795">
        <ele>1850.2</ele>
        <time>2021-06-25T08:32:27.000Z</time>
      </trkpt>
      <trkpt lat="42.70637" lon="0.64794">
        <ele>1853.5</ele>
        <time>2021-06-25T08:32:28.000Z</time>
      </trkpt>
      <trkpt lat="42.70636" lon="0.64794">
        <ele>1852.1</ele>
        <time>2021-06-25T08:32:30.000Z</time>
      </trkpt>
      <trkpt lat="42.70634" lon="0.64794">
        <ele>1854.1</ele>
        <time>2021-06-25T08:32:33.000Z</time>
      </trkpt>
      <trkpt lat="42.70634" lon="0.64794">
        <ele>1851.1</ele>
        <time>2021-06-25T08:32:34.000Z</time>
      </trkpt>
      <trkpt lat="42.70634" lon="0.64794">
        <ele>1854.5</ele>
        <time>2021-06-25T08:32:35.000Z</time>
      </trkpt>
      <trkpt lat="42.70633" lon="0.64793">
        <ele>1853.5</ele>
        <time>2021-06-25T08:32:36.000Z</time>
      </trkpt>
      <trkpt lat="42.70633" lon="0.64791">
        <ele>1855</ele>
        <time>2021-06-25T08:32:41.000Z</time>
      </trkpt>
      <trkpt lat="42.70633" lon="0.64791">
        <ele>1853.1</ele>
        <time>2021-06-25T08:32:42.000Z</time>
      </trkpt>
      <trkpt lat="42.70633" lon="0.64791">
        <ele>1856</ele>
        <time>2021-06-25T08:32:43.000Z</time>
      </trkpt>
      <trkpt lat="42.70632" lon="0.64791">
        <ele>1853.5</ele>
        <time>2021-06-25T08:32:44.000Z</time>
      </trkpt>
      <trkpt lat="42.70632" lon="0.6479">
        <ele>1855.5</ele>
        <time>2021-06-25T08:32:45.000Z</time>
      </trkpt>
      <trkpt lat="42.70631" lon="0.64789">
        <ele>1854</ele>
        <time>2021-06-25T08:32:49.000Z</time>
      </trkpt>
      <trkpt lat="42.7063" lon="0.64788">
        <ele>1856.5</ele>
        <time>2021-06-25T08:32:51.000Z</time>
      </trkpt>
      <trkpt lat="42.7063" lon="0.64786">
        <ele>1854.6</ele>
        <time>2021-06-25T08:32:53.000Z</time>
      </trkpt>
      <trkpt lat="42.70629" lon="0.64784">
        <ele>1856</ele>
        <time>2021-06-25T08:32:56.000Z</time>
      </trkpt>
      <trkpt lat="42.70627" lon="0.64775">
        <ele>1855</ele>
        <time>2021-06-25T08:33:06.000Z</time>
      </trkpt>
      <trkpt lat="42.70626" lon="0.64774">
        <ele>1855.9</ele>
        <time>2021-06-25T08:33:10.000Z</time>
      </trkpt>
      <trkpt lat="42.70624" lon="0.64772">
        <ele>1854.5</ele>
        <time>2021-06-25T08:33:15.000Z</time>
      </trkpt>
      <trkpt lat="42.70624" lon="0.64771">
        <ele>1857.4</ele>
        <time>2021-06-25T08:33:16.000Z</time>
      </trkpt>
      <trkpt lat="42.70624" lon="0.6477">
        <ele>1856</ele>
        <time>2021-06-25T08:33:18.000Z</time>
      </trkpt>
      <trkpt lat="42.70623" lon="0.64769">
        <ele>1858.9</ele>
        <time>2021-06-25T08:33:19.000Z</time>
      </trkpt>
      <trkpt lat="42.70623" lon="0.64769">
        <ele>1856</ele>
        <time>2021-06-25T08:33:20.000Z</time>
      </trkpt>
      <trkpt lat="42.70623" lon="0.64765">
        <ele>1857.9</ele>
        <time>2021-06-25T08:33:26.000Z</time>
      </trkpt>
      <trkpt lat="42.70622" lon="0.64765">
        <ele>1856.4</ele>
        <time>2021-06-25T08:33:27.000Z</time>
      </trkpt>
      <trkpt lat="42.70622" lon="0.64764">
        <ele>1856.9</ele>
        <time>2021-06-25T08:33:29.000Z</time>
      </trkpt>
      <trkpt lat="42.70621" lon="0.64763">
        <ele>1857.5</ele>
        <time>2021-06-25T08:33:31.000Z</time>
      </trkpt>
      <trkpt lat="42.70621" lon="0.6476">
        <ele>1856.4</ele>
        <time>2021-06-25T08:33:40.000Z</time>
      </trkpt>
      <trkpt lat="42.7062" lon="0.64759">
        <ele>1858.3</ele>
        <time>2021-06-25T08:33:44.000Z</time>
      </trkpt>
      <trkpt lat="42.70619" lon="0.64758">
        <ele>1857.4</ele>
        <time>2021-06-25T08:33:46.000Z</time>
      </trkpt>
      <trkpt lat="42.70619" lon="0.64758">
        <ele>1858.8</ele>
        <time>2021-06-25T08:33:55.000Z</time>
      </trkpt>
      <trkpt lat="42.70617" lon="0.6475">
        <ele>1860.2</ele>
        <time>2021-06-25T08:34:07.000Z</time>
      </trkpt>
      <trkpt lat="42.70613" lon="0.64743">
        <ele>1863.7</ele>
        <time>2021-06-25T08:34:20.000Z</time>
      </trkpt>
      <trkpt lat="42.70613" lon="0.64741">
        <ele>1863.6</ele>
        <time>2021-06-25T08:34:21.000Z</time>
      </trkpt>
      <trkpt lat="42.70613" lon="0.6474">
        <ele>1860.2</ele>
        <time>2021-06-25T08:34:22.000Z</time>
      </trkpt>
      <trkpt lat="42.70613" lon="0.64739">
        <ele>1862.3</ele>
        <time>2021-06-25T08:34:23.000Z</time>
      </trkpt>
      <trkpt lat="42.70614" lon="0.6473">
        <ele>1861.7</ele>
        <time>2021-06-25T08:34:35.000Z</time>
      </trkpt>
      <trkpt lat="42.70615" lon="0.64728">
        <ele>1864.1</ele>
        <time>2021-06-25T08:34:37.000Z</time>
      </trkpt>
      <trkpt lat="42.70614" lon="0.6472">
        <ele>1867</ele>
        <time>2021-06-25T08:34:45.000Z</time>
      </trkpt>
      <trkpt lat="42.70614" lon="0.64719">
        <ele>1867.1</ele>
        <time>2021-06-25T08:34:46.000Z</time>
      </trkpt>
      <trkpt lat="42.70613" lon="0.64718">
        <ele>1864.1</ele>
        <time>2021-06-25T08:34:47.000Z</time>
      </trkpt>
      <trkpt lat="42.70612" lon="0.64717">
        <ele>1864.6</ele>
        <time>2021-06-25T08:34:49.000Z</time>
      </trkpt>
      <trkpt lat="42.70611" lon="0.64714">
        <ele>1866.5</ele>
        <time>2021-06-25T08:34:56.000Z</time>
      </trkpt>
      <trkpt lat="42.7061" lon="0.64714">
        <ele>1864.7</ele>
        <time>2021-06-25T08:34:57.000Z</time>
      </trkpt>
      <trkpt lat="42.70609" lon="0.64714">
        <ele>1866.1</ele>
        <time>2021-06-25T08:35:01.000Z</time>
      </trkpt>
      <trkpt lat="42.70609" lon="0.64714">
        <ele>1864.7</ele>
        <time>2021-06-25T08:35:02.000Z</time>
      </trkpt>
      <trkpt lat="42.70609" lon="0.64715">
        <ele>1866.1</ele>
        <time>2021-06-25T08:35:03.000Z</time>
      </trkpt>
      <trkpt lat="42.70608" lon="0.6472">
        <ele>1867.9</ele>
        <time>2021-06-25T08:35:08.000Z</time>
      </trkpt>
      <trkpt lat="42.70607" lon="0.6472">
        <ele>1865.5</ele>
        <time>2021-06-25T08:35:09.000Z</time>
      </trkpt>
      <trkpt lat="42.70607" lon="0.64722">
        <ele>1867.1</ele>
        <time>2021-06-25T08:35:10.000Z</time>
      </trkpt>
      <trkpt lat="42.70606" lon="0.64728">
        <ele>1867</ele>
        <time>2021-06-25T08:35:16.000Z</time>
      </trkpt>
      <trkpt lat="42.70605" lon="0.6473">
        <ele>1863.1</ele>
        <time>2021-06-25T08:35:19.000Z</time>
      </trkpt>
      <trkpt lat="42.70605" lon="0.6473">
        <ele>1866.5</ele>
        <time>2021-06-25T08:35:20.000Z</time>
      </trkpt>
      <trkpt lat="42.70605" lon="0.64731">
        <ele>1866.5</ele>
        <time>2021-06-25T08:35:21.000Z</time>
      </trkpt>
      <trkpt lat="42.70605" lon="0.64732">
        <ele>1867.9</ele>
        <time>2021-06-25T08:35:23.000Z</time>
      </trkpt>
      <trkpt lat="42.70605" lon="0.64735">
        <ele>1866.6</ele>
        <time>2021-06-25T08:35:27.000Z</time>
      </trkpt>
      <trkpt lat="42.70605" lon="0.64736">
        <ele>1868.5</ele>
        <time>2021-06-25T08:35:28.000Z</time>
      </trkpt>
      <trkpt lat="42.70604" lon="0.6474">
        <ele>1870</ele>
        <time>2021-06-25T08:35:33.000Z</time>
      </trkpt>
      <trkpt lat="42.70604" lon="0.6474">
        <ele>1867.6</ele>
        <time>2021-06-25T08:35:34.000Z</time>
      </trkpt>
      <trkpt lat="42.70604" lon="0.64742">
        <ele>1868.9</ele>
        <time>2021-06-25T08:35:36.000Z</time>
      </trkpt>
      <trkpt lat="42.70604" lon="0.64745">
        <ele>1868.4</ele>
        <time>2021-06-25T08:35:40.000Z</time>
      </trkpt>
      <trkpt lat="42.70604" lon="0.64746">
        <ele>1870.4</ele>
        <time>2021-06-25T08:35:41.000Z</time>
      </trkpt>
      <trkpt lat="42.70604" lon="0.64746">
        <ele>1869</ele>
        <time>2021-06-25T08:35:42.000Z</time>
      </trkpt>
      <trkpt lat="42.70604" lon="0.64747">
        <ele>1871.8</ele>
        <time>2021-06-25T08:35:45.000Z</time>
      </trkpt>
      <trkpt lat="42.70605" lon="0.64748">
        <ele>1869</ele>
        <time>2021-06-25T08:35:46.000Z</time>
      </trkpt>
      <trkpt lat="42.70605" lon="0.64749">
        <ele>1870.8</ele>
        <time>2021-06-25T08:35:52.000Z</time>
      </trkpt>
      <trkpt lat="42.70605" lon="0.64749">
        <ele>1868.4</ele>
        <time>2021-06-25T08:35:54.000Z</time>
      </trkpt>
      <trkpt lat="42.70605" lon="0.64749">
        <ele>1866</ele>
        <time>2021-06-25T08:35:55.000Z</time>
      </trkpt>
      <trkpt lat="42.70605" lon="0.64749">
        <ele>1871.8</ele>
        <time>2021-06-25T08:35:56.000Z</time>
      </trkpt>
      <trkpt lat="42.70605" lon="0.64749">
        <ele>1869.9</ele>
        <time>2021-06-25T08:35:57.000Z</time>
      </trkpt>
      <trkpt lat="42.70602" lon="0.64752">
        <ele>1870.3</ele>
        <time>2021-06-25T08:36:05.000Z</time>
      </trkpt>
      <trkpt lat="42.706" lon="0.64751">
        <ele>1871.9</ele>
        <time>2021-06-25T08:36:08.000Z</time>
      </trkpt>
      <trkpt lat="42.706" lon="0.64751">
        <ele>1870.3</ele>
        <time>2021-06-25T08:36:09.000Z</time>
      </trkpt>
      <trkpt lat="42.70599" lon="0.64748">
        <ele>1871.8</ele>
        <time>2021-06-25T08:36:11.000Z</time>
      </trkpt>
      <trkpt lat="42.70599" lon="0.64748">
        <ele>1870</ele>
        <time>2021-06-25T08:36:12.000Z</time>
      </trkpt>
      <trkpt lat="42.70599" lon="0.64746">
        <ele>1872.3</ele>
        <time>2021-06-25T08:36:13.000Z</time>
      </trkpt>
      <trkpt lat="42.70598" lon="0.64743">
        <ele>1870.9</ele>
        <time>2021-06-25T08:36:17.000Z</time>
      </trkpt>
      <trkpt lat="42.70598" lon="0.64741">
        <ele>1872.3</ele>
        <time>2021-06-25T08:36:18.000Z</time>
      </trkpt>
      <trkpt lat="42.70598" lon="0.6474">
        <ele>1870.8</ele>
        <time>2021-06-25T08:36:19.000Z</time>
      </trkpt>
      <trkpt lat="42.70598" lon="0.64737">
        <ele>1873.8</ele>
        <time>2021-06-25T08:36:21.000Z</time>
      </trkpt>
      <trkpt lat="42.70599" lon="0.64736">
        <ele>1872.4</ele>
        <time>2021-06-25T08:36:22.000Z</time>
      </trkpt>
      <trkpt lat="42.70599" lon="0.6473">
        <ele>1874.8</ele>
        <time>2021-06-25T08:36:26.000Z</time>
      </trkpt>
      <trkpt lat="42.70599" lon="0.64728">
        <ele>1870.9</ele>
        <time>2021-06-25T08:36:27.000Z</time>
      </trkpt>
      <trkpt lat="42.70599" lon="0.64727">
        <ele>1870.8</ele>
        <time>2021-06-25T08:36:28.000Z</time>
      </trkpt>
      <trkpt lat="42.70599" lon="0.64726">
        <ele>1872.8</ele>
        <time>2021-06-25T08:36:29.000Z</time>
      </trkpt>
      <trkpt lat="42.70598" lon="0.64721">
        <ele>1871.3</ele>
        <time>2021-06-25T08:36:38.000Z</time>
      </trkpt>
      <trkpt lat="42.70598" lon="0.64722">
        <ele>1874.2</ele>
        <time>2021-06-25T08:36:39.000Z</time>
      </trkpt>
      <trkpt lat="42.70597" lon="0.64726">
        <ele>1873.3</ele>
        <time>2021-06-25T08:36:43.000Z</time>
      </trkpt>
      <trkpt lat="42.70597" lon="0.64726">
        <ele>1875.1</ele>
        <time>2021-06-25T08:36:44.000Z</time>
      </trkpt>
      <trkpt lat="42.70597" lon="0.64727">
        <ele>1873.2</ele>
        <time>2021-06-25T08:36:46.000Z</time>
      </trkpt>
      <trkpt lat="42.70597" lon="0.64728">
        <ele>1875.6</ele>
        <time>2021-06-25T08:36:47.000Z</time>
      </trkpt>
      <trkpt lat="42.70597" lon="0.64731">
        <ele>1873.7</ele>
        <time>2021-06-25T08:36:52.000Z</time>
      </trkpt>
      <trkpt lat="42.70596" lon="0.64732">
        <ele>1875.7</ele>
        <time>2021-06-25T08:36:53.000Z</time>
      </trkpt>
      <trkpt lat="42.70596" lon="0.64733">
        <ele>1875.2</ele>
        <time>2021-06-25T08:36:55.000Z</time>
      </trkpt>
      <trkpt lat="42.70596" lon="0.64734">
        <ele>1876.7</ele>
        <time>2021-06-25T08:36:56.000Z</time>
      </trkpt>
      <trkpt lat="42.70594" lon="0.64736">
        <ele>1875.2</ele>
        <time>2021-06-25T08:36:59.000Z</time>
      </trkpt>
      <trkpt lat="42.70593" lon="0.64738">
        <ele>1877.2</ele>
        <time>2021-06-25T08:37:02.000Z</time>
      </trkpt>
      <trkpt lat="42.70592" lon="0.64741">
        <ele>1875.2</ele>
        <time>2021-06-25T08:37:05.000Z</time>
      </trkpt>
      <trkpt lat="42.70591" lon="0.64743">
        <ele>1877.5</ele>
        <time>2021-06-25T08:37:07.000Z</time>
      </trkpt>
      <trkpt lat="42.70589" lon="0.64745">
        <ele>1875.1</ele>
        <time>2021-06-25T08:37:10.000Z</time>
      </trkpt>
      <trkpt lat="42.70589" lon="0.64746">
        <ele>1876.6</ele>
        <time>2021-06-25T08:37:11.000Z</time>
      </trkpt>
      <trkpt lat="42.70588" lon="0.64748">
        <ele>1876.1</ele>
        <time>2021-06-25T08:37:14.000Z</time>
      </trkpt>
      <trkpt lat="42.70588" lon="0.64749">
        <ele>1878</ele>
        <time>2021-06-25T08:37:15.000Z</time>
      </trkpt>
      <trkpt lat="42.70588" lon="0.6475">
        <ele>1876.7</ele>
        <time>2021-06-25T08:37:16.000Z</time>
      </trkpt>
      <trkpt lat="42.70589" lon="0.64751">
        <ele>1878.1</ele>
        <time>2021-06-25T08:37:18.000Z</time>
      </trkpt>
      <trkpt lat="42.70589" lon="0.64752">
        <ele>1876.6</ele>
        <time>2021-06-25T08:37:19.000Z</time>
      </trkpt>
      <trkpt lat="42.70589" lon="0.64753">
        <ele>1878.1</ele>
        <time>2021-06-25T08:37:20.000Z</time>
      </trkpt>
      <trkpt lat="42.70588" lon="0.64756">
        <ele>1877.5</ele>
        <time>2021-06-25T08:37:27.000Z</time>
      </trkpt>
      <trkpt lat="42.70587" lon="0.64757">
        <ele>1879.6</ele>
        <time>2021-06-25T08:37:28.000Z</time>
      </trkpt>
      <trkpt lat="42.70587" lon="0.64757">
        <ele>1878</ele>
        <time>2021-06-25T08:37:29.000Z</time>
      </trkpt>
      <trkpt lat="42.70587" lon="0.64758">
        <ele>1880</ele>
        <time>2021-06-25T08:37:30.000Z</time>
      </trkpt>
      <trkpt lat="42.70587" lon="0.64762">
        <ele>1880.1</ele>
        <time>2021-06-25T08:37:35.000Z</time>
      </trkpt>
      <trkpt lat="42.70587" lon="0.64762">
        <ele>1879.5</ele>
        <time>2021-06-25T08:37:37.000Z</time>
      </trkpt>
      <trkpt lat="42.70588" lon="0.64765">
        <ele>1880.4</ele>
        <time>2021-06-25T08:37:40.000Z</time>
      </trkpt>
      <trkpt lat="42.70591" lon="0.6477">
        <ele>1879.5</ele>
        <time>2021-06-25T08:37:46.000Z</time>
      </trkpt>
      <trkpt lat="42.70591" lon="0.64771">
        <ele>1878</ele>
        <time>2021-06-25T08:37:47.000Z</time>
      </trkpt>
      <trkpt lat="42.70592" lon="0.64772">
        <ele>1875.7</ele>
        <time>2021-06-25T08:37:48.000Z</time>
      </trkpt>
      <trkpt lat="42.70592" lon="0.64773">
        <ele>1878</ele>
        <time>2021-06-25T08:37:49.000Z</time>
      </trkpt>
      <trkpt lat="42.70592" lon="0.64774">
        <ele>1881.5</ele>
        <time>2021-06-25T08:37:50.000Z</time>
      </trkpt>
      <trkpt lat="42.70592" lon="0.64774">
        <ele>1879.1</ele>
        <time>2021-06-25T08:37:51.000Z</time>
      </trkpt>
      <trkpt lat="42.70593" lon="0.64775">
        <ele>1882</ele>
        <time>2021-06-25T08:37:52.000Z</time>
      </trkpt>
      <trkpt lat="42.70594" lon="0.64779">
        <ele>1883.4</ele>
        <time>2021-06-25T08:37:56.000Z</time>
      </trkpt>
      <trkpt lat="42.70595" lon="0.64779">
        <ele>1880</ele>
        <time>2021-06-25T08:37:57.000Z</time>
      </trkpt>
      <trkpt lat="42.70593" lon="0.6478">
        <ele>1882.5</ele>
        <time>2021-06-25T08:37:59.000Z</time>
      </trkpt>
      <trkpt lat="42.70593" lon="0.6478">
        <ele>1879</ele>
        <time>2021-06-25T08:38:00.000Z</time>
      </trkpt>
      <trkpt lat="42.70592" lon="0.6478">
        <ele>1880.9</ele>
        <time>2021-06-25T08:38:01.000Z</time>
      </trkpt>
      <trkpt lat="42.70592" lon="0.64779">
        <ele>1883.3</ele>
        <time>2021-06-25T08:38:03.000Z</time>
      </trkpt>
      <trkpt lat="42.70591" lon="0.64779">
        <ele>1880.4</ele>
        <time>2021-06-25T08:38:04.000Z</time>
      </trkpt>
      <trkpt lat="42.70591" lon="0.64779">
        <ele>1883.8</ele>
        <time>2021-06-25T08:38:05.000Z</time>
      </trkpt>
      <trkpt lat="42.70591" lon="0.64779">
        <ele>1880.4</ele>
        <time>2021-06-25T08:38:06.000Z</time>
      </trkpt>
      <trkpt lat="42.7059" lon="0.64779">
        <ele>1878.6</ele>
        <time>2021-06-25T08:38:07.000Z</time>
      </trkpt>
      <trkpt lat="42.7059" lon="0.64778">
        <ele>1883.3</ele>
        <time>2021-06-25T08:38:08.000Z</time>
      </trkpt>
      <trkpt lat="42.70589" lon="0.64778">
        <ele>1880.1</ele>
        <time>2021-06-25T08:38:10.000Z</time>
      </trkpt>
      <trkpt lat="42.70588" lon="0.64777">
        <ele>1880.1</ele>
        <time>2021-06-25T08:38:11.000Z</time>
      </trkpt>
      <trkpt lat="42.70588" lon="0.64776">
        <ele>1885.3</ele>
        <time>2021-06-25T08:38:12.000Z</time>
      </trkpt>
      <trkpt lat="42.70588" lon="0.64775">
        <ele>1881.9</ele>
        <time>2021-06-25T08:38:13.000Z</time>
      </trkpt>
      <trkpt lat="42.70587" lon="0.64775">
        <ele>1879.5</ele>
        <time>2021-06-25T08:38:14.000Z</time>
      </trkpt>
      <trkpt lat="42.70587" lon="0.64774">
        <ele>1884.3</ele>
        <time>2021-06-25T08:38:15.000Z</time>
      </trkpt>
      <trkpt lat="42.70584" lon="0.64771">
        <ele>1886.2</ele>
        <time>2021-06-25T08:38:21.000Z</time>
      </trkpt>
      <trkpt lat="42.70584" lon="0.64771">
        <ele>1884.9</ele>
        <time>2021-06-25T08:38:22.000Z</time>
      </trkpt>
      <trkpt lat="42.70582" lon="0.64772">
        <ele>1884.9</ele>
        <time>2021-06-25T08:38:27.000Z</time>
      </trkpt>
      <trkpt lat="42.70582" lon="0.64773">
        <ele>1883.4</ele>
        <time>2021-06-25T08:38:28.000Z</time>
      </trkpt>
      <trkpt lat="42.70583" lon="0.64773">
        <ele>1884.8</ele>
        <time>2021-06-25T08:38:29.000Z</time>
      </trkpt>
      <trkpt lat="42.70585" lon="0.64777">
        <ele>1888.2</ele>
        <time>2021-06-25T08:38:36.000Z</time>
      </trkpt>
      <trkpt lat="42.70585" lon="0.64777">
        <ele>1888.2</ele>
        <time>2021-06-25T08:38:37.000Z</time>
      </trkpt>
      <trkpt lat="42.70586" lon="0.64778">
        <ele>1884.4</ele>
        <time>2021-06-25T08:38:38.000Z</time>
      </trkpt>
      <trkpt lat="42.70586" lon="0.6478">
        <ele>1886.3</ele>
        <time>2021-06-25T08:38:41.000Z</time>
      </trkpt>
      <trkpt lat="42.70589" lon="0.64786">
        <ele>1885.2</ele>
        <time>2021-06-25T08:38:49.000Z</time>
      </trkpt>
      <trkpt lat="42.70589" lon="0.64787">
        <ele>1887.7</ele>
        <time>2021-06-25T08:38:50.000Z</time>
      </trkpt>
      <trkpt lat="42.70589" lon="0.64787">
        <ele>1886.2</ele>
        <time>2021-06-25T08:38:51.000Z</time>
      </trkpt>
      <trkpt lat="42.70589" lon="0.64788">
        <ele>1887.6</ele>
        <time>2021-06-25T08:38:52.000Z</time>
      </trkpt>
      <trkpt lat="42.70589" lon="0.64788">
        <ele>1886.8</ele>
        <time>2021-06-25T08:38:55.000Z</time>
      </trkpt>
      <trkpt lat="42.70586" lon="0.64787">
        <ele>1888.1</ele>
        <time>2021-06-25T08:39:00.000Z</time>
      </trkpt>
      <trkpt lat="42.70581" lon="0.64781">
        <ele>1889.7</ele>
        <time>2021-06-25T08:39:16.000Z</time>
      </trkpt>
      <trkpt lat="42.70574" lon="0.64774">
        <ele>1891.6</ele>
        <time>2021-06-25T08:39:31.000Z</time>
      </trkpt>
      <trkpt lat="42.70574" lon="0.64773">
        <ele>1890.1</ele>
        <time>2021-06-25T08:39:32.000Z</time>
      </trkpt>
      <trkpt lat="42.70573" lon="0.64773">
        <ele>1891.6</ele>
        <time>2021-06-25T08:39:35.000Z</time>
      </trkpt>
      <trkpt lat="42.70573" lon="0.64773">
        <ele>1892.5</ele>
        <time>2021-06-25T08:39:37.000Z</time>
      </trkpt>
      <trkpt lat="42.70573" lon="0.64773">
        <ele>1889.6</ele>
        <time>2021-06-25T08:39:38.000Z</time>
      </trkpt>
      <trkpt lat="42.70573" lon="0.64774">
        <ele>1891.6</ele>
        <time>2021-06-25T08:39:40.000Z</time>
      </trkpt>
      <trkpt lat="42.70572" lon="0.64775">
        <ele>1891</ele>
        <time>2021-06-25T08:39:42.000Z</time>
      </trkpt>
      <trkpt lat="42.70572" lon="0.64775">
        <ele>1892.4</ele>
        <time>2021-06-25T08:39:45.000Z</time>
      </trkpt>
      <trkpt lat="42.70572" lon="0.64778">
        <ele>1892.4</ele>
        <time>2021-06-25T08:39:52.000Z</time>
      </trkpt>
      <trkpt lat="42.70572" lon="0.64779">
        <ele>1894</ele>
        <time>2021-06-25T08:39:53.000Z</time>
      </trkpt>
      <trkpt lat="42.70571" lon="0.64781">
        <ele>1892.4</ele>
        <time>2021-06-25T08:39:56.000Z</time>
      </trkpt>
      <trkpt lat="42.70571" lon="0.64784">
        <ele>1892.4</ele>
        <time>2021-06-25T08:40:00.000Z</time>
      </trkpt>
      <trkpt lat="42.70571" lon="0.64785">
        <ele>1895</ele>
        <time>2021-06-25T08:40:01.000Z</time>
      </trkpt>
      <trkpt lat="42.70571" lon="0.64787">
        <ele>1894</ele>
        <time>2021-06-25T08:40:06.000Z</time>
      </trkpt>
      <trkpt lat="42.70571" lon="0.64787">
        <ele>1895.4</ele>
        <time>2021-06-25T08:40:07.000Z</time>
      </trkpt>
      <trkpt lat="42.70571" lon="0.64788">
        <ele>1893.4</ele>
        <time>2021-06-25T08:40:08.000Z</time>
      </trkpt>
      <trkpt lat="42.70571" lon="0.64788">
        <ele>1895.4</ele>
        <time>2021-06-25T08:40:09.000Z</time>
      </trkpt>
      <trkpt lat="42.70572" lon="0.6479">
        <ele>1897.4</ele>
        <time>2021-06-25T08:40:14.000Z</time>
      </trkpt>
      <trkpt lat="42.70572" lon="0.64791">
        <ele>1890.1</ele>
        <time>2021-06-25T08:40:15.000Z</time>
      </trkpt>
      <trkpt lat="42.70573" lon="0.64791">
        <ele>1892.9</ele>
        <time>2021-06-25T08:40:16.000Z</time>
      </trkpt>
      <trkpt lat="42.70573" lon="0.64792">
        <ele>1892.9</ele>
        <time>2021-06-25T08:40:17.000Z</time>
      </trkpt>
      <trkpt lat="42.70573" lon="0.64793">
        <ele>1900.7</ele>
        <time>2021-06-25T08:40:19.000Z</time>
      </trkpt>
      <trkpt lat="42.70573" lon="0.64794">
        <ele>1900.6</ele>
        <time>2021-06-25T08:40:20.000Z</time>
      </trkpt>
      <trkpt lat="42.70573" lon="0.64795">
        <ele>1896.3</ele>
        <time>2021-06-25T08:40:21.000Z</time>
      </trkpt>
      <trkpt lat="42.70573" lon="0.64796">
        <ele>1893.4</ele>
        <time>2021-06-25T08:40:23.000Z</time>
      </trkpt>
      <trkpt lat="42.70573" lon="0.64797">
        <ele>1898.3</ele>
        <time>2021-06-25T08:40:24.000Z</time>
      </trkpt>
      <trkpt lat="42.70573" lon="0.64797">
        <ele>1894</ele>
        <time>2021-06-25T08:40:25.000Z</time>
      </trkpt>
      <trkpt lat="42.70573" lon="0.64798">
        <ele>1893.9</ele>
        <time>2021-06-25T08:40:26.000Z</time>
      </trkpt>
      <trkpt lat="42.70573" lon="0.64798">
        <ele>1895.3</ele>
        <time>2021-06-25T08:40:28.000Z</time>
      </trkpt>
      <trkpt lat="42.70575" lon="0.64799">
        <ele>1895.3</ele>
        <time>2021-06-25T08:40:33.000Z</time>
      </trkpt>
      <trkpt lat="42.70575" lon="0.64799">
        <ele>1896.4</ele>
        <time>2021-06-25T08:40:34.000Z</time>
      </trkpt>
      <trkpt lat="42.70575" lon="0.64799">
        <ele>1899.7</ele>
        <time>2021-06-25T08:40:37.000Z</time>
      </trkpt>
      <trkpt lat="42.70575" lon="0.64799">
        <ele>1899.7</ele>
        <time>2021-06-25T08:40:38.000Z</time>
      </trkpt>
      <trkpt lat="42.70574" lon="0.64799">
        <ele>1897.4</ele>
        <time>2021-06-25T08:40:39.000Z</time>
      </trkpt>
      <trkpt lat="42.70574" lon="0.64799">
        <ele>1900.1</ele>
        <time>2021-06-25T08:40:40.000Z</time>
      </trkpt>
      <trkpt lat="42.70574" lon="0.64799">
        <ele>1894.4</ele>
        <time>2021-06-25T08:40:41.000Z</time>
      </trkpt>
      <trkpt lat="42.70573" lon="0.64799">
        <ele>1897.3</ele>
        <time>2021-06-25T08:40:42.000Z</time>
      </trkpt>
      <trkpt lat="42.70573" lon="0.64799">
        <ele>1895.9</ele>
        <time>2021-06-25T08:40:44.000Z</time>
      </trkpt>
      <trkpt lat="42.70572" lon="0.64798">
        <ele>1899.3</ele>
        <time>2021-06-25T08:40:45.000Z</time>
      </trkpt>
      <trkpt lat="42.70572" lon="0.64798">
        <ele>1899.3</ele>
        <time>2021-06-25T08:40:46.000Z</time>
      </trkpt>
      <trkpt lat="42.70571" lon="0.64797">
        <ele>1896.9</ele>
        <time>2021-06-25T08:40:47.000Z</time>
      </trkpt>
      <trkpt lat="42.70571" lon="0.64796">
        <ele>1899.8</ele>
        <time>2021-06-25T08:40:48.000Z</time>
      </trkpt>
      <trkpt lat="42.70571" lon="0.64795">
        <ele>1899.7</ele>
        <time>2021-06-25T08:40:49.000Z</time>
      </trkpt>
      <trkpt lat="42.7057" lon="0.64794">
        <ele>1898.7</ele>
        <time>2021-06-25T08:40:50.000Z</time>
      </trkpt>
      <trkpt lat="42.7057" lon="0.64794">
        <ele>1901.1</ele>
        <time>2021-06-25T08:40:51.000Z</time>
      </trkpt>
      <trkpt lat="42.7057" lon="0.64793">
        <ele>1898.2</ele>
        <time>2021-06-25T08:40:52.000Z</time>
      </trkpt>
      <trkpt lat="42.7057" lon="0.64793">
        <ele>1901.1</ele>
        <time>2021-06-25T08:40:54.000Z</time>
      </trkpt>
      <trkpt lat="42.70569" lon="0.64792">
        <ele>1895.3</ele>
        <time>2021-06-25T08:40:55.000Z</time>
      </trkpt>
      <trkpt lat="42.70569" lon="0.64792">
        <ele>1896.9</ele>
        <time>2021-06-25T08:40:56.000Z</time>
      </trkpt>
      <trkpt lat="42.70568" lon="0.64791">
        <ele>1899.2</ele>
        <time>2021-06-25T08:40:57.000Z</time>
      </trkpt>
      <trkpt lat="42.70567" lon="0.6479">
        <ele>1896.8</ele>
        <time>2021-06-25T08:40:59.000Z</time>
      </trkpt>
      <trkpt lat="42.70567" lon="0.64789">
        <ele>1899.7</ele>
        <time>2021-06-25T08:41:00.000Z</time>
      </trkpt>
      <trkpt lat="42.70565" lon="0.64784">
        <ele>1900.7</ele>
        <time>2021-06-25T08:41:05.000Z</time>
      </trkpt>
      <trkpt lat="42.70564" lon="0.64784">
        <ele>1910.2</ele>
        <time>2021-06-25T08:41:06.000Z</time>
      </trkpt>
      <trkpt lat="42.70564" lon="0.64784">
        <ele>1903.1</ele>
        <time>2021-06-25T08:41:07.000Z</time>
      </trkpt>
      <trkpt lat="42.70563" lon="0.64783">
        <ele>1900.6</ele>
        <time>2021-06-25T08:41:08.000Z</time>
      </trkpt>
      <trkpt lat="42.70561" lon="0.64781">
        <ele>1901.6</ele>
        <time>2021-06-25T08:41:21.000Z</time>
      </trkpt>
      <trkpt lat="42.70559" lon="0.64779">
        <ele>1900.2</ele>
        <time>2021-06-25T08:41:27.000Z</time>
      </trkpt>
      <trkpt lat="42.70559" lon="0.64779">
        <ele>1903.5</ele>
        <time>2021-06-25T08:41:28.000Z</time>
      </trkpt>
      <trkpt lat="42.70559" lon="0.64778">
        <ele>1901.7</ele>
        <time>2021-06-25T08:41:29.000Z</time>
      </trkpt>
      <trkpt lat="42.70558" lon="0.64778">
        <ele>1903.1</ele>
        <time>2021-06-25T08:41:32.000Z</time>
      </trkpt>
      <trkpt lat="42.70556" lon="0.64777">
        <ele>1902.6</ele>
        <time>2021-06-25T08:41:38.000Z</time>
      </trkpt>
      <trkpt lat="42.70555" lon="0.64777">
        <ele>1904</ele>
        <time>2021-06-25T08:41:42.000Z</time>
      </trkpt>
      <trkpt lat="42.70554" lon="0.64777">
        <ele>1903.6</ele>
        <time>2021-06-25T08:41:44.000Z</time>
      </trkpt>
      <trkpt lat="42.70554" lon="0.64777">
        <ele>1905</ele>
        <time>2021-06-25T08:41:45.000Z</time>
      </trkpt>
      <trkpt lat="42.70552" lon="0.64768">
        <ele>1904.5</ele>
        <time>2021-06-25T08:41:57.000Z</time>
      </trkpt>
      <trkpt lat="42.70553" lon="0.64766">
        <ele>1907.3</ele>
        <time>2021-06-25T08:41:58.000Z</time>
      </trkpt>
      <trkpt lat="42.70553" lon="0.64765">
        <ele>1904.9</ele>
        <time>2021-06-25T08:41:59.000Z</time>
      </trkpt>
      <trkpt lat="42.70552" lon="0.6476">
        <ele>1905.9</ele>
        <time>2021-06-25T08:42:08.000Z</time>
      </trkpt>
      <trkpt lat="42.70551" lon="0.64761">
        <ele>1905.4</ele>
        <time>2021-06-25T08:42:14.000Z</time>
      </trkpt>
      <trkpt lat="42.70551" lon="0.6476">
        <ele>1905.5</ele>
        <time>2021-06-25T08:42:37.000Z</time>
      </trkpt>
      <trkpt lat="42.70549" lon="0.64747">
        <ele>1907</ele>
        <time>2021-06-25T08:42:54.000Z</time>
      </trkpt>
      <trkpt lat="42.70549" lon="0.64744">
        <ele>1906.4</ele>
        <time>2021-06-25T08:42:59.000Z</time>
      </trkpt>
      <trkpt lat="42.70548" lon="0.64743">
        <ele>1908.3</ele>
        <time>2021-06-25T08:43:00.000Z</time>
      </trkpt>
      <trkpt lat="42.70548" lon="0.64742">
        <ele>1906.9</ele>
        <time>2021-06-25T08:43:01.000Z</time>
      </trkpt>
      <trkpt lat="42.70548" lon="0.64741">
        <ele>1908.3</ele>
        <time>2021-06-25T08:43:03.000Z</time>
      </trkpt>
      <trkpt lat="42.70548" lon="0.64736">
        <ele>1905.5</ele>
        <time>2021-06-25T08:43:10.000Z</time>
      </trkpt>
      <trkpt lat="42.70548" lon="0.64735">
        <ele>1910.3</ele>
        <time>2021-06-25T08:43:11.000Z</time>
      </trkpt>
      <trkpt lat="42.70548" lon="0.64731">
        <ele>1910.7</ele>
        <time>2021-06-25T08:43:15.000Z</time>
      </trkpt>
      <trkpt lat="42.70548" lon="0.64731">
        <ele>1908.3</ele>
        <time>2021-06-25T08:43:16.000Z</time>
      </trkpt>
      <trkpt lat="42.70547" lon="0.6473">
        <ele>1910.2</ele>
        <time>2021-06-25T08:43:17.000Z</time>
      </trkpt>
      <trkpt lat="42.70543" lon="0.64718">
        <ele>1912.2</ele>
        <time>2021-06-25T08:43:35.000Z</time>
      </trkpt>
      <trkpt lat="42.70545" lon="0.64723">
        <ele>1913.2</ele>
        <time>2021-06-25T08:43:45.000Z</time>
      </trkpt>
      <trkpt lat="42.70543" lon="0.64736">
        <ele>1915.1</ele>
        <time>2021-06-25T08:43:59.000Z</time>
      </trkpt>
      <trkpt lat="42.70542" lon="0.64744">
        <ele>1916.6</ele>
        <time>2021-06-25T08:44:11.000Z</time>
      </trkpt>
      <trkpt lat="42.70538" lon="0.64754">
        <ele>1918.9</ele>
        <time>2021-06-25T08:44:28.000Z</time>
      </trkpt>
      <trkpt lat="42.70537" lon="0.64758">
        <ele>1920.8</ele>
        <time>2021-06-25T08:44:35.000Z</time>
      </trkpt>
      <trkpt lat="42.70536" lon="0.64758">
        <ele>1918.9</ele>
        <time>2021-06-25T08:44:36.000Z</time>
      </trkpt>
      <trkpt lat="42.70536" lon="0.64759">
        <ele>1921.8</ele>
        <time>2021-06-25T08:44:37.000Z</time>
      </trkpt>
      <trkpt lat="42.70536" lon="0.64759">
        <ele>1919.5</ele>
        <time>2021-06-25T08:44:38.000Z</time>
      </trkpt>
      <trkpt lat="42.70536" lon="0.6476">
        <ele>1918</ele>
        <time>2021-06-25T08:44:39.000Z</time>
      </trkpt>
      <trkpt lat="42.70536" lon="0.6476">
        <ele>1921.3</ele>
        <time>2021-06-25T08:44:40.000Z</time>
      </trkpt>
      <trkpt lat="42.70536" lon="0.64761">
        <ele>1921.3</ele>
        <time>2021-06-25T08:44:41.000Z</time>
      </trkpt>
      <trkpt lat="42.70535" lon="0.64761">
        <ele>1919.5</ele>
        <time>2021-06-25T08:44:42.000Z</time>
      </trkpt>
      <trkpt lat="42.70535" lon="0.64763">
        <ele>1920.8</ele>
        <time>2021-06-25T08:44:45.000Z</time>
      </trkpt>
      <trkpt lat="42.70533" lon="0.64765">
        <ele>1923.3</ele>
        <time>2021-06-25T08:44:52.000Z</time>
      </trkpt>
      <trkpt lat="42.70532" lon="0.64766">
        <ele>1919.8</ele>
        <time>2021-06-25T08:44:53.000Z</time>
      </trkpt>
      <trkpt lat="42.70531" lon="0.6477">
        <ele>1923.7</ele>
        <time>2021-06-25T08:44:59.000Z</time>
      </trkpt>
      <trkpt lat="42.7053" lon="0.64771">
        <ele>1923.8</ele>
        <time>2021-06-25T08:45:00.000Z</time>
      </trkpt>
      <trkpt lat="42.7053" lon="0.64772">
        <ele>1921.3</ele>
        <time>2021-06-25T08:45:01.000Z</time>
      </trkpt>
      <trkpt lat="42.70529" lon="0.64772">
        <ele>1923.2</ele>
        <time>2021-06-25T08:45:02.000Z</time>
      </trkpt>
      <trkpt lat="42.70529" lon="0.64773">
        <ele>1920.9</ele>
        <time>2021-06-25T08:45:04.000Z</time>
      </trkpt>
      <trkpt lat="42.70529" lon="0.64774">
        <ele>1923.8</ele>
        <time>2021-06-25T08:45:05.000Z</time>
      </trkpt>
      <trkpt lat="42.70528" lon="0.64774">
        <ele>1922.2</ele>
        <time>2021-06-25T08:45:07.000Z</time>
      </trkpt>
      <trkpt lat="42.70528" lon="0.64775">
        <ele>1924.7</ele>
        <time>2021-06-25T08:45:09.000Z</time>
      </trkpt>
      <trkpt lat="42.70527" lon="0.64775">
        <ele>1923.3</ele>
        <time>2021-06-25T08:45:10.000Z</time>
      </trkpt>
      <trkpt lat="42.70528" lon="0.64777">
        <ele>1924.8</ele>
        <time>2021-06-25T08:45:13.000Z</time>
      </trkpt>
      <trkpt lat="42.70528" lon="0.64777">
        <ele>1922.2</ele>
        <time>2021-06-25T08:45:14.000Z</time>
      </trkpt>
      <trkpt lat="42.70528" lon="0.64778">
        <ele>1925.2</ele>
        <time>2021-06-25T08:45:15.000Z</time>
      </trkpt>
      <trkpt lat="42.70528" lon="0.6478">
        <ele>1923.8</ele>
        <time>2021-06-25T08:45:20.000Z</time>
      </trkpt>
      <trkpt lat="42.70528" lon="0.64781">
        <ele>1926.1</ele>
        <time>2021-06-25T08:45:21.000Z</time>
      </trkpt>
      <trkpt lat="42.70528" lon="0.64781">
        <ele>1924.2</ele>
        <time>2021-06-25T08:45:22.000Z</time>
      </trkpt>
      <trkpt lat="42.70528" lon="0.64782">
        <ele>1925.6</ele>
        <time>2021-06-25T08:45:24.000Z</time>
      </trkpt>
      <trkpt lat="42.70527" lon="0.64786">
        <ele>1924.2</ele>
        <time>2021-06-25T08:45:31.000Z</time>
      </trkpt>
      <trkpt lat="42.70527" lon="0.64786">
        <ele>1925.1</ele>
        <time>2021-06-25T08:45:32.000Z</time>
      </trkpt>
      <trkpt lat="42.70526" lon="0.64786">
        <ele>1927.5</ele>
        <time>2021-06-25T08:45:33.000Z</time>
      </trkpt>
      <trkpt lat="42.70526" lon="0.64787">
        <ele>1923.2</ele>
        <time>2021-06-25T08:45:34.000Z</time>
      </trkpt>
      <trkpt lat="42.70527" lon="0.64787">
        <ele>1923.2</ele>
        <time>2021-06-25T08:45:35.000Z</time>
      </trkpt>
      <trkpt lat="42.70528" lon="0.64788">
        <ele>1924.8</ele>
        <time>2021-06-25T08:45:36.000Z</time>
      </trkpt>
      <trkpt lat="42.70531" lon="0.64793">
        <ele>1927.2</ele>
        <time>2021-06-25T08:45:44.000Z</time>
      </trkpt>
      <trkpt lat="42.70532" lon="0.64794">
        <ele>1925.1</ele>
        <time>2021-06-25T08:45:45.000Z</time>
      </trkpt>
      <trkpt lat="42.70532" lon="0.64794">
        <ele>1927.1</ele>
        <time>2021-06-25T08:45:46.000Z</time>
      </trkpt>
      <trkpt lat="42.70532" lon="0.64795">
        <ele>1925.1</ele>
        <time>2021-06-25T08:45:47.000Z</time>
      </trkpt>
      <trkpt lat="42.70533" lon="0.64796">
        <ele>1927.2</ele>
        <time>2021-06-25T08:45:48.000Z</time>
      </trkpt>
      <trkpt lat="42.70534" lon="0.64798">
        <ele>1924.8</ele>
        <time>2021-06-25T08:45:51.000Z</time>
      </trkpt>
      <trkpt lat="42.70534" lon="0.64798">
        <ele>1928.1</ele>
        <time>2021-06-25T08:45:52.000Z</time>
      </trkpt>
      <trkpt lat="42.70534" lon="0.64799">
        <ele>1925.7</ele>
        <time>2021-06-25T08:45:53.000Z</time>
      </trkpt>
      <trkpt lat="42.70535" lon="0.648">
        <ele>1928</ele>
        <time>2021-06-25T08:45:54.000Z</time>
      </trkpt>
      <trkpt lat="42.70535" lon="0.64801">
        <ele>1927.1</ele>
        <time>2021-06-25T08:45:56.000Z</time>
      </trkpt>
      <trkpt lat="42.70536" lon="0.64804">
        <ele>1928.1</ele>
        <time>2021-06-25T08:45:59.000Z</time>
      </trkpt>
      <trkpt lat="42.70538" lon="0.64811">
        <ele>1928</ele>
        <time>2021-06-25T08:46:21.000Z</time>
      </trkpt>
      <trkpt lat="42.70539" lon="0.64811">
        <ele>1929.1</ele>
        <time>2021-06-25T08:46:44.000Z</time>
      </trkpt>
      <trkpt lat="42.7054" lon="0.64821">
        <ele>1931</ele>
        <time>2021-06-25T08:47:05.000Z</time>
      </trkpt>
      <trkpt lat="42.7054" lon="0.64832">
        <ele>1934.7</ele>
        <time>2021-06-25T08:47:20.000Z</time>
      </trkpt>
      <trkpt lat="42.70538" lon="0.64832">
        <ele>1932.8</ele>
        <time>2021-06-25T08:47:23.000Z</time>
      </trkpt>
      <trkpt lat="42.70532" lon="0.64825">
        <ele>1935.3</ele>
        <time>2021-06-25T08:47:38.000Z</time>
      </trkpt>
      <trkpt lat="42.70525" lon="0.64811">
        <ele>1936.3</ele>
        <time>2021-06-25T08:47:54.000Z</time>
      </trkpt>
      <trkpt lat="42.70515" lon="0.64805">
        <ele>1937.7</ele>
        <time>2021-06-25T08:48:08.000Z</time>
      </trkpt>
      <trkpt lat="42.70507" lon="0.648">
        <ele>1939.6</ele>
        <time>2021-06-25T08:48:23.000Z</time>
      </trkpt>
      <trkpt lat="42.705" lon="0.64793">
        <ele>1942</ele>
        <time>2021-06-25T08:48:38.000Z</time>
      </trkpt>
      <trkpt lat="42.70501" lon="0.64791">
        <ele>1942.9</ele>
        <time>2021-06-25T08:48:41.000Z</time>
      </trkpt>
      <trkpt lat="42.70504" lon="0.64775">
        <ele>1944.4</ele>
        <time>2021-06-25T08:48:57.000Z</time>
      </trkpt>
      <trkpt lat="42.70504" lon="0.64763">
        <ele>1945.9</ele>
        <time>2021-06-25T08:49:13.000Z</time>
      </trkpt>
      <trkpt lat="42.705" lon="0.64748">
        <ele>1947.2</ele>
        <time>2021-06-25T08:49:31.000Z</time>
      </trkpt>
      <trkpt lat="42.70499" lon="0.64737">
        <ele>1948.2</ele>
        <time>2021-06-25T08:49:47.000Z</time>
      </trkpt>
      <trkpt lat="42.70496" lon="0.64727">
        <ele>1951.2</ele>
        <time>2021-06-25T08:50:02.000Z</time>
      </trkpt>
      <trkpt lat="42.7049" lon="0.64726">
        <ele>1952.6</ele>
        <time>2021-06-25T08:50:17.000Z</time>
      </trkpt>
      <trkpt lat="42.70489" lon="0.6474">
        <ele>1955.5</ele>
        <time>2021-06-25T08:50:33.000Z</time>
      </trkpt>
      <trkpt lat="42.70491" lon="0.64744">
        <ele>1954.1</ele>
        <time>2021-06-25T08:50:47.000Z</time>
      </trkpt>
      <trkpt lat="42.70492" lon="0.64753">
        <ele>1955.5</ele>
        <time>2021-06-25T08:50:58.000Z</time>
      </trkpt>
      <trkpt lat="42.70491" lon="0.64762">
        <ele>1957</ele>
        <time>2021-06-25T08:51:11.000Z</time>
      </trkpt>
      <trkpt lat="42.7049" lon="0.64766">
        <ele>1958.3</ele>
        <time>2021-06-25T08:51:18.000Z</time>
      </trkpt>
      <trkpt lat="42.70485" lon="0.64773">
        <ele>1960.2</ele>
        <time>2021-06-25T08:51:36.000Z</time>
      </trkpt>
      <trkpt lat="42.70483" lon="0.64766">
        <ele>1960.3</ele>
        <time>2021-06-25T08:51:44.000Z</time>
      </trkpt>
      <trkpt lat="42.70482" lon="0.64758">
        <ele>1961.3</ele>
        <time>2021-06-25T08:51:52.000Z</time>
      </trkpt>
      <trkpt lat="42.70478" lon="0.64743">
        <ele>1960.8</ele>
        <time>2021-06-25T08:52:08.000Z</time>
      </trkpt>
      <trkpt lat="42.70474" lon="0.64737">
        <ele>1964.6</ele>
        <time>2021-06-25T08:52:19.000Z</time>
      </trkpt>
      <trkpt lat="42.70474" lon="0.64737">
        <ele>1964.6</ele>
        <time>2021-06-25T08:52:20.000Z</time>
      </trkpt>
      <trkpt lat="42.7047" lon="0.64726">
        <ele>1966.6</ele>
        <time>2021-06-25T08:52:39.000Z</time>
      </trkpt>
      <trkpt lat="42.70469" lon="0.64728">
        <ele>1967.4</ele>
        <time>2021-06-25T08:52:54.000Z</time>
      </trkpt>
      <trkpt lat="42.70471" lon="0.64743">
        <ele>1969.8</ele>
        <time>2021-06-25T08:53:12.000Z</time>
      </trkpt>
      <trkpt lat="42.70469" lon="0.64758">
        <ele>1969.5</ele>
        <time>2021-06-25T08:53:27.000Z</time>
      </trkpt>
      <trkpt lat="42.70469" lon="0.64761">
        <ele>1970.9</ele>
        <time>2021-06-25T08:53:31.000Z</time>
      </trkpt>
      <trkpt lat="42.70467" lon="0.64774">
        <ele>1974.2</ele>
        <time>2021-06-25T08:53:48.000Z</time>
      </trkpt>
      <trkpt lat="42.70466" lon="0.64777">
        <ele>1972.7</ele>
        <time>2021-06-25T08:53:51.000Z</time>
      </trkpt>
      <trkpt lat="42.70462" lon="0.64769">
        <ele>1973.7</ele>
        <time>2021-06-25T08:54:06.000Z</time>
      </trkpt>
      <trkpt lat="42.70462" lon="0.64766">
        <ele>1975.2</ele>
        <time>2021-06-25T08:54:09.000Z</time>
      </trkpt>
      <trkpt lat="42.70457" lon="0.64753">
        <ele>1976.1</ele>
        <time>2021-06-25T08:54:26.000Z</time>
      </trkpt>
      <trkpt lat="42.70449" lon="0.64744">
        <ele>1979</ele>
        <time>2021-06-25T08:54:46.000Z</time>
      </trkpt>
      <trkpt lat="42.70445" lon="0.64735">
        <ele>1981.4</ele>
        <time>2021-06-25T08:55:03.000Z</time>
      </trkpt>
      <trkpt lat="42.70449" lon="0.64744">
        <ele>1980.5</ele>
        <time>2021-06-25T08:55:16.000Z</time>
      </trkpt>
      <trkpt lat="42.70449" lon="0.64748">
        <ele>1984.4</ele>
        <time>2021-06-25T08:55:22.000Z</time>
      </trkpt>
      <trkpt lat="42.70449" lon="0.6475">
        <ele>1981</ele>
        <time>2021-06-25T08:55:25.000Z</time>
      </trkpt>
      <trkpt lat="42.70449" lon="0.64751">
        <ele>1981</ele>
        <time>2021-06-25T08:55:26.000Z</time>
      </trkpt>
      <trkpt lat="42.7045" lon="0.64753">
        <ele>1983.3</ele>
        <time>2021-06-25T08:55:28.000Z</time>
      </trkpt>
      <trkpt lat="42.70449" lon="0.64769">
        <ele>1986.7</ele>
        <time>2021-06-25T08:55:47.000Z</time>
      </trkpt>
      <trkpt lat="42.70448" lon="0.6477">
        <ele>1981.9</ele>
        <time>2021-06-25T08:55:49.000Z</time>
      </trkpt>
      <trkpt lat="42.70448" lon="0.64771">
        <ele>1985.2</ele>
        <time>2021-06-25T08:55:50.000Z</time>
      </trkpt>
      <trkpt lat="42.70443" lon="0.64784">
        <ele>1986.7</ele>
        <time>2021-06-25T08:56:11.000Z</time>
      </trkpt>
      <trkpt lat="42.7044" lon="0.64771">
        <ele>1987.6</ele>
        <time>2021-06-25T08:56:27.000Z</time>
      </trkpt>
      <trkpt lat="42.70437" lon="0.64763">
        <ele>1991.9</ele>
        <time>2021-06-25T08:56:39.000Z</time>
      </trkpt>
      <trkpt lat="42.70433" lon="0.64751">
        <ele>1990.6</ele>
        <time>2021-06-25T08:56:59.000Z</time>
      </trkpt>
      <trkpt lat="42.70433" lon="0.64751">
        <ele>1994</ele>
        <time>2021-06-25T08:57:01.000Z</time>
      </trkpt>
      <trkpt lat="42.70432" lon="0.64759">
        <ele>1994.3</ele>
        <time>2021-06-25T08:57:18.000Z</time>
      </trkpt>
      <trkpt lat="42.70432" lon="0.64764">
        <ele>1995.9</ele>
        <time>2021-06-25T08:57:24.000Z</time>
      </trkpt>
      <trkpt lat="42.70431" lon="0.6477">
        <ele>1998.3</ele>
        <time>2021-06-25T08:57:32.000Z</time>
      </trkpt>
      <trkpt lat="42.7043" lon="0.64774">
        <ele>1995.3</ele>
        <time>2021-06-25T08:57:36.000Z</time>
      </trkpt>
      <trkpt lat="42.7043" lon="0.64777">
        <ele>1991.5</ele>
        <time>2021-06-25T08:57:38.000Z</time>
      </trkpt>
      <trkpt lat="42.70431" lon="0.64779">
        <ele>1991.5</ele>
        <time>2021-06-25T08:57:39.000Z</time>
      </trkpt>
      <trkpt lat="42.70431" lon="0.64781">
        <ele>1994.9</ele>
        <time>2021-06-25T08:57:40.000Z</time>
      </trkpt>
      <trkpt lat="42.70431" lon="0.64782">
        <ele>1999.3</ele>
        <time>2021-06-25T08:57:41.000Z</time>
      </trkpt>
      <trkpt lat="42.70431" lon="0.64784">
        <ele>1995.3</ele>
        <time>2021-06-25T08:57:42.000Z</time>
      </trkpt>
      <trkpt lat="42.70432" lon="0.64787">
        <ele>1997.8</ele>
        <time>2021-06-25T08:57:45.000Z</time>
      </trkpt>
      <trkpt lat="42.70425" lon="0.64793">
        <ele>1998.8</ele>
        <time>2021-06-25T08:57:55.000Z</time>
      </trkpt>
      <trkpt lat="42.7042" lon="0.64771">
        <ele>2000.7</ele>
        <time>2021-06-25T08:58:19.000Z</time>
      </trkpt>
      <trkpt lat="42.7042" lon="0.6477">
        <ele>2003</ele>
        <time>2021-06-25T08:58:21.000Z</time>
      </trkpt>
      <trkpt lat="42.70419" lon="0.64771">
        <ele>1998.3</ele>
        <time>2021-06-25T08:58:23.000Z</time>
      </trkpt>
      <trkpt lat="42.70419" lon="0.64772">
        <ele>2003.1</ele>
        <time>2021-06-25T08:58:24.000Z</time>
      </trkpt>
      <trkpt lat="42.7042" lon="0.64772">
        <ele>2003.5</ele>
        <time>2021-06-25T08:58:25.000Z</time>
      </trkpt>
      <trkpt lat="42.70419" lon="0.64774">
        <ele>2000.1</ele>
        <time>2021-06-25T08:58:29.000Z</time>
      </trkpt>
      <trkpt lat="42.70418" lon="0.64776">
        <ele>2003</ele>
        <time>2021-06-25T08:58:31.000Z</time>
      </trkpt>
      <trkpt lat="42.70418" lon="0.64778">
        <ele>2003</ele>
        <time>2021-06-25T08:58:32.000Z</time>
      </trkpt>
      <trkpt lat="42.70416" lon="0.64781">
        <ele>2004.5</ele>
        <time>2021-06-25T08:58:42.000Z</time>
      </trkpt>
      <trkpt lat="42.70416" lon="0.64789">
        <ele>2007.9</ele>
        <time>2021-06-25T08:58:57.000Z</time>
      </trkpt>
      <trkpt lat="42.70415" lon="0.6479">
        <ele>2007.8</ele>
        <time>2021-06-25T08:58:58.000Z</time>
      </trkpt>
      <trkpt lat="42.70413" lon="0.64795">
        <ele>2004.4</ele>
        <time>2021-06-25T08:59:06.000Z</time>
      </trkpt>
      <trkpt lat="42.70412" lon="0.64795">
        <ele>2008.3</ele>
        <time>2021-06-25T08:59:08.000Z</time>
      </trkpt>
      <trkpt lat="42.70411" lon="0.64794">
        <ele>2008.3</ele>
        <time>2021-06-25T08:59:09.000Z</time>
      </trkpt>
      <trkpt lat="42.70409" lon="0.64793">
        <ele>2004.1</ele>
        <time>2021-06-25T08:59:12.000Z</time>
      </trkpt>
      <trkpt lat="42.70409" lon="0.64792">
        <ele>2007.4</ele>
        <time>2021-06-25T08:59:13.000Z</time>
      </trkpt>
      <trkpt lat="42.70407" lon="0.6479">
        <ele>2007.8</ele>
        <time>2021-06-25T08:59:19.000Z</time>
      </trkpt>
      <trkpt lat="42.70406" lon="0.64784">
        <ele>2009.7</ele>
        <time>2021-06-25T08:59:26.000Z</time>
      </trkpt>
      <trkpt lat="42.70409" lon="0.64779">
        <ele>2005.9</ele>
        <time>2021-06-25T08:59:33.000Z</time>
      </trkpt>
      <trkpt lat="42.70409" lon="0.6478">
        <ele>2010.8</ele>
        <time>2021-06-25T08:59:34.000Z</time>
      </trkpt>
      <trkpt lat="42.70406" lon="0.6478">
        <ele>2008.9</ele>
        <time>2021-06-25T08:59:37.000Z</time>
      </trkpt>
      <trkpt lat="42.70406" lon="0.64778">
        <ele>2016</ele>
        <time>2021-06-25T08:59:38.000Z</time>
      </trkpt>
      <trkpt lat="42.70406" lon="0.64775">
        <ele>2016.1</ele>
        <time>2021-06-25T08:59:39.000Z</time>
      </trkpt>
      <trkpt lat="42.70407" lon="0.64773">
        <ele>2012.2</ele>
        <time>2021-06-25T08:59:40.000Z</time>
      </trkpt>
      <trkpt lat="42.70409" lon="0.64773">
        <ele>2009.8</ele>
        <time>2021-06-25T08:59:43.000Z</time>
      </trkpt>
      <trkpt lat="42.70408" lon="0.64775">
        <ele>2005.9</ele>
        <time>2021-06-25T09:00:07.000Z</time>
      </trkpt>
      <trkpt lat="42.70408" lon="0.64776">
        <ele>2009.8</ele>
        <time>2021-06-25T09:00:12.000Z</time>
      </trkpt>
      <trkpt lat="42.70409" lon="0.64778">
        <ele>2011.8</ele>
        <time>2021-06-25T09:00:18.000Z</time>
      </trkpt>
      <trkpt lat="42.70409" lon="0.64777">
        <ele>2009.2</ele>
        <time>2021-06-25T09:00:20.000Z</time>
      </trkpt>
      <trkpt lat="42.70409" lon="0.64773">
        <ele>2010.7</ele>
        <time>2021-06-25T09:00:28.000Z</time>
      </trkpt>
      <trkpt lat="42.70409" lon="0.64775">
        <ele>2009.2</ele>
        <time>2021-06-25T09:00:32.000Z</time>
      </trkpt>
      <trkpt lat="42.70407" lon="0.64769">
        <ele>2009.2</ele>
        <time>2021-06-25T09:01:02.000Z</time>
      </trkpt>
      <trkpt lat="42.70405" lon="0.64768">
        <ele>2010.8</ele>
        <time>2021-06-25T09:01:06.000Z</time>
      </trkpt>
      <trkpt lat="42.70398" lon="0.64764">
        <ele>2013.6</ele>
        <time>2021-06-25T09:01:24.000Z</time>
      </trkpt>
      <trkpt lat="42.70403" lon="0.64776">
        <ele>2015.6</ele>
        <time>2021-06-25T09:01:45.000Z</time>
      </trkpt>
      <trkpt lat="42.70397" lon="0.64786">
        <ele>2018</ele>
        <time>2021-06-25T09:02:04.000Z</time>
      </trkpt>
      <trkpt lat="42.70387" lon="0.64777">
        <ele>2020.9</ele>
        <time>2021-06-25T09:02:25.000Z</time>
      </trkpt>
      <trkpt lat="42.70382" lon="0.64765">
        <ele>2022.2</ele>
        <time>2021-06-25T09:02:44.000Z</time>
      </trkpt>
      <trkpt lat="42.70378" lon="0.64755">
        <ele>2022.2</ele>
        <time>2021-06-25T09:03:00.000Z</time>
      </trkpt>
      <trkpt lat="42.70376" lon="0.6474">
        <ele>2025.6</ele>
        <time>2021-06-25T09:03:20.000Z</time>
      </trkpt>
      <trkpt lat="42.70375" lon="0.64727">
        <ele>2025.7</ele>
        <time>2021-06-25T09:03:37.000Z</time>
      </trkpt>
      <trkpt lat="42.70375" lon="0.64713">
        <ele>2029.4</ele>
        <time>2021-06-25T09:03:56.000Z</time>
      </trkpt>
      <trkpt lat="42.70377" lon="0.64711">
        <ele>2029</ele>
        <time>2021-06-25T09:04:19.000Z</time>
      </trkpt>
      <trkpt lat="42.70378" lon="0.64708">
        <ele>2029</ele>
        <time>2021-06-25T09:04:41.000Z</time>
      </trkpt>
      <trkpt lat="42.70376" lon="0.64706">
        <ele>2029.1</ele>
        <time>2021-06-25T09:05:00.000Z</time>
      </trkpt>
      <trkpt lat="42.70377" lon="0.64701">
        <ele>2029.1</ele>
        <time>2021-06-25T09:05:16.000Z</time>
      </trkpt>
      <trkpt lat="42.70383" lon="0.64691">
        <ele>2029</ele>
        <time>2021-06-25T09:05:35.000Z</time>
      </trkpt>
      <trkpt lat="42.70385" lon="0.6469">
        <ele>2030.4</ele>
        <time>2021-06-25T09:05:37.000Z</time>
      </trkpt>
      <trkpt lat="42.70394" lon="0.64676">
        <ele>2031.9</ele>
        <time>2021-06-25T09:05:55.000Z</time>
      </trkpt>
      <trkpt lat="42.70395" lon="0.64669">
        <ele>2032.9</ele>
        <time>2021-06-25T09:06:08.000Z</time>
      </trkpt>
      <trkpt lat="42.70391" lon="0.64662">
        <ele>2034.7</ele>
        <time>2021-06-25T09:06:24.000Z</time>
      </trkpt>
      <trkpt lat="42.70387" lon="0.64648">
        <ele>2035.7</ele>
        <time>2021-06-25T09:06:40.000Z</time>
      </trkpt>
      <trkpt lat="42.70385" lon="0.64647">
        <ele>2036.3</ele>
        <time>2021-06-25T09:07:04.000Z</time>
      </trkpt>
      <trkpt lat="42.70387" lon="0.64644">
        <ele>2036.2</ele>
        <time>2021-06-25T09:07:35.000Z</time>
      </trkpt>
      <trkpt lat="42.70387" lon="0.64636">
        <ele>2036.2</ele>
        <time>2021-06-25T09:07:47.000Z</time>
      </trkpt>
      <trkpt lat="42.70383" lon="0.64616">
        <ele>2036.6</ele>
        <time>2021-06-25T09:08:06.000Z</time>
      </trkpt>
      <trkpt lat="42.70379" lon="0.646">
        <ele>2038.1</ele>
        <time>2021-06-25T09:08:25.000Z</time>
      </trkpt>
      <trkpt lat="42.70378" lon="0.64585">
        <ele>2040.1</ele>
        <time>2021-06-25T09:08:41.000Z</time>
      </trkpt>
      <trkpt lat="42.70378" lon="0.64575">
        <ele>2041.6</ele>
        <time>2021-06-25T09:08:56.000Z</time>
      </trkpt>
      <trkpt lat="42.70379" lon="0.64561">
        <ele>2043.9</ele>
        <time>2021-06-25T09:09:15.000Z</time>
      </trkpt>
      <trkpt lat="42.70381" lon="0.64549">
        <ele>2046.3</ele>
        <time>2021-06-25T09:09:31.000Z</time>
      </trkpt>
      <trkpt lat="42.70381" lon="0.64545">
        <ele>2047.7</ele>
        <time>2021-06-25T09:09:53.000Z</time>
      </trkpt>
      <trkpt lat="42.70382" lon="0.64541">
        <ele>2048.3</ele>
        <time>2021-06-25T09:10:08.000Z</time>
      </trkpt>
      <trkpt lat="42.70381" lon="0.64534">
        <ele>2049.6</ele>
        <time>2021-06-25T09:10:25.000Z</time>
      </trkpt>
      <trkpt lat="42.7038" lon="0.64529">
        <ele>2050.7</ele>
        <time>2021-06-25T09:10:39.000Z</time>
      </trkpt>
      <trkpt lat="42.70377" lon="0.64526">
        <ele>2052</ele>
        <time>2021-06-25T09:10:53.000Z</time>
      </trkpt>
      <trkpt lat="42.70373" lon="0.64539">
        <ele>2053.5</ele>
        <time>2021-06-25T09:11:11.000Z</time>
      </trkpt>
      <trkpt lat="42.70371" lon="0.64533">
        <ele>2054.9</ele>
        <time>2021-06-25T09:11:25.000Z</time>
      </trkpt>
      <trkpt lat="42.70371" lon="0.64521">
        <ele>2056.9</ele>
        <time>2021-06-25T09:11:40.000Z</time>
      </trkpt>
      <trkpt lat="42.70366" lon="0.64528">
        <ele>2059.3</ele>
        <time>2021-06-25T09:12:00.000Z</time>
      </trkpt>
      <trkpt lat="42.7036" lon="0.64536">
        <ele>2061.3</ele>
        <time>2021-06-25T09:12:17.000Z</time>
      </trkpt>
      <trkpt lat="42.70356" lon="0.64533">
        <ele>2063.2</ele>
        <time>2021-06-25T09:12:33.000Z</time>
      </trkpt>
      <trkpt lat="42.70359" lon="0.64522">
        <ele>2064.5</ele>
        <time>2021-06-25T09:12:49.000Z</time>
      </trkpt>
      <trkpt lat="42.70361" lon="0.64515">
        <ele>2066.5</ele>
        <time>2021-06-25T09:13:07.000Z</time>
      </trkpt>
      <trkpt lat="42.70359" lon="0.64514">
        <ele>2067.5</ele>
        <time>2021-06-25T09:13:15.000Z</time>
      </trkpt>
      <trkpt lat="42.70359" lon="0.64515">
        <ele>2066.1</ele>
        <time>2021-06-25T09:13:18.000Z</time>
      </trkpt>
      <trkpt lat="42.70359" lon="0.64515">
        <ele>2066</ele>
        <time>2021-06-25T09:13:19.000Z</time>
      </trkpt>
      <trkpt lat="42.70362" lon="0.64513">
        <ele>2065.5</ele>
        <time>2021-06-25T09:13:32.000Z</time>
      </trkpt>
      <trkpt lat="42.70361" lon="0.64513">
        <ele>2065.5</ele>
        <time>2021-06-25T09:13:52.000Z</time>
      </trkpt>
      <trkpt lat="42.7036" lon="0.64513">
        <ele>2067</ele>
        <time>2021-06-25T09:14:04.000Z</time>
      </trkpt>
      <trkpt lat="42.7036" lon="0.64513">
        <ele>2066.4</ele>
        <time>2021-06-25T09:14:15.000Z</time>
      </trkpt>
      <trkpt lat="42.70361" lon="0.6451">
        <ele>2065</ele>
        <time>2021-06-25T09:14:31.000Z</time>
      </trkpt>
      <trkpt lat="42.70361" lon="0.64512">
        <ele>2066.1</ele>
        <time>2021-06-25T09:14:40.000Z</time>
      </trkpt>
      <trkpt lat="42.7036" lon="0.64514">
        <ele>2066.5</ele>
        <time>2021-06-25T09:15:07.000Z</time>
      </trkpt>
      <trkpt lat="42.7036" lon="0.64512">
        <ele>2066.4</ele>
        <time>2021-06-25T09:15:32.000Z</time>
      </trkpt>
      <trkpt lat="42.70359" lon="0.64512">
        <ele>2066.4</ele>
        <time>2021-06-25T09:15:59.000Z</time>
      </trkpt>
      <trkpt lat="42.70355" lon="0.64517">
        <ele>2066.5</ele>
        <time>2021-06-25T09:16:27.000Z</time>
      </trkpt>
      <trkpt lat="42.70357" lon="0.64515">
        <ele>2065.6</ele>
        <time>2021-06-25T09:16:56.000Z</time>
      </trkpt>
      <trkpt lat="42.7036" lon="0.64514">
        <ele>2066.1</ele>
        <time>2021-06-25T09:17:25.000Z</time>
      </trkpt>
      <trkpt lat="42.70358" lon="0.64512">
        <ele>2066</ele>
        <time>2021-06-25T09:17:55.000Z</time>
      </trkpt>
      <trkpt lat="42.7036" lon="0.64511">
        <ele>2066</ele>
        <time>2021-06-25T09:18:20.000Z</time>
      </trkpt>
      <trkpt lat="42.70361" lon="0.64513">
        <ele>2066.1</ele>
        <time>2021-06-25T09:18:41.000Z</time>
      </trkpt>
      <trkpt lat="42.70359" lon="0.64514">
        <ele>2066.5</ele>
        <time>2021-06-25T09:19:08.000Z</time>
      </trkpt>
      <trkpt lat="42.7036" lon="0.64513">
        <ele>2066.4</ele>
        <time>2021-06-25T09:19:31.000Z</time>
      </trkpt>
      <trkpt lat="42.7036" lon="0.64512">
        <ele>2066.5</ele>
        <time>2021-06-25T09:19:55.000Z</time>
      </trkpt>
      <trkpt lat="42.70361" lon="0.64513">
        <ele>2066.5</ele>
        <time>2021-06-25T09:20:22.000Z</time>
      </trkpt>
      <trkpt lat="42.7036" lon="0.64512">
        <ele>2066.5</ele>
        <time>2021-06-25T09:20:51.000Z</time>
      </trkpt>
      <trkpt lat="42.70359" lon="0.64512">
        <ele>2066.4</ele>
        <time>2021-06-25T09:21:13.000Z</time>
      </trkpt>
      <trkpt lat="42.70361" lon="0.64514">
        <ele>2066.9</ele>
        <time>2021-06-25T09:21:42.000Z</time>
      </trkpt>
      <trkpt lat="42.70361" lon="0.64511">
        <ele>2067</ele>
        <time>2021-06-25T09:22:11.000Z</time>
      </trkpt>
      <trkpt lat="42.70361" lon="0.64511">
        <ele>2067</ele>
        <time>2021-06-25T09:22:45.000Z</time>
      </trkpt>
      <trkpt lat="42.7036" lon="0.64512">
        <ele>2066.9</ele>
        <time>2021-06-25T09:23:19.000Z</time>
      </trkpt>
      <trkpt lat="42.7036" lon="0.64513">
        <ele>2066.9</ele>
        <time>2021-06-25T09:23:51.000Z</time>
      </trkpt>
      <trkpt lat="42.70361" lon="0.64512">
        <ele>2067</ele>
        <time>2021-06-25T09:24:20.000Z</time>
      </trkpt>
      <trkpt lat="42.70362" lon="0.64511">
        <ele>2067</ele>
        <time>2021-06-25T09:24:48.000Z</time>
      </trkpt>
      <trkpt lat="42.7036" lon="0.64513">
        <ele>2067.4</ele>
        <time>2021-06-25T09:25:15.000Z</time>
      </trkpt>
      <trkpt lat="42.70361" lon="0.64513">
        <ele>2067.5</ele>
        <time>2021-06-25T09:25:39.000Z</time>
      </trkpt>
      <trkpt lat="42.70362" lon="0.64513">
        <ele>2067.4</ele>
        <time>2021-06-25T09:26:06.000Z</time>
      </trkpt>
      <trkpt lat="42.70364" lon="0.6451">
        <ele>2067.5</ele>
        <time>2021-06-25T09:26:35.000Z</time>
      </trkpt>
      <trkpt lat="42.70364" lon="0.64509">
        <ele>2067.5</ele>
        <time>2021-06-25T09:27:05.000Z</time>
      </trkpt>
      <trkpt lat="42.70359" lon="0.64514">
        <ele>2067.4</ele>
        <time>2021-06-25T09:27:38.000Z</time>
      </trkpt>
      <trkpt lat="42.70359" lon="0.64515">
        <ele>2067.5</ele>
        <time>2021-06-25T09:28:02.000Z</time>
      </trkpt>
      <trkpt lat="42.70361" lon="0.64514">
        <ele>2067.5</ele>
        <time>2021-06-25T09:28:34.000Z</time>
      </trkpt>
      <trkpt lat="42.70361" lon="0.64512">
        <ele>2067.9</ele>
        <time>2021-06-25T09:29:09.000Z</time>
      </trkpt>
      <trkpt lat="42.70361" lon="0.6451">
        <ele>2067.9</ele>
        <time>2021-06-25T09:29:35.000Z</time>
      </trkpt>
      <trkpt lat="42.7036" lon="0.64513">
        <ele>2067.9</ele>
        <time>2021-06-25T09:30:08.000Z</time>
      </trkpt>
      <trkpt lat="42.7036" lon="0.64512">
        <ele>2067.9</ele>
        <time>2021-06-25T09:30:30.000Z</time>
      </trkpt>
      <trkpt lat="42.70362" lon="0.64512">
        <ele>2069.3</ele>
        <time>2021-06-25T09:30:47.000Z</time>
      </trkpt>
      <trkpt lat="42.70362" lon="0.64513">
        <ele>2065.1</ele>
        <time>2021-06-25T09:30:52.000Z</time>
      </trkpt>
      <trkpt lat="42.70362" lon="0.64513">
        <ele>2068.9</ele>
        <time>2021-06-25T09:30:53.000Z</time>
      </trkpt>
      <trkpt lat="42.70362" lon="0.64513">
        <ele>2073.3</ele>
        <time>2021-06-25T09:30:54.000Z</time>
      </trkpt>
      <trkpt lat="42.70362" lon="0.64513">
        <ele>2071.3</ele>
        <time>2021-06-25T09:30:55.000Z</time>
      </trkpt>
      <trkpt lat="42.70362" lon="0.64514">
        <ele>2069.9</ele>
        <time>2021-06-25T09:30:57.000Z</time>
      </trkpt>
      <trkpt lat="42.70362" lon="0.64514">
        <ele>2067.5</ele>
        <time>2021-06-25T09:31:03.000Z</time>
      </trkpt>
      <trkpt lat="42.70362" lon="0.64514">
        <ele>2070.9</ele>
        <time>2021-06-25T09:31:05.000Z</time>
      </trkpt>
      <trkpt lat="42.70362" lon="0.64514">
        <ele>2068.4</ele>
        <time>2021-06-25T09:31:09.000Z</time>
      </trkpt>
      <trkpt lat="42.70361" lon="0.64514">
        <ele>2070.8</ele>
        <time>2021-06-25T09:31:11.000Z</time>
      </trkpt>
      <trkpt lat="42.7036" lon="0.64515">
        <ele>2070.3</ele>
        <time>2021-06-25T09:31:33.000Z</time>
      </trkpt>
      <trkpt lat="42.7036" lon="0.64513">
        <ele>2070.4</ele>
        <time>2021-06-25T09:31:53.000Z</time>
      </trkpt>
      <trkpt lat="42.70356" lon="0.64514">
        <ele>2070.9</ele>
        <time>2021-06-25T09:32:12.000Z</time>
      </trkpt>
      <trkpt lat="42.70353" lon="0.64519">
        <ele>2072.7</ele>
        <time>2021-06-25T09:32:26.000Z</time>
      </trkpt>
      <trkpt lat="42.70351" lon="0.64525">
        <ele>2073.2</ele>
        <time>2021-06-25T09:32:39.000Z</time>
      </trkpt>
      <trkpt lat="42.70345" lon="0.64528">
        <ele>2074.7</ele>
        <time>2021-06-25T09:32:52.000Z</time>
      </trkpt>
      <trkpt lat="42.70341" lon="0.64534">
        <ele>2076.1</ele>
        <time>2021-06-25T09:33:05.000Z</time>
      </trkpt>
      <trkpt lat="42.70338" lon="0.64547">
        <ele>2077.5</ele>
        <time>2021-06-25T09:33:20.000Z</time>
      </trkpt>
      <trkpt lat="42.70335" lon="0.64564">
        <ele>2079.4</ele>
        <time>2021-06-25T09:33:38.000Z</time>
      </trkpt>
      <trkpt lat="42.70331" lon="0.64573">
        <ele>2080.9</ele>
        <time>2021-06-25T09:33:55.000Z</time>
      </trkpt>
      <trkpt lat="42.70325" lon="0.64558">
        <ele>2083.7</ele>
        <time>2021-06-25T09:34:13.000Z</time>
      </trkpt>
      <trkpt lat="42.70325" lon="0.64552">
        <ele>2083.7</ele>
        <time>2021-06-25T09:34:18.000Z</time>
      </trkpt>
      <trkpt lat="42.70327" lon="0.64537">
        <ele>2085.7</ele>
        <time>2021-06-25T09:34:35.000Z</time>
      </trkpt>
      <trkpt lat="42.70328" lon="0.64522">
        <ele>2088.2</ele>
        <time>2021-06-25T09:34:53.000Z</time>
      </trkpt>
      <trkpt lat="42.70328" lon="0.64508">
        <ele>2090.1</ele>
        <time>2021-06-25T09:35:11.000Z</time>
      </trkpt>
      <trkpt lat="42.70324" lon="0.64516">
        <ele>2091.5</ele>
        <time>2021-06-25T09:35:25.000Z</time>
      </trkpt>
      <trkpt lat="42.7032" lon="0.64527">
        <ele>2093</ele>
        <time>2021-06-25T09:35:39.000Z</time>
      </trkpt>
      <trkpt lat="42.70313" lon="0.64539">
        <ele>2094.8</ele>
        <time>2021-06-25T09:35:56.000Z</time>
      </trkpt>
      <trkpt lat="42.70309" lon="0.64534">
        <ele>2095.9</ele>
        <time>2021-06-25T09:36:12.000Z</time>
      </trkpt>
      <trkpt lat="42.7031" lon="0.64527">
        <ele>2097.7</ele>
        <time>2021-06-25T09:36:22.000Z</time>
      </trkpt>
      <trkpt lat="42.70312" lon="0.64508">
        <ele>2099.7</ele>
        <time>2021-06-25T09:36:45.000Z</time>
      </trkpt>
      <trkpt lat="42.7031" lon="0.64509">
        <ele>2100.7</ele>
        <time>2021-06-25T09:37:02.000Z</time>
      </trkpt>
      <trkpt lat="42.70304" lon="0.64523">
        <ele>2102.5</ele>
        <time>2021-06-25T09:37:24.000Z</time>
      </trkpt>
      <trkpt lat="42.70297" lon="0.64531">
        <ele>2104.4</ele>
        <time>2021-06-25T09:37:43.000Z</time>
      </trkpt>
      <trkpt lat="42.70294" lon="0.64526">
        <ele>2106.4</ele>
        <time>2021-06-25T09:37:58.000Z</time>
      </trkpt>
      <trkpt lat="42.70295" lon="0.64515">
        <ele>2107.4</ele>
        <time>2021-06-25T09:38:16.000Z</time>
      </trkpt>
      <trkpt lat="42.70297" lon="0.645">
        <ele>2109.2</ele>
        <time>2021-06-25T09:38:36.000Z</time>
      </trkpt>
      <trkpt lat="42.70291" lon="0.64508">
        <ele>2110.7</ele>
        <time>2021-06-25T09:38:53.000Z</time>
      </trkpt>
      <trkpt lat="42.70285" lon="0.64522">
        <ele>2113.2</ele>
        <time>2021-06-25T09:39:13.000Z</time>
      </trkpt>
      <trkpt lat="42.70283" lon="0.64515">
        <ele>2114.5</ele>
        <time>2021-06-25T09:39:27.000Z</time>
      </trkpt>
      <trkpt lat="42.70282" lon="0.64501">
        <ele>2116.4</ele>
        <time>2021-06-25T09:39:44.000Z</time>
      </trkpt>
      <trkpt lat="42.70277" lon="0.64502">
        <ele>2118</ele>
        <time>2021-06-25T09:39:58.000Z</time>
      </trkpt>
      <trkpt lat="42.70273" lon="0.64514">
        <ele>2118.4</ele>
        <time>2021-06-25T09:40:16.000Z</time>
      </trkpt>
      <trkpt lat="42.7027" lon="0.64521">
        <ele>2120.3</ele>
        <time>2021-06-25T09:40:29.000Z</time>
      </trkpt>
      <trkpt lat="42.70263" lon="0.64528">
        <ele>2121.7</ele>
        <time>2021-06-25T09:40:45.000Z</time>
      </trkpt>
      <trkpt lat="42.70271" lon="0.64545">
        <ele>2124.1</ele>
        <time>2021-06-25T09:41:01.000Z</time>
      </trkpt>
      <trkpt lat="42.70266" lon="0.64551">
        <ele>2125.7</ele>
        <time>2021-06-25T09:41:18.000Z</time>
      </trkpt>
      <trkpt lat="42.70267" lon="0.64539">
        <ele>2127.5</ele>
        <time>2021-06-25T09:41:36.000Z</time>
      </trkpt>
      <trkpt lat="42.70265" lon="0.64539">
        <ele>2129.9</ele>
        <time>2021-06-25T09:41:54.000Z</time>
      </trkpt>
      <trkpt lat="42.70255" lon="0.64548">
        <ele>2131.9</ele>
        <time>2021-06-25T09:42:13.000Z</time>
      </trkpt>
      <trkpt lat="42.70246" lon="0.64547">
        <ele>2133.7</ele>
        <time>2021-06-25T09:42:29.000Z</time>
      </trkpt>
      <trkpt lat="42.70241" lon="0.64538">
        <ele>2136.1</ele>
        <time>2021-06-25T09:42:52.000Z</time>
      </trkpt>
      <trkpt lat="42.70236" lon="0.64526">
        <ele>2137.7</ele>
        <time>2021-06-25T09:43:06.000Z</time>
      </trkpt>
      <trkpt lat="42.70227" lon="0.64516">
        <ele>2140.1</ele>
        <time>2021-06-25T09:43:25.000Z</time>
      </trkpt>
      <trkpt lat="42.7022" lon="0.64508">
        <ele>2141.4</ele>
        <time>2021-06-25T09:43:43.000Z</time>
      </trkpt>
      <trkpt lat="42.7021" lon="0.64501">
        <ele>2143.8</ele>
        <time>2021-06-25T09:44:02.000Z</time>
      </trkpt>
      <trkpt lat="42.702" lon="0.64497">
        <ele>2146.2</ele>
        <time>2021-06-25T09:44:22.000Z</time>
      </trkpt>
      <trkpt lat="42.70193" lon="0.64486">
        <ele>2147.2</ele>
        <time>2021-06-25T09:44:40.000Z</time>
      </trkpt>
      <trkpt lat="42.70186" lon="0.64471">
        <ele>2149.6</ele>
        <time>2021-06-25T09:45:00.000Z</time>
      </trkpt>
      <trkpt lat="42.70181" lon="0.64466">
        <ele>2149.6</ele>
        <time>2021-06-25T09:45:10.000Z</time>
      </trkpt>
      <trkpt lat="42.70173" lon="0.64458">
        <ele>2153.4</ele>
        <time>2021-06-25T09:45:27.000Z</time>
      </trkpt>
      <trkpt lat="42.70166" lon="0.64448">
        <ele>2155.8</ele>
        <time>2021-06-25T09:45:47.000Z</time>
      </trkpt>
      <trkpt lat="42.70159" lon="0.64439">
        <ele>2155.9</ele>
        <time>2021-06-25T09:46:03.000Z</time>
      </trkpt>
      <trkpt lat="42.70151" lon="0.64434">
        <ele>2159.2</ele>
        <time>2021-06-25T09:46:20.000Z</time>
      </trkpt>
      <trkpt lat="42.70142" lon="0.64431">
        <ele>2160.2</ele>
        <time>2021-06-25T09:46:39.000Z</time>
      </trkpt>
      <trkpt lat="42.7014" lon="0.64431">
        <ele>2161.6</ele>
        <time>2021-06-25T09:46:42.000Z</time>
      </trkpt>
      <trkpt lat="42.7014" lon="0.6443">
        <ele>2160.7</ele>
        <time>2021-06-25T09:46:44.000Z</time>
      </trkpt>
      <trkpt lat="42.70138" lon="0.64431">
        <ele>2161.6</ele>
        <time>2021-06-25T09:46:47.000Z</time>
      </trkpt>
      <trkpt lat="42.70127" lon="0.64435">
        <ele>2163.5</ele>
        <time>2021-06-25T09:47:06.000Z</time>
      </trkpt>
      <trkpt lat="42.70117" lon="0.6444">
        <ele>2165.9</ele>
        <time>2021-06-25T09:47:23.000Z</time>
      </trkpt>
      <trkpt lat="42.70107" lon="0.64445">
        <ele>2168</ele>
        <time>2021-06-25T09:47:40.000Z</time>
      </trkpt>
      <trkpt lat="42.70096" lon="0.64445">
        <ele>2170.7</ele>
        <time>2021-06-25T09:47:59.000Z</time>
      </trkpt>
      <trkpt lat="42.70086" lon="0.6445">
        <ele>2172.7</ele>
        <time>2021-06-25T09:48:20.000Z</time>
      </trkpt>
      <trkpt lat="42.70081" lon="0.64452">
        <ele>2174.1</ele>
        <time>2021-06-25T09:48:35.000Z</time>
      </trkpt>
      <trkpt lat="42.70079" lon="0.64452">
        <ele>2173.7</ele>
        <time>2021-06-25T09:48:44.000Z</time>
      </trkpt>
      <trkpt lat="42.70072" lon="0.64456">
        <ele>2176</ele>
        <time>2021-06-25T09:48:59.000Z</time>
      </trkpt>
      <trkpt lat="42.70065" lon="0.64456">
        <ele>2176.5</ele>
        <time>2021-06-25T09:49:13.000Z</time>
      </trkpt>
      <trkpt lat="42.70056" lon="0.64456">
        <ele>2178.5</ele>
        <time>2021-06-25T09:49:31.000Z</time>
      </trkpt>
      <trkpt lat="42.70046" lon="0.64449">
        <ele>2181.3</ele>
        <time>2021-06-25T09:49:50.000Z</time>
      </trkpt>
      <trkpt lat="42.70052" lon="0.64446">
        <ele>2183.3</ele>
        <time>2021-06-25T09:50:05.000Z</time>
      </trkpt>
      <trkpt lat="42.70058" lon="0.64444">
        <ele>2184.7</ele>
        <time>2021-06-25T09:50:18.000Z</time>
      </trkpt>
      <trkpt lat="42.70061" lon="0.64442">
        <ele>2184.2</ele>
        <time>2021-06-25T09:50:39.000Z</time>
      </trkpt>
      <trkpt lat="42.70061" lon="0.64442">
        <ele>2184.3</ele>
        <time>2021-06-25T09:50:40.000Z</time>
      </trkpt>
      <trkpt lat="42.70065" lon="0.64436">
        <ele>2186.1</ele>
        <time>2021-06-25T09:50:55.000Z</time>
      </trkpt>
      <trkpt lat="42.70058" lon="0.64434">
        <ele>2187.7</ele>
        <time>2021-06-25T09:51:10.000Z</time>
      </trkpt>
      <trkpt lat="42.70051" lon="0.64422">
        <ele>2190.6</ele>
        <time>2021-06-25T09:51:27.000Z</time>
      </trkpt>
      <trkpt lat="42.70049" lon="0.64408">
        <ele>2192.4</ele>
        <time>2021-06-25T09:51:44.000Z</time>
      </trkpt>
      <trkpt lat="42.70055" lon="0.64409">
        <ele>2193.9</ele>
        <time>2021-06-25T09:52:00.000Z</time>
      </trkpt>
      <trkpt lat="42.70065" lon="0.64413">
        <ele>2196.3</ele>
        <time>2021-06-25T09:52:16.000Z</time>
      </trkpt>
      <trkpt lat="42.70066" lon="0.64412">
        <ele>2196.7</ele>
        <time>2021-06-25T09:52:17.000Z</time>
      </trkpt>
      <trkpt lat="42.70077" lon="0.64407">
        <ele>2197.7</ele>
        <time>2021-06-25T09:52:33.000Z</time>
      </trkpt>
      <trkpt lat="42.70077" lon="0.64397">
        <ele>2200.1</ele>
        <time>2021-06-25T09:52:52.000Z</time>
      </trkpt>
      <trkpt lat="42.70065" lon="0.64397">
        <ele>2202.5</ele>
        <time>2021-06-25T09:53:10.000Z</time>
      </trkpt>
      <trkpt lat="42.70059" lon="0.64386">
        <ele>2205.8</ele>
        <time>2021-06-25T09:53:28.000Z</time>
      </trkpt>
      <trkpt lat="42.70057" lon="0.64384">
        <ele>2205.8</ele>
        <time>2021-06-25T09:53:32.000Z</time>
      </trkpt>
      <trkpt lat="42.70053" lon="0.64371">
        <ele>2206.9</ele>
        <time>2021-06-25T09:53:54.000Z</time>
      </trkpt>
      <trkpt lat="42.70055" lon="0.64373">
        <ele>2208.3</ele>
        <time>2021-06-25T09:53:57.000Z</time>
      </trkpt>
      <trkpt lat="42.70056" lon="0.64373">
        <ele>2207.9</ele>
        <time>2021-06-25T09:54:06.000Z</time>
      </trkpt>
      <trkpt lat="42.70059" lon="0.64378">
        <ele>2208.7</ele>
        <time>2021-06-25T09:54:23.000Z</time>
      </trkpt>
      <trkpt lat="42.70067" lon="0.64377">
        <ele>2210.6</ele>
        <time>2021-06-25T09:54:37.000Z</time>
      </trkpt>
      <trkpt lat="42.70078" lon="0.64375">
        <ele>2213.6</ele>
        <time>2021-06-25T09:54:55.000Z</time>
      </trkpt>
      <trkpt lat="42.70079" lon="0.64373">
        <ele>2213</ele>
        <time>2021-06-25T09:54:59.000Z</time>
      </trkpt>
      <trkpt lat="42.70078" lon="0.64372">
        <ele>2210.3</ele>
        <time>2021-06-25T09:55:12.000Z</time>
      </trkpt>
      <trkpt lat="42.70078" lon="0.64371">
        <ele>2210.2</ele>
        <time>2021-06-25T09:55:13.000Z</time>
      </trkpt>
      <trkpt lat="42.70077" lon="0.6437">
        <ele>2213</ele>
        <time>2021-06-25T09:55:16.000Z</time>
      </trkpt>
      <trkpt lat="42.70074" lon="0.64364">
        <ele>2214.5</ele>
        <time>2021-06-25T09:55:31.000Z</time>
      </trkpt>
      <trkpt lat="42.70065" lon="0.64362">
        <ele>2216</ele>
        <time>2021-06-25T09:55:45.000Z</time>
      </trkpt>
      <trkpt lat="42.70053" lon="0.64345">
        <ele>2217.4</ele>
        <time>2021-06-25T09:56:09.000Z</time>
      </trkpt>
      <trkpt lat="42.70049" lon="0.6434">
        <ele>2218.4</ele>
        <time>2021-06-25T09:56:15.000Z</time>
      </trkpt>
      <trkpt lat="42.70047" lon="0.64334">
        <ele>2218</ele>
        <time>2021-06-25T09:56:22.000Z</time>
      </trkpt>
      <trkpt lat="42.70044" lon="0.64322">
        <ele>2220.7</ele>
        <time>2021-06-25T09:56:36.000Z</time>
      </trkpt>
      <trkpt lat="42.70035" lon="0.64314">
        <ele>2221.3</ele>
        <time>2021-06-25T09:56:52.000Z</time>
      </trkpt>
      <trkpt lat="42.70029" lon="0.64307">
        <ele>2224.7</ele>
        <time>2021-06-25T09:57:02.000Z</time>
      </trkpt>
      <trkpt lat="42.70027" lon="0.64305">
        <ele>2221.8</ele>
        <time>2021-06-25T09:57:06.000Z</time>
      </trkpt>
      <trkpt lat="42.70025" lon="0.64303">
        <ele>2225.5</ele>
        <time>2021-06-25T09:57:10.000Z</time>
      </trkpt>
      <trkpt lat="42.7002" lon="0.64298">
        <ele>2225.6</ele>
        <time>2021-06-25T09:57:18.000Z</time>
      </trkpt>
      <trkpt lat="42.70016" lon="0.64288">
        <ele>2227.9</ele>
        <time>2021-06-25T09:57:34.000Z</time>
      </trkpt>
      <trkpt lat="42.70014" lon="0.64283">
        <ele>2229.4</ele>
        <time>2021-06-25T09:57:42.000Z</time>
      </trkpt>
      <trkpt lat="42.70006" lon="0.64272">
        <ele>2231.9</ele>
        <time>2021-06-25T09:58:01.000Z</time>
      </trkpt>
      <trkpt lat="42.69998" lon="0.64269">
        <ele>2233.2</ele>
        <time>2021-06-25T09:58:14.000Z</time>
      </trkpt>
      <trkpt lat="42.6999" lon="0.64267">
        <ele>2235.3</ele>
        <time>2021-06-25T09:58:27.000Z</time>
      </trkpt>
      <trkpt lat="42.69984" lon="0.64262">
        <ele>2239.6</ele>
        <time>2021-06-25T09:58:44.000Z</time>
      </trkpt>
      <trkpt lat="42.69984" lon="0.64262">
        <ele>2239.6</ele>
        <time>2021-06-25T09:58:45.000Z</time>
      </trkpt>
      <trkpt lat="42.69983" lon="0.64261">
        <ele>2235.6</ele>
        <time>2021-06-25T09:58:47.000Z</time>
      </trkpt>
      <trkpt lat="42.69983" lon="0.64261">
        <ele>2235.6</ele>
        <time>2021-06-25T09:58:48.000Z</time>
      </trkpt>
      <trkpt lat="42.69982" lon="0.6426">
        <ele>2237.1</ele>
        <time>2021-06-25T09:58:50.000Z</time>
      </trkpt>
      <trkpt lat="42.6998" lon="0.64254">
        <ele>2240.4</ele>
        <time>2021-06-25T09:59:01.000Z</time>
      </trkpt>
      <trkpt lat="42.69977" lon="0.64251">
        <ele>2242</ele>
        <time>2021-06-25T09:59:09.000Z</time>
      </trkpt>
      <trkpt lat="42.69977" lon="0.64246">
        <ele>2240.4</ele>
        <time>2021-06-25T09:59:14.000Z</time>
      </trkpt>
      <trkpt lat="42.69968" lon="0.64235">
        <ele>2240.4</ele>
        <time>2021-06-25T09:59:31.000Z</time>
      </trkpt>
      <trkpt lat="42.69965" lon="0.64227">
        <ele>2243.8</ele>
        <time>2021-06-25T09:59:42.000Z</time>
      </trkpt>
      <trkpt lat="42.69964" lon="0.64227">
        <ele>2241.4</ele>
        <time>2021-06-25T09:59:45.000Z</time>
      </trkpt>
      <trkpt lat="42.69964" lon="0.64228">
        <ele>2241</ele>
        <time>2021-06-25T10:00:09.000Z</time>
      </trkpt>
      <trkpt lat="42.69963" lon="0.64227">
        <ele>2241</ele>
        <time>2021-06-25T10:00:38.000Z</time>
      </trkpt>
      <trkpt lat="42.6996" lon="0.64222">
        <ele>2242.4</ele>
        <time>2021-06-25T10:00:51.000Z</time>
      </trkpt>
      <trkpt lat="42.69957" lon="0.6422">
        <ele>2242.5</ele>
        <time>2021-06-25T10:00:58.000Z</time>
      </trkpt>
      <trkpt lat="42.69949" lon="0.64223">
        <ele>2243.8</ele>
        <time>2021-06-25T10:01:10.000Z</time>
      </trkpt>
      <trkpt lat="42.69948" lon="0.64225">
        <ele>2242.5</ele>
        <time>2021-06-25T10:01:26.000Z</time>
      </trkpt>
      <trkpt lat="42.69949" lon="0.64224">
        <ele>2242.9</ele>
        <time>2021-06-25T10:01:44.000Z</time>
      </trkpt>
      <trkpt lat="42.69948" lon="0.64225">
        <ele>2241.9</ele>
        <time>2021-06-25T10:02:10.000Z</time>
      </trkpt>
      <trkpt lat="42.69948" lon="0.64226">
        <ele>2241.9</ele>
        <time>2021-06-25T10:02:40.000Z</time>
      </trkpt>
      <trkpt lat="42.69948" lon="0.64224">
        <ele>2241.9</ele>
        <time>2021-06-25T10:03:10.000Z</time>
      </trkpt>
      <trkpt lat="42.69948" lon="0.64224">
        <ele>2242</ele>
        <time>2021-06-25T10:03:39.000Z</time>
      </trkpt>
      <trkpt lat="42.69947" lon="0.64224">
        <ele>2241.9</ele>
        <time>2021-06-25T10:04:02.000Z</time>
      </trkpt>
      <trkpt lat="42.69946" lon="0.64224">
        <ele>2242</ele>
        <time>2021-06-25T10:04:25.000Z</time>
      </trkpt>
      <trkpt lat="42.69948" lon="0.64223">
        <ele>2242.4</ele>
        <time>2021-06-25T10:05:02.000Z</time>
      </trkpt>
      <trkpt lat="42.69946" lon="0.64224">
        <ele>2242.4</ele>
        <time>2021-06-25T10:05:34.000Z</time>
      </trkpt>
      <trkpt lat="42.69946" lon="0.64224">
        <ele>2242.5</ele>
        <time>2021-06-25T10:06:06.000Z</time>
      </trkpt>
      <trkpt lat="42.69946" lon="0.64224">
        <ele>2242.9</ele>
        <time>2021-06-25T10:06:41.000Z</time>
      </trkpt>
      <trkpt lat="42.69946" lon="0.64223">
        <ele>2242.9</ele>
        <time>2021-06-25T10:07:19.000Z</time>
      </trkpt>
      <trkpt lat="42.69945" lon="0.64224">
        <ele>2242.9</ele>
        <time>2021-06-25T10:07:42.000Z</time>
      </trkpt>
      <trkpt lat="42.69947" lon="0.64223">
        <ele>2243.3</ele>
        <time>2021-06-25T10:08:24.000Z</time>
      </trkpt>
      <trkpt lat="42.69947" lon="0.64224">
        <ele>2243.3</ele>
        <time>2021-06-25T10:08:36.000Z</time>
      </trkpt>
      <trkpt lat="42.69947" lon="0.64225">
        <ele>2243.3</ele>
        <time>2021-06-25T10:09:10.000Z</time>
      </trkpt>
      <trkpt lat="42.69948" lon="0.64225">
        <ele>2243.3</ele>
        <time>2021-06-25T10:09:42.000Z</time>
      </trkpt>
      <trkpt lat="42.69948" lon="0.64223">
        <ele>2243.3</ele>
        <time>2021-06-25T10:10:02.000Z</time>
      </trkpt>
      <trkpt lat="42.69948" lon="0.64224">
        <ele>2243.3</ele>
        <time>2021-06-25T10:10:35.000Z</time>
      </trkpt>
      <trkpt lat="42.69948" lon="0.64224">
        <ele>2243.8</ele>
        <time>2021-06-25T10:11:10.000Z</time>
      </trkpt>
      <trkpt lat="42.69948" lon="0.64223">
        <ele>2243.9</ele>
        <time>2021-06-25T10:11:35.000Z</time>
      </trkpt>
      <trkpt lat="42.69947" lon="0.64224">
        <ele>2243.4</ele>
        <time>2021-06-25T10:12:19.000Z</time>
      </trkpt>
      <trkpt lat="42.69946" lon="0.64224">
        <ele>2243.4</ele>
        <time>2021-06-25T10:12:54.000Z</time>
      </trkpt>
      <trkpt lat="42.69945" lon="0.64225">
        <ele>2243.8</ele>
        <time>2021-06-25T10:13:25.000Z</time>
      </trkpt>
      <trkpt lat="42.69945" lon="0.64225">
        <ele>2243.9</ele>
        <time>2021-06-25T10:14:02.000Z</time>
      </trkpt>
      <trkpt lat="42.69945" lon="0.64225">
        <ele>2244.4</ele>
        <time>2021-06-25T10:14:41.000Z</time>
      </trkpt>
      <trkpt lat="42.69943" lon="0.64226">
        <ele>2244.3</ele>
        <time>2021-06-25T10:15:24.000Z</time>
      </trkpt>
      <trkpt lat="42.69946" lon="0.64224">
        <ele>2244.3</ele>
        <time>2021-06-25T10:16:03.000Z</time>
      </trkpt>
      <trkpt lat="42.69946" lon="0.64223">
        <ele>2244.4</ele>
        <time>2021-06-25T10:16:43.000Z</time>
      </trkpt>
      <trkpt lat="42.69945" lon="0.64223">
        <ele>2244.9</ele>
        <time>2021-06-25T10:17:16.000Z</time>
      </trkpt>
      <trkpt lat="42.69947" lon="0.64223">
        <ele>2244.9</ele>
        <time>2021-06-25T10:17:49.000Z</time>
      </trkpt>
      <trkpt lat="42.69945" lon="0.64225">
        <ele>2244.8</ele>
        <time>2021-06-25T10:18:27.000Z</time>
      </trkpt>
      <trkpt lat="42.69945" lon="0.64223">
        <ele>2244.8</ele>
        <time>2021-06-25T10:19:02.000Z</time>
      </trkpt>
      <trkpt lat="42.69944" lon="0.64225">
        <ele>2245.4</ele>
        <time>2021-06-25T10:19:30.000Z</time>
      </trkpt>
      <trkpt lat="42.69945" lon="0.64225">
        <ele>2245.3</ele>
        <time>2021-06-25T10:20:02.000Z</time>
      </trkpt>
      <trkpt lat="42.69944" lon="0.64224">
        <ele>2245.3</ele>
        <time>2021-06-25T10:20:37.000Z</time>
      </trkpt>
      <trkpt lat="42.69945" lon="0.64223">
        <ele>2245.3</ele>
        <time>2021-06-25T10:21:03.000Z</time>
      </trkpt>
      <trkpt lat="42.69947" lon="0.64224">
        <ele>2245.4</ele>
        <time>2021-06-25T10:21:35.000Z</time>
      </trkpt>
      <trkpt lat="42.69946" lon="0.64224">
        <ele>2245.7</ele>
        <time>2021-06-25T10:22:06.000Z</time>
      </trkpt>
      <trkpt lat="42.69946" lon="0.64225">
        <ele>2245.7</ele>
        <time>2021-06-25T10:22:34.000Z</time>
      </trkpt>
      <trkpt lat="42.69945" lon="0.64225">
        <ele>2245.8</ele>
        <time>2021-06-25T10:23:08.000Z</time>
      </trkpt>
      <trkpt lat="42.69944" lon="0.64225">
        <ele>2245.8</ele>
        <time>2021-06-25T10:23:35.000Z</time>
      </trkpt>
      <trkpt lat="42.69944" lon="0.64224">
        <ele>2245.8</ele>
        <time>2021-06-25T10:24:04.000Z</time>
      </trkpt>
      <trkpt lat="42.69945" lon="0.64224">
        <ele>2246.2</ele>
        <time>2021-06-25T10:24:32.000Z</time>
      </trkpt>
      <trkpt lat="42.69946" lon="0.64225">
        <ele>2246.3</ele>
        <time>2021-06-25T10:24:54.000Z</time>
      </trkpt>
      <trkpt lat="42.69944" lon="0.64227">
        <ele>2246.2</ele>
        <time>2021-06-25T10:25:12.000Z</time>
      </trkpt>
      <trkpt lat="42.69945" lon="0.64227">
        <ele>2246.2</ele>
        <time>2021-06-25T10:25:36.000Z</time>
      </trkpt>
      <trkpt lat="42.69945" lon="0.64227">
        <ele>2246.2</ele>
        <time>2021-06-25T10:26:09.000Z</time>
      </trkpt>
      <trkpt lat="42.69945" lon="0.64225">
        <ele>2246.2</ele>
        <time>2021-06-25T10:26:33.000Z</time>
      </trkpt>
      <trkpt lat="42.69944" lon="0.64223">
        <ele>2246.3</ele>
        <time>2021-06-25T10:26:58.000Z</time>
      </trkpt>
      <trkpt lat="42.69945" lon="0.64225">
        <ele>2246.2</ele>
        <time>2021-06-25T10:27:32.000Z</time>
      </trkpt>
      <trkpt lat="42.69946" lon="0.64226">
        <ele>2247.7</ele>
        <time>2021-06-25T10:28:00.000Z</time>
      </trkpt>
      <trkpt lat="42.69947" lon="0.64225">
        <ele>2247.7</ele>
        <time>2021-06-25T10:28:24.000Z</time>
      </trkpt>
      <trkpt lat="42.69946" lon="0.64225">
        <ele>2247.7</ele>
        <time>2021-06-25T10:28:54.000Z</time>
      </trkpt>
      <trkpt lat="42.69947" lon="0.64224">
        <ele>2247.7</ele>
        <time>2021-06-25T10:29:23.000Z</time>
      </trkpt>
      <trkpt lat="42.69945" lon="0.64227">
        <ele>2247.7</ele>
        <time>2021-06-25T10:29:46.000Z</time>
      </trkpt>
      <trkpt lat="42.69945" lon="0.64227">
        <ele>2247.8</ele>
        <time>2021-06-25T10:30:13.000Z</time>
      </trkpt>
      <trkpt lat="42.69945" lon="0.64225">
        <ele>2247.7</ele>
        <time>2021-06-25T10:30:33.000Z</time>
      </trkpt>
      <trkpt lat="42.69946" lon="0.64227">
        <ele>2247.8</ele>
        <time>2021-06-25T10:30:57.000Z</time>
      </trkpt>
      <trkpt lat="42.69946" lon="0.64225">
        <ele>2248.2</ele>
        <time>2021-06-25T10:31:16.000Z</time>
      </trkpt>
      <trkpt lat="42.69946" lon="0.64227">
        <ele>2248.2</ele>
        <time>2021-06-25T10:31:46.000Z</time>
      </trkpt>
      <trkpt lat="42.69944" lon="0.64227">
        <ele>2248.1</ele>
        <time>2021-06-25T10:32:10.000Z</time>
      </trkpt>
      <trkpt lat="42.69943" lon="0.64226">
        <ele>2248.1</ele>
        <time>2021-06-25T10:32:31.000Z</time>
      </trkpt>
      <trkpt lat="42.69946" lon="0.64227">
        <ele>2248.1</ele>
        <time>2021-06-25T10:32:53.000Z</time>
      </trkpt>
      <trkpt lat="42.69948" lon="0.64229">
        <ele>2248.2</ele>
        <time>2021-06-25T10:33:18.000Z</time>
      </trkpt>
      <trkpt lat="42.69946" lon="0.64227">
        <ele>2248.7</ele>
        <time>2021-06-25T10:33:45.000Z</time>
      </trkpt>
      <trkpt lat="42.69947" lon="0.64228">
        <ele>2248.6</ele>
        <time>2021-06-25T10:34:07.000Z</time>
      </trkpt>
      <trkpt lat="42.69945" lon="0.64229">
        <ele>2247.7</ele>
        <time>2021-06-25T10:34:32.000Z</time>
      </trkpt>
      <trkpt lat="42.69944" lon="0.6423">
        <ele>2247.8</ele>
        <time>2021-06-25T10:35:01.000Z</time>
      </trkpt>
      <trkpt lat="42.69945" lon="0.64228">
        <ele>2248.2</ele>
        <time>2021-06-25T10:35:26.000Z</time>
      </trkpt>
      <trkpt lat="42.69946" lon="0.64228">
        <ele>2248.1</ele>
        <time>2021-06-25T10:35:49.000Z</time>
      </trkpt>
      <trkpt lat="42.69947" lon="0.64229">
        <ele>2248.2</ele>
        <time>2021-06-25T10:36:16.000Z</time>
      </trkpt>
      <trkpt lat="42.69946" lon="0.64229">
        <ele>2248.6</ele>
        <time>2021-06-25T10:36:35.000Z</time>
      </trkpt>
      <trkpt lat="42.69949" lon="0.64231">
        <ele>2248.7</ele>
        <time>2021-06-25T10:36:51.000Z</time>
      </trkpt>
      <trkpt lat="42.6995" lon="0.64226">
        <ele>2248.6</ele>
        <time>2021-06-25T10:37:19.000Z</time>
      </trkpt>
      <trkpt lat="42.69948" lon="0.64229">
        <ele>2248.6</ele>
        <time>2021-06-25T10:37:40.000Z</time>
      </trkpt>
      <trkpt lat="42.69946" lon="0.64226">
        <ele>2248.7</ele>
        <time>2021-06-25T10:37:58.000Z</time>
      </trkpt>
      <trkpt lat="42.69942" lon="0.64223">
        <ele>2248.7</ele>
        <time>2021-06-25T10:38:21.000Z</time>
      </trkpt>
      <trkpt lat="42.69944" lon="0.64225">
        <ele>2248.7</ele>
        <time>2021-06-25T10:38:44.000Z</time>
      </trkpt>
      <trkpt lat="42.69946" lon="0.64225">
        <ele>2248.6</ele>
        <time>2021-06-25T10:39:05.000Z</time>
      </trkpt>
      <trkpt lat="42.69946" lon="0.64225">
        <ele>2248.7</ele>
        <time>2021-06-25T10:39:28.000Z</time>
      </trkpt>
      <trkpt lat="42.69946" lon="0.64223">
        <ele>2248.7</ele>
        <time>2021-06-25T10:39:50.000Z</time>
      </trkpt>
      <trkpt lat="42.6995" lon="0.64225">
        <ele>2248.7</ele>
        <time>2021-06-25T10:40:07.000Z</time>
      </trkpt>
      <trkpt lat="42.69947" lon="0.64226">
        <ele>2248.6</ele>
        <time>2021-06-25T10:40:31.000Z</time>
      </trkpt>
      <trkpt lat="42.69947" lon="0.64224">
        <ele>2248.7</ele>
        <time>2021-06-25T10:40:55.000Z</time>
      </trkpt>
      <trkpt lat="42.69947" lon="0.64223">
        <ele>2248.1</ele>
        <time>2021-06-25T10:41:29.000Z</time>
      </trkpt>
      <trkpt lat="42.69948" lon="0.64224">
        <ele>2248.1</ele>
        <time>2021-06-25T10:42:07.000Z</time>
      </trkpt>
      <trkpt lat="42.6995" lon="0.64226">
        <ele>2248.1</ele>
        <time>2021-06-25T10:42:39.000Z</time>
      </trkpt>
      <trkpt lat="42.69948" lon="0.64223">
        <ele>2248.2</ele>
        <time>2021-06-25T10:43:08.000Z</time>
      </trkpt>
      <trkpt lat="42.69948" lon="0.64226">
        <ele>2248.1</ele>
        <time>2021-06-25T10:43:31.000Z</time>
      </trkpt>
      <trkpt lat="42.69948" lon="0.64227">
        <ele>2248.1</ele>
        <time>2021-06-25T10:44:00.000Z</time>
      </trkpt>
      <trkpt lat="42.69947" lon="0.64225">
        <ele>2248.1</ele>
        <time>2021-06-25T10:44:31.000Z</time>
      </trkpt>
      <trkpt lat="42.69947" lon="0.64226">
        <ele>2248.1</ele>
        <time>2021-06-25T10:45:01.000Z</time>
      </trkpt>
      <trkpt lat="42.69948" lon="0.64227">
        <ele>2248.6</ele>
        <time>2021-06-25T10:45:31.000Z</time>
      </trkpt>
      <trkpt lat="42.6995" lon="0.64227">
        <ele>2248.7</ele>
        <time>2021-06-25T10:45:50.000Z</time>
      </trkpt>
      <trkpt lat="42.69951" lon="0.64227">
        <ele>2248.6</ele>
        <time>2021-06-25T10:46:09.000Z</time>
      </trkpt>
      <trkpt lat="42.69949" lon="0.64227">
        <ele>2248.7</ele>
        <time>2021-06-25T10:46:34.000Z</time>
      </trkpt>
      <trkpt lat="42.6995" lon="0.64227">
        <ele>2248.6</ele>
        <time>2021-06-25T10:47:02.000Z</time>
      </trkpt>
      <trkpt lat="42.69947" lon="0.64226">
        <ele>2248.6</ele>
        <time>2021-06-25T10:47:27.000Z</time>
      </trkpt>
      <trkpt lat="42.69947" lon="0.64226">
        <ele>2248.6</ele>
        <time>2021-06-25T10:47:46.000Z</time>
      </trkpt>
      <trkpt lat="42.69947" lon="0.64226">
        <ele>2248.7</ele>
        <time>2021-06-25T10:48:10.000Z</time>
      </trkpt>
      <trkpt lat="42.69946" lon="0.64226">
        <ele>2248.7</ele>
        <time>2021-06-25T10:48:33.000Z</time>
      </trkpt>
      <trkpt lat="42.69945" lon="0.64225">
        <ele>2249.1</ele>
        <time>2021-06-25T10:48:56.000Z</time>
      </trkpt>
      <trkpt lat="42.69948" lon="0.64227">
        <ele>2249.1</ele>
        <time>2021-06-25T10:49:16.000Z</time>
      </trkpt>
      <trkpt lat="42.69949" lon="0.64226">
        <ele>2249.1</ele>
        <time>2021-06-25T10:49:45.000Z</time>
      </trkpt>
      <trkpt lat="42.6995" lon="0.64227">
        <ele>2249.2</ele>
        <time>2021-06-25T10:50:15.000Z</time>
      </trkpt>
      <trkpt lat="42.69949" lon="0.64225">
        <ele>2249.2</ele>
        <time>2021-06-25T10:50:40.000Z</time>
      </trkpt>
      <trkpt lat="42.69949" lon="0.64226">
        <ele>2249.1</ele>
        <time>2021-06-25T10:51:15.000Z</time>
      </trkpt>
      <trkpt lat="42.69948" lon="0.64226">
        <ele>2249.1</ele>
        <time>2021-06-25T10:51:38.000Z</time>
      </trkpt>
      <trkpt lat="42.69945" lon="0.64225">
        <ele>2249.2</ele>
        <time>2021-06-25T10:52:05.000Z</time>
      </trkpt>
      <trkpt lat="42.69949" lon="0.64228">
        <ele>2249.1</ele>
        <time>2021-06-25T10:52:29.000Z</time>
      </trkpt>
      <trkpt lat="42.69948" lon="0.64225">
        <ele>2248.6</ele>
        <time>2021-06-25T10:53:00.000Z</time>
      </trkpt>
      <trkpt lat="42.69948" lon="0.64226">
        <ele>2249.1</ele>
        <time>2021-06-25T10:53:20.000Z</time>
      </trkpt>
      <trkpt lat="42.6995" lon="0.64223">
        <ele>2248.7</ele>
        <time>2021-06-25T10:53:46.000Z</time>
      </trkpt>
      <trkpt lat="42.69949" lon="0.64223">
        <ele>2248.6</ele>
        <time>2021-06-25T10:54:17.000Z</time>
      </trkpt>
      <trkpt lat="42.69949" lon="0.64222">
        <ele>2248.6</ele>
        <time>2021-06-25T10:54:47.000Z</time>
      </trkpt>
      <trkpt lat="42.69947" lon="0.64224">
        <ele>2248.7</ele>
        <time>2021-06-25T10:55:20.000Z</time>
      </trkpt>
      <trkpt lat="42.69949" lon="0.64224">
        <ele>2249.2</ele>
        <time>2021-06-25T10:55:43.000Z</time>
      </trkpt>
      <trkpt lat="42.69947" lon="0.64225">
        <ele>2249.1</ele>
        <time>2021-06-25T10:56:12.000Z</time>
      </trkpt>
      <trkpt lat="42.69949" lon="0.64224">
        <ele>2250.2</ele>
        <time>2021-06-25T10:56:44.000Z</time>
      </trkpt>
      <trkpt lat="42.69949" lon="0.64224">
        <ele>2250.1</ele>
        <time>2021-06-25T10:57:04.000Z</time>
      </trkpt>
      <trkpt lat="42.69947" lon="0.64225">
        <ele>2250.2</ele>
        <time>2021-06-25T10:57:27.000Z</time>
      </trkpt>
      <trkpt lat="42.69948" lon="0.64226">
        <ele>2251</ele>
        <time>2021-06-25T10:57:40.000Z</time>
      </trkpt>
      <trkpt lat="42.69949" lon="0.64226">
        <ele>2252</ele>
        <time>2021-06-25T10:57:44.000Z</time>
      </trkpt>
      <trkpt lat="42.69949" lon="0.64226">
        <ele>2251.1</ele>
        <time>2021-06-25T10:57:46.000Z</time>
      </trkpt>
      <trkpt lat="42.6995" lon="0.64227">
        <ele>2251.5</ele>
        <time>2021-06-25T10:57:50.000Z</time>
      </trkpt>
      <trkpt lat="42.69951" lon="0.64226">
        <ele>2251</ele>
        <time>2021-06-25T10:57:59.000Z</time>
      </trkpt>
      <trkpt lat="42.6995" lon="0.64228">
        <ele>2250.6</ele>
        <time>2021-06-25T10:58:17.000Z</time>
      </trkpt>
      <trkpt lat="42.69945" lon="0.64234">
        <ele>2251.6</ele>
        <time>2021-06-25T10:58:35.000Z</time>
      </trkpt>
      <trkpt lat="42.69946" lon="0.64235">
        <ele>2252</ele>
        <time>2021-06-25T10:59:01.000Z</time>
      </trkpt>
      <trkpt lat="42.69945" lon="0.64237">
        <ele>2252.1</ele>
        <time>2021-06-25T10:59:16.000Z</time>
      </trkpt>
      <trkpt lat="42.69945" lon="0.6424">
        <ele>2252.1</ele>
        <time>2021-06-25T10:59:41.000Z</time>
      </trkpt>
      <trkpt lat="42.69944" lon="0.64238">
        <ele>2252.5</ele>
        <time>2021-06-25T10:59:57.000Z</time>
      </trkpt>
      <trkpt lat="42.69943" lon="0.64238">
        <ele>2252.6</ele>
        <time>2021-06-25T11:00:13.000Z</time>
      </trkpt>
      <trkpt lat="42.69943" lon="0.64237">
        <ele>2252</ele>
        <time>2021-06-25T11:00:38.000Z</time>
      </trkpt>
      <trkpt lat="42.6994" lon="0.64234">
        <ele>2252</ele>
        <time>2021-06-25T11:01:02.000Z</time>
      </trkpt>
      <trkpt lat="42.69939" lon="0.64232">
        <ele>2252</ele>
        <time>2021-06-25T11:01:21.000Z</time>
      </trkpt>
      <trkpt lat="42.69942" lon="0.64237">
        <ele>2252</ele>
        <time>2021-06-25T11:01:39.000Z</time>
      </trkpt>
      <trkpt lat="42.69941" lon="0.64241">
        <ele>2252.5</ele>
        <time>2021-06-25T11:01:53.000Z</time>
      </trkpt>
      <trkpt lat="42.69937" lon="0.64253">
        <ele>2254</ele>
        <time>2021-06-25T11:02:08.000Z</time>
      </trkpt>
      <trkpt lat="42.69932" lon="0.64264">
        <ele>2254.5</ele>
        <time>2021-06-25T11:02:22.000Z</time>
      </trkpt>
      <trkpt lat="42.69927" lon="0.64274">
        <ele>2256.3</ele>
        <time>2021-06-25T11:02:36.000Z</time>
      </trkpt>
      <trkpt lat="42.69917" lon="0.64282">
        <ele>2257.7</ele>
        <time>2021-06-25T11:02:51.000Z</time>
      </trkpt>
      <trkpt lat="42.69908" lon="0.64283">
        <ele>2259.8</ele>
        <time>2021-06-25T11:03:04.000Z</time>
      </trkpt>
      <trkpt lat="42.69896" lon="0.64285">
        <ele>2261.6</ele>
        <time>2021-06-25T11:03:21.000Z</time>
      </trkpt>
      <trkpt lat="42.69885" lon="0.64286">
        <ele>2264.1</ele>
        <time>2021-06-25T11:03:37.000Z</time>
      </trkpt>
      <trkpt lat="42.69886" lon="0.64278">
        <ele>2265.9</ele>
        <time>2021-06-25T11:03:51.000Z</time>
      </trkpt>
      <trkpt lat="42.69892" lon="0.64267">
        <ele>2268.3</ele>
        <time>2021-06-25T11:04:07.000Z</time>
      </trkpt>
      <trkpt lat="42.69898" lon="0.64267">
        <ele>2269.4</ele>
        <time>2021-06-25T11:04:24.000Z</time>
      </trkpt>
      <trkpt lat="42.69896" lon="0.64261">
        <ele>2270.3</ele>
        <time>2021-06-25T11:04:52.000Z</time>
      </trkpt>
      <trkpt lat="42.69888" lon="0.64263">
        <ele>2271.7</ele>
        <time>2021-06-25T11:05:09.000Z</time>
      </trkpt>
      <trkpt lat="42.69878" lon="0.64264">
        <ele>2273.7</ele>
        <time>2021-06-25T11:05:26.000Z</time>
      </trkpt>
      <trkpt lat="42.69867" lon="0.64258">
        <ele>2276.1</ele>
        <time>2021-06-25T11:05:42.000Z</time>
      </trkpt>
      <trkpt lat="42.69859" lon="0.64254">
        <ele>2277.6</ele>
        <time>2021-06-25T11:05:58.000Z</time>
      </trkpt>
      <trkpt lat="42.69849" lon="0.64253">
        <ele>2279.9</ele>
        <time>2021-06-25T11:06:18.000Z</time>
      </trkpt>
      <trkpt lat="42.69839" lon="0.6425">
        <ele>2282.8</ele>
        <time>2021-06-25T11:06:35.000Z</time>
      </trkpt>
      <trkpt lat="42.69828" lon="0.64245">
        <ele>2284.2</ele>
        <time>2021-06-25T11:06:50.000Z</time>
      </trkpt>
      <trkpt lat="42.69818" lon="0.64241">
        <ele>2286.7</ele>
        <time>2021-06-25T11:07:07.000Z</time>
      </trkpt>
      <trkpt lat="42.69809" lon="0.64241">
        <ele>2288</ele>
        <time>2021-06-25T11:07:22.000Z</time>
      </trkpt>
      <trkpt lat="42.69802" lon="0.64237">
        <ele>2290.9</ele>
        <time>2021-06-25T11:07:37.000Z</time>
      </trkpt>
      <trkpt lat="42.69793" lon="0.64234">
        <ele>2292</ele>
        <time>2021-06-25T11:07:50.000Z</time>
      </trkpt>
      <trkpt lat="42.69784" lon="0.64229">
        <ele>2292.8</ele>
        <time>2021-06-25T11:08:03.000Z</time>
      </trkpt>
      <trkpt lat="42.69768" lon="0.6422">
        <ele>2291.5</ele>
        <time>2021-06-25T11:08:20.000Z</time>
      </trkpt>
      <trkpt lat="42.69762" lon="0.64224">
        <ele>2292.9</ele>
        <time>2021-06-25T11:08:29.000Z</time>
      </trkpt>
      <trkpt lat="42.69758" lon="0.64232">
        <ele>2290.1</ele>
        <time>2021-06-25T11:08:38.000Z</time>
      </trkpt>
      <trkpt lat="42.69757" lon="0.64232">
        <ele>2295.3</ele>
        <time>2021-06-25T11:08:39.000Z</time>
      </trkpt>
      <trkpt lat="42.69748" lon="0.64235">
        <ele>2294.9</ele>
        <time>2021-06-25T11:08:52.000Z</time>
      </trkpt>
      <trkpt lat="42.69735" lon="0.64237">
        <ele>2295.3</ele>
        <time>2021-06-25T11:09:07.000Z</time>
      </trkpt>
      <trkpt lat="42.69733" lon="0.64237">
        <ele>2294.4</ele>
        <time>2021-06-25T11:09:09.000Z</time>
      </trkpt>
      <trkpt lat="42.69728" lon="0.64239">
        <ele>2295.7</ele>
        <time>2021-06-25T11:09:15.000Z</time>
      </trkpt>
      <trkpt lat="42.69726" lon="0.6424">
        <ele>2294.3</ele>
        <time>2021-06-25T11:09:17.000Z</time>
      </trkpt>
      <trkpt lat="42.69723" lon="0.64242">
        <ele>2294.3</ele>
        <time>2021-06-25T11:09:20.000Z</time>
      </trkpt>
      <trkpt lat="42.69711" lon="0.6425">
        <ele>2295.8</ele>
        <time>2021-06-25T11:09:33.000Z</time>
      </trkpt>
      <trkpt lat="42.697" lon="0.64259">
        <ele>2296.7</ele>
        <time>2021-06-25T11:09:50.000Z</time>
      </trkpt>
      <trkpt lat="42.69687" lon="0.64265">
        <ele>2300.5</ele>
        <time>2021-06-25T11:10:06.000Z</time>
      </trkpt>
      <trkpt lat="42.69681" lon="0.64267">
        <ele>2301.1</ele>
        <time>2021-06-25T11:10:13.000Z</time>
      </trkpt>
      <trkpt lat="42.69677" lon="0.64265">
        <ele>2299.6</ele>
        <time>2021-06-25T11:10:18.000Z</time>
      </trkpt>
      <trkpt lat="42.69675" lon="0.64264">
        <ele>2301.1</ele>
        <time>2021-06-25T11:10:21.000Z</time>
      </trkpt>
      <trkpt lat="42.69664" lon="0.64259">
        <ele>2301.1</ele>
        <time>2021-06-25T11:10:36.000Z</time>
      </trkpt>
      <trkpt lat="42.69663" lon="0.64258">
        <ele>2302</ele>
        <time>2021-06-25T11:10:38.000Z</time>
      </trkpt>
      <trkpt lat="42.69662" lon="0.64258">
        <ele>2302.5</ele>
        <time>2021-06-25T11:10:39.000Z</time>
      </trkpt>
      <trkpt lat="42.69651" lon="0.6425">
        <ele>2304</ele>
        <time>2021-06-25T11:10:55.000Z</time>
      </trkpt>
      <trkpt lat="42.69643" lon="0.64243">
        <ele>2303.9</ele>
        <time>2021-06-25T11:11:08.000Z</time>
      </trkpt>
      <trkpt lat="42.69641" lon="0.64241">
        <ele>2304.4</ele>
        <time>2021-06-25T11:11:12.000Z</time>
      </trkpt>
      <trkpt lat="42.6964" lon="0.64239">
        <ele>2305.3</ele>
        <time>2021-06-25T11:11:14.000Z</time>
      </trkpt>
      <trkpt lat="42.69631" lon="0.64227">
        <ele>2305.8</ele>
        <time>2021-06-25T11:11:30.000Z</time>
      </trkpt>
      <trkpt lat="42.69618" lon="0.6422">
        <ele>2307.8</ele>
        <time>2021-06-25T11:11:48.000Z</time>
      </trkpt>
      <trkpt lat="42.69614" lon="0.64215">
        <ele>2308.2</ele>
        <time>2021-06-25T11:11:55.000Z</time>
      </trkpt>
      <trkpt lat="42.6961" lon="0.64209">
        <ele>2308.7</ele>
        <time>2021-06-25T11:12:03.000Z</time>
      </trkpt>
      <trkpt lat="42.69607" lon="0.64201">
        <ele>2308.8</ele>
        <time>2021-06-25T11:12:19.000Z</time>
      </trkpt>
      <trkpt lat="42.69607" lon="0.642">
        <ele>2308.7</ele>
        <time>2021-06-25T11:12:20.000Z</time>
      </trkpt>
      <trkpt lat="42.69605" lon="0.64198">
        <ele>2310.1</ele>
        <time>2021-06-25T11:12:24.000Z</time>
      </trkpt>
      <trkpt lat="42.69607" lon="0.64199">
        <ele>2310.1</ele>
        <time>2021-06-25T11:12:43.000Z</time>
      </trkpt>
      <trkpt lat="42.69607" lon="0.64201">
        <ele>2310.6</ele>
        <time>2021-06-25T11:13:03.000Z</time>
      </trkpt>
      <trkpt lat="42.69605" lon="0.64199">
        <ele>2310.6</ele>
        <time>2021-06-25T11:13:16.000Z</time>
      </trkpt>
      <trkpt lat="42.69602" lon="0.64196">
        <ele>2310.6</ele>
        <time>2021-06-25T11:13:30.000Z</time>
      </trkpt>
      <trkpt lat="42.69599" lon="0.64193">
        <ele>2310.7</ele>
        <time>2021-06-25T11:13:39.000Z</time>
      </trkpt>
      <trkpt lat="42.69588" lon="0.64179">
        <ele>2311.6</ele>
        <time>2021-06-25T11:13:56.000Z</time>
      </trkpt>
      <trkpt lat="42.69585" lon="0.64178">
        <ele>2311.2</ele>
        <time>2021-06-25T11:14:01.000Z</time>
      </trkpt>
      <trkpt lat="42.69579" lon="0.64176">
        <ele>2311.2</ele>
        <time>2021-06-25T11:14:19.000Z</time>
      </trkpt>
      <trkpt lat="42.69569" lon="0.64174">
        <ele>2310.1</ele>
        <time>2021-06-25T11:14:34.000Z</time>
      </trkpt>
      <trkpt lat="42.69558" lon="0.64171">
        <ele>2311.7</ele>
        <time>2021-06-25T11:14:47.000Z</time>
      </trkpt>
      <trkpt lat="42.69548" lon="0.64172">
        <ele>2313.1</ele>
        <time>2021-06-25T11:15:00.000Z</time>
      </trkpt>
      <trkpt lat="42.6954" lon="0.64178">
        <ele>2313.6</ele>
        <time>2021-06-25T11:15:11.000Z</time>
      </trkpt>
      <trkpt lat="42.69533" lon="0.64181">
        <ele>2312.1</ele>
        <time>2021-06-25T11:15:18.000Z</time>
      </trkpt>
      <trkpt lat="42.69531" lon="0.64184">
        <ele>2313.6</ele>
        <time>2021-06-25T11:15:23.000Z</time>
      </trkpt>
      <trkpt lat="42.69514" lon="0.64187">
        <ele>2314.5</ele>
        <time>2021-06-25T11:15:39.000Z</time>
      </trkpt>
      <trkpt lat="42.69513" lon="0.64187">
        <ele>2314.9</ele>
        <time>2021-06-25T11:15:41.000Z</time>
      </trkpt>
      <trkpt lat="42.69503" lon="0.64182">
        <ele>2315.9</ele>
        <time>2021-06-25T11:15:56.000Z</time>
      </trkpt>
      <trkpt lat="42.69498" lon="0.64181">
        <ele>2317.4</ele>
        <time>2021-06-25T11:16:04.000Z</time>
      </trkpt>
      <trkpt lat="42.69491" lon="0.64177">
        <ele>2318.9</ele>
        <time>2021-06-25T11:16:19.000Z</time>
      </trkpt>
      <trkpt lat="42.69485" lon="0.64169">
        <ele>2319.3</ele>
        <time>2021-06-25T11:16:36.000Z</time>
      </trkpt>
      <trkpt lat="42.69477" lon="0.64167">
        <ele>2320.3</ele>
        <time>2021-06-25T11:16:51.000Z</time>
      </trkpt>
      <trkpt lat="42.69464" lon="0.64167">
        <ele>2321.8</ele>
        <time>2021-06-25T11:17:07.000Z</time>
      </trkpt>
      <trkpt lat="42.69455" lon="0.64168">
        <ele>2314.9</ele>
        <time>2021-06-25T11:17:22.000Z</time>
      </trkpt>
      <trkpt lat="42.69454" lon="0.64167">
        <ele>2315</ele>
        <time>2021-06-25T11:17:23.000Z</time>
      </trkpt>
      <trkpt lat="42.69453" lon="0.64167">
        <ele>2329.9</ele>
        <time>2021-06-25T11:17:24.000Z</time>
      </trkpt>
      <trkpt lat="42.69453" lon="0.64166">
        <ele>2325.5</ele>
        <time>2021-06-25T11:17:25.000Z</time>
      </trkpt>
      <trkpt lat="42.69445" lon="0.64165">
        <ele>2324.6</ele>
        <time>2021-06-25T11:17:38.000Z</time>
      </trkpt>
      <trkpt lat="42.69443" lon="0.64164">
        <ele>2326</ele>
        <time>2021-06-25T11:17:42.000Z</time>
      </trkpt>
      <trkpt lat="42.69438" lon="0.64157">
        <ele>2327</ele>
        <time>2021-06-25T11:17:56.000Z</time>
      </trkpt>
      <trkpt lat="42.69432" lon="0.6415">
        <ele>2329.4</ele>
        <time>2021-06-25T11:18:10.000Z</time>
      </trkpt>
      <trkpt lat="42.69427" lon="0.64138">
        <ele>2330.8</ele>
        <time>2021-06-25T11:18:29.000Z</time>
      </trkpt>
      <trkpt lat="42.6942" lon="0.64128">
        <ele>2332.3</ele>
        <time>2021-06-25T11:18:46.000Z</time>
      </trkpt>
      <trkpt lat="42.69411" lon="0.64116">
        <ele>2334.8</ele>
        <time>2021-06-25T11:19:07.000Z</time>
      </trkpt>
      <trkpt lat="42.69404" lon="0.64105">
        <ele>2337.6</ele>
        <time>2021-06-25T11:19:28.000Z</time>
      </trkpt>
      <trkpt lat="42.69399" lon="0.64092">
        <ele>2339.9</ele>
        <time>2021-06-25T11:19:47.000Z</time>
      </trkpt>
      <trkpt lat="42.69396" lon="0.64076">
        <ele>2341.5</ele>
        <time>2021-06-25T11:20:09.000Z</time>
      </trkpt>
      <trkpt lat="42.69403" lon="0.64072">
        <ele>2342</ele>
        <time>2021-06-25T11:20:27.000Z</time>
      </trkpt>
      <trkpt lat="42.69402" lon="0.64074">
        <ele>2342.3</ele>
        <time>2021-06-25T11:20:51.000Z</time>
      </trkpt>
      <trkpt lat="42.69401" lon="0.64075">
        <ele>2342.3</ele>
        <time>2021-06-25T11:21:10.000Z</time>
      </trkpt>
      <trkpt lat="42.69402" lon="0.64074">
        <ele>2342.3</ele>
        <time>2021-06-25T11:21:33.000Z</time>
      </trkpt>
      <trkpt lat="42.69403" lon="0.64071">
        <ele>2342.4</ele>
        <time>2021-06-25T11:22:02.000Z</time>
      </trkpt>
      <trkpt lat="42.694" lon="0.64069">
        <ele>2342.3</ele>
        <time>2021-06-25T11:22:26.000Z</time>
      </trkpt>
      <trkpt lat="42.69394" lon="0.64064">
        <ele>2343.8</ele>
        <time>2021-06-25T11:22:41.000Z</time>
      </trkpt>
      <trkpt lat="42.69388" lon="0.64057">
        <ele>2346.7</ele>
        <time>2021-06-25T11:22:57.000Z</time>
      </trkpt>
      <trkpt lat="42.69383" lon="0.64053">
        <ele>2347.6</ele>
        <time>2021-06-25T11:23:12.000Z</time>
      </trkpt>
      <trkpt lat="42.69386" lon="0.64055">
        <ele>2348.7</ele>
        <time>2021-06-25T11:23:33.000Z</time>
      </trkpt>
      <trkpt lat="42.69388" lon="0.6406">
        <ele>2348.6</ele>
        <time>2021-06-25T11:24:01.000Z</time>
      </trkpt>
      <trkpt lat="42.69389" lon="0.64058">
        <ele>2349.1</ele>
        <time>2021-06-25T11:24:36.000Z</time>
      </trkpt>
      <trkpt lat="42.69386" lon="0.64059">
        <ele>2349.2</ele>
        <time>2021-06-25T11:24:58.000Z</time>
      </trkpt>
      <trkpt lat="42.69387" lon="0.64062">
        <ele>2349.7</ele>
        <time>2021-06-25T11:25:13.000Z</time>
      </trkpt>
      <trkpt lat="42.69387" lon="0.64073">
        <ele>2352</ele>
        <time>2021-06-25T11:25:27.000Z</time>
      </trkpt>
      <trkpt lat="42.69378" lon="0.64069">
        <ele>2354.8</ele>
        <time>2021-06-25T11:25:43.000Z</time>
      </trkpt>
      <trkpt lat="42.69373" lon="0.64066">
        <ele>2356.8</ele>
        <time>2021-06-25T11:25:57.000Z</time>
      </trkpt>
      <trkpt lat="42.69369" lon="0.64063">
        <ele>2359.3</ele>
        <time>2021-06-25T11:26:12.000Z</time>
      </trkpt>
      <trkpt lat="42.69365" lon="0.64057">
        <ele>2362.2</ele>
        <time>2021-06-25T11:26:32.000Z</time>
      </trkpt>
      <trkpt lat="42.6936" lon="0.64047">
        <ele>2364.5</ele>
        <time>2021-06-25T11:26:48.000Z</time>
      </trkpt>
      <trkpt lat="42.69355" lon="0.64034">
        <ele>2365.4</ele>
        <time>2021-06-25T11:27:07.000Z</time>
      </trkpt>
      <trkpt lat="42.69348" lon="0.6403">
        <ele>2367.8</ele>
        <time>2021-06-25T11:27:24.000Z</time>
      </trkpt>
      <trkpt lat="42.69341" lon="0.64026">
        <ele>2369.8</ele>
        <time>2021-06-25T11:27:41.000Z</time>
      </trkpt>
      <trkpt lat="42.69345" lon="0.64032">
        <ele>2371.2</ele>
        <time>2021-06-25T11:27:54.000Z</time>
      </trkpt>
      <trkpt lat="42.6935" lon="0.64044">
        <ele>2373.1</ele>
        <time>2021-06-25T11:28:09.000Z</time>
      </trkpt>
      <trkpt lat="42.69348" lon="0.64059">
        <ele>2376</ele>
        <time>2021-06-25T11:28:28.000Z</time>
      </trkpt>
      <trkpt lat="42.69343" lon="0.64058">
        <ele>2377.4</ele>
        <time>2021-06-25T11:28:42.000Z</time>
      </trkpt>
      <trkpt lat="42.69342" lon="0.64057">
        <ele>2378.4</ele>
        <time>2021-06-25T11:29:02.000Z</time>
      </trkpt>
      <trkpt lat="42.6934" lon="0.64054">
        <ele>2379.5</ele>
        <time>2021-06-25T11:29:18.000Z</time>
      </trkpt>
      <trkpt lat="42.69335" lon="0.64047">
        <ele>2380.9</ele>
        <time>2021-06-25T11:29:34.000Z</time>
      </trkpt>
      <trkpt lat="42.69326" lon="0.64041">
        <ele>2383.2</ele>
        <time>2021-06-25T11:29:55.000Z</time>
      </trkpt>
      <trkpt lat="42.6932" lon="0.64037">
        <ele>2385.7</ele>
        <time>2021-06-25T11:30:12.000Z</time>
      </trkpt>
      <trkpt lat="42.69325" lon="0.64043">
        <ele>2387.6</ele>
        <time>2021-06-25T11:30:27.000Z</time>
      </trkpt>
      <trkpt lat="42.69329" lon="0.6405">
        <ele>2388.5</ele>
        <time>2021-06-25T11:30:43.000Z</time>
      </trkpt>
      <trkpt lat="42.6933" lon="0.64061">
        <ele>2390</ele>
        <time>2021-06-25T11:31:01.000Z</time>
      </trkpt>
      <trkpt lat="42.69321" lon="0.64055">
        <ele>2391.4</ele>
        <time>2021-06-25T11:31:22.000Z</time>
      </trkpt>
      <trkpt lat="42.69317" lon="0.64054">
        <ele>2394.3</ele>
        <time>2021-06-25T11:31:31.000Z</time>
      </trkpt>
      <trkpt lat="42.69307" lon="0.64048">
        <ele>2395.7</ele>
        <time>2021-06-25T11:31:51.000Z</time>
      </trkpt>
      <trkpt lat="42.69306" lon="0.6405">
        <ele>2397.1</ele>
        <time>2021-06-25T11:32:07.000Z</time>
      </trkpt>
      <trkpt lat="42.69312" lon="0.6406">
        <ele>2398.1</ele>
        <time>2021-06-25T11:32:23.000Z</time>
      </trkpt>
      <trkpt lat="42.69314" lon="0.64063">
        <ele>2401.6</ele>
        <time>2021-06-25T11:32:30.000Z</time>
      </trkpt>
      <trkpt lat="42.69314" lon="0.64064">
        <ele>2398.1</ele>
        <time>2021-06-25T11:32:31.000Z</time>
      </trkpt>
      <trkpt lat="42.69315" lon="0.64066">
        <ele>2400.1</ele>
        <time>2021-06-25T11:32:34.000Z</time>
      </trkpt>
      <trkpt lat="42.69316" lon="0.64076">
        <ele>2402</ele>
        <time>2021-06-25T11:32:50.000Z</time>
      </trkpt>
      <trkpt lat="42.69313" lon="0.64076">
        <ele>2404.4</ele>
        <time>2021-06-25T11:33:03.000Z</time>
      </trkpt>
      <trkpt lat="42.69307" lon="0.64072">
        <ele>2406.8</ele>
        <time>2021-06-25T11:33:22.000Z</time>
      </trkpt>
      <trkpt lat="42.69305" lon="0.64073">
        <ele>2409.3</ele>
        <time>2021-06-25T11:33:38.000Z</time>
      </trkpt>
      <trkpt lat="42.69307" lon="0.64079">
        <ele>2411.2</ele>
        <time>2021-06-25T11:33:48.000Z</time>
      </trkpt>
      <trkpt lat="42.69308" lon="0.64081">
        <ele>2408.7</ele>
        <time>2021-06-25T11:33:50.000Z</time>
      </trkpt>
      <trkpt lat="42.69308" lon="0.64084">
        <ele>2410.2</ele>
        <time>2021-06-25T11:33:54.000Z</time>
      </trkpt>
      <trkpt lat="42.69309" lon="0.6409">
        <ele>2411.6</ele>
        <time>2021-06-25T11:34:01.000Z</time>
      </trkpt>
      <trkpt lat="42.69299" lon="0.64071">
        <ele>2414</ele>
        <time>2021-06-25T11:34:19.000Z</time>
      </trkpt>
      <trkpt lat="42.693" lon="0.64077">
        <ele>2413.6</ele>
        <time>2021-06-25T11:34:29.000Z</time>
      </trkpt>
      <trkpt lat="42.693" lon="0.64079">
        <ele>2415</ele>
        <time>2021-06-25T11:34:31.000Z</time>
      </trkpt>
      <trkpt lat="42.693" lon="0.64086">
        <ele>2417.8</ele>
        <time>2021-06-25T11:34:42.000Z</time>
      </trkpt>
      <trkpt lat="42.69301" lon="0.64092">
        <ele>2416.8</ele>
        <time>2021-06-25T11:34:58.000Z</time>
      </trkpt>
      <trkpt lat="42.69298" lon="0.64092">
        <ele>2420.8</ele>
        <time>2021-06-25T11:35:08.000Z</time>
      </trkpt>
      <trkpt lat="42.69292" lon="0.64087">
        <ele>2425.6</ele>
        <time>2021-06-25T11:35:27.000Z</time>
      </trkpt>
      <trkpt lat="42.69292" lon="0.64087">
        <ele>2425.6</ele>
        <time>2021-06-25T11:35:28.000Z</time>
      </trkpt>
      <trkpt lat="42.69291" lon="0.64087">
        <ele>2421.8</ele>
        <time>2021-06-25T11:35:29.000Z</time>
      </trkpt>
      <trkpt lat="42.69291" lon="0.64087">
        <ele>2421.7</ele>
        <time>2021-06-25T11:35:30.000Z</time>
      </trkpt>
      <trkpt lat="42.69293" lon="0.64091">
        <ele>2425.6</ele>
        <time>2021-06-25T11:35:36.000Z</time>
      </trkpt>
      <trkpt lat="42.69296" lon="0.64096">
        <ele>2425.5</ele>
        <time>2021-06-25T11:35:44.000Z</time>
      </trkpt>
      <trkpt lat="42.69292" lon="0.64095">
        <ele>2427.4</ele>
        <time>2021-06-25T11:35:56.000Z</time>
      </trkpt>
      <trkpt lat="42.69291" lon="0.64094">
        <ele>2426.1</ele>
        <time>2021-06-25T11:35:58.000Z</time>
      </trkpt>
      <trkpt lat="42.69291" lon="0.64094">
        <ele>2426.9</ele>
        <time>2021-06-25T11:36:00.000Z</time>
      </trkpt>
      <trkpt lat="42.6929" lon="0.64095">
        <ele>2431.8</ele>
        <time>2021-06-25T11:36:09.000Z</time>
      </trkpt>
      <trkpt lat="42.6929" lon="0.64097">
        <ele>2429</ele>
        <time>2021-06-25T11:36:13.000Z</time>
      </trkpt>
      <trkpt lat="42.69294" lon="0.64099">
        <ele>2429</ele>
        <time>2021-06-25T11:36:33.000Z</time>
      </trkpt>
      <trkpt lat="42.69285" lon="0.64089">
        <ele>2429</ele>
        <time>2021-06-25T11:36:55.000Z</time>
      </trkpt>
      <trkpt lat="42.69284" lon="0.64088">
        <ele>2430.4</ele>
        <time>2021-06-25T11:37:10.000Z</time>
      </trkpt>
      <trkpt lat="42.69284" lon="0.64088">
        <ele>2428.4</ele>
        <time>2021-06-25T11:37:28.000Z</time>
      </trkpt>
      <trkpt lat="42.69286" lon="0.64088">
        <ele>2429</ele>
        <time>2021-06-25T11:37:44.000Z</time>
      </trkpt>
      <trkpt lat="42.69287" lon="0.64093">
        <ele>2428.9</ele>
        <time>2021-06-25T11:38:08.000Z</time>
      </trkpt>
      <trkpt lat="42.69287" lon="0.64093">
        <ele>2428.9</ele>
        <time>2021-06-25T11:38:34.000Z</time>
      </trkpt>
      <trkpt lat="42.69287" lon="0.64094">
        <ele>2428.9</ele>
        <time>2021-06-25T11:39:02.000Z</time>
      </trkpt>
      <trkpt lat="42.6929" lon="0.64098">
        <ele>2429.3</ele>
        <time>2021-06-25T11:39:16.000Z</time>
      </trkpt>
      <trkpt lat="42.6929" lon="0.64098">
        <ele>2430.8</ele>
        <time>2021-06-25T11:39:18.000Z</time>
      </trkpt>
      <trkpt lat="42.69285" lon="0.64096">
        <ele>2432.2</ele>
        <time>2021-06-25T11:39:34.000Z</time>
      </trkpt>
      <trkpt lat="42.69283" lon="0.64098">
        <ele>2434.3</ele>
        <time>2021-06-25T11:39:42.000Z</time>
      </trkpt>
      <trkpt lat="42.69285" lon="0.64105">
        <ele>2436.7</ele>
        <time>2021-06-25T11:39:56.000Z</time>
      </trkpt>
      <trkpt lat="42.69281" lon="0.64108">
        <ele>2438</ele>
        <time>2021-06-25T11:40:15.000Z</time>
      </trkpt>
      <trkpt lat="42.69277" lon="0.64109">
        <ele>2437.1</ele>
        <time>2021-06-25T11:40:21.000Z</time>
      </trkpt>
      <trkpt lat="42.69275" lon="0.64111">
        <ele>2438.5</ele>
        <time>2021-06-25T11:40:24.000Z</time>
      </trkpt>
      <trkpt lat="42.6927" lon="0.64117">
        <ele>2436.2</ele>
        <time>2021-06-25T11:40:40.000Z</time>
      </trkpt>
      <trkpt lat="42.69269" lon="0.64116">
        <ele>2438.6</ele>
        <time>2021-06-25T11:40:43.000Z</time>
      </trkpt>
      <trkpt lat="42.69268" lon="0.64116">
        <ele>2438.5</ele>
        <time>2021-06-25T11:41:06.000Z</time>
      </trkpt>
      <trkpt lat="42.69268" lon="0.64115">
        <ele>2436.6</ele>
        <time>2021-06-25T11:41:08.000Z</time>
      </trkpt>
      <trkpt lat="42.69267" lon="0.64115">
        <ele>2438</ele>
        <time>2021-06-25T11:41:11.000Z</time>
      </trkpt>
      <trkpt lat="42.69269" lon="0.64117">
        <ele>2435.7</ele>
        <time>2021-06-25T11:41:20.000Z</time>
      </trkpt>
      <trkpt lat="42.69269" lon="0.64117">
        <ele>2438</ele>
        <time>2021-06-25T11:41:23.000Z</time>
      </trkpt>
      <trkpt lat="42.69269" lon="0.64117">
        <ele>2438</ele>
        <time>2021-06-25T11:41:28.000Z</time>
      </trkpt>
      <trkpt lat="42.69265" lon="0.64119">
        <ele>2437.1</ele>
        <time>2021-06-25T11:41:41.000Z</time>
      </trkpt>
      <trkpt lat="42.69261" lon="0.64119">
        <ele>2435.7</ele>
        <time>2021-06-25T11:41:59.000Z</time>
      </trkpt>
      <trkpt lat="42.6926" lon="0.64118">
        <ele>2435.6</ele>
        <time>2021-06-25T11:42:06.000Z</time>
      </trkpt>
      <trkpt lat="42.69261" lon="0.64117">
        <ele>2437</ele>
        <time>2021-06-25T11:42:09.000Z</time>
      </trkpt>
      <trkpt lat="42.69262" lon="0.6412">
        <ele>2435.7</ele>
        <time>2021-06-25T11:42:26.000Z</time>
      </trkpt>
      <trkpt lat="42.69263" lon="0.64121">
        <ele>2435.6</ele>
        <time>2021-06-25T11:42:45.000Z</time>
      </trkpt>
      <trkpt lat="42.69261" lon="0.64118">
        <ele>2436.6</ele>
        <time>2021-06-25T11:43:00.000Z</time>
      </trkpt>
      <trkpt lat="42.69264" lon="0.64116">
        <ele>2437.5</ele>
        <time>2021-06-25T11:43:11.000Z</time>
      </trkpt>
      <trkpt lat="42.69264" lon="0.64121">
        <ele>2438.6</ele>
        <time>2021-06-25T11:43:31.000Z</time>
      </trkpt>
      <trkpt lat="42.69264" lon="0.6412">
        <ele>2437.5</ele>
        <time>2021-06-25T11:43:41.000Z</time>
      </trkpt>
      <trkpt lat="42.69264" lon="0.6412">
        <ele>2438.5</ele>
        <time>2021-06-25T11:43:47.000Z</time>
      </trkpt>
      <trkpt lat="42.69267" lon="0.6412">
        <ele>2438.1</ele>
        <time>2021-06-25T11:44:01.000Z</time>
      </trkpt>
      <trkpt lat="42.69265" lon="0.64119">
        <ele>2437</ele>
        <time>2021-06-25T11:44:27.000Z</time>
      </trkpt>
      <trkpt lat="42.69266" lon="0.64118">
        <ele>2438.5</ele>
        <time>2021-06-25T11:44:33.000Z</time>
      </trkpt>
      <trkpt lat="42.69266" lon="0.64117">
        <ele>2439.1</ele>
        <time>2021-06-25T11:44:49.000Z</time>
      </trkpt>
      <trkpt lat="42.69266" lon="0.64118">
        <ele>2439</ele>
        <time>2021-06-25T11:45:12.000Z</time>
      </trkpt>
      <trkpt lat="42.69267" lon="0.64119">
        <ele>2437.6</ele>
        <time>2021-06-25T11:45:34.000Z</time>
      </trkpt>
      <trkpt lat="42.69266" lon="0.64117">
        <ele>2438.5</ele>
        <time>2021-06-25T11:45:47.000Z</time>
      </trkpt>
      <trkpt lat="42.69263" lon="0.64117">
        <ele>2438.5</ele>
        <time>2021-06-25T11:46:01.000Z</time>
      </trkpt>
      <trkpt lat="42.69263" lon="0.6412">
        <ele>2437</ele>
        <time>2021-06-25T11:46:04.000Z</time>
      </trkpt>
      <trkpt lat="42.69262" lon="0.64117">
        <ele>2436.1</ele>
        <time>2021-06-25T11:46:16.000Z</time>
      </trkpt>
      <trkpt lat="42.69259" lon="0.64117">
        <ele>2433.7</ele>
        <time>2021-06-25T11:46:33.000Z</time>
      </trkpt>
      <trkpt lat="42.69259" lon="0.64117">
        <ele>2438.6</ele>
        <time>2021-06-25T11:46:34.000Z</time>
      </trkpt>
      <trkpt lat="42.69259" lon="0.64118">
        <ele>2438.6</ele>
        <time>2021-06-25T11:46:35.000Z</time>
      </trkpt>
      <trkpt lat="42.69259" lon="0.64121">
        <ele>2435.1</ele>
        <time>2021-06-25T11:46:41.000Z</time>
      </trkpt>
      <trkpt lat="42.69257" lon="0.64124">
        <ele>2433.3</ele>
        <time>2021-06-25T11:46:46.000Z</time>
      </trkpt>
      <trkpt lat="42.6925" lon="0.64123">
        <ele>2431.7</ele>
        <time>2021-06-25T11:46:59.000Z</time>
      </trkpt>
      <trkpt lat="42.69251" lon="0.64122">
        <ele>2430.9</ele>
        <time>2021-06-25T11:47:14.000Z</time>
      </trkpt>
      <trkpt lat="42.6925" lon="0.6412">
        <ele>2430.4</ele>
        <time>2021-06-25T11:47:26.000Z</time>
      </trkpt>
      <trkpt lat="42.69251" lon="0.64123">
        <ele>2430.3</ele>
        <time>2021-06-25T11:47:59.000Z</time>
      </trkpt>
      <trkpt lat="42.69252" lon="0.64123">
        <ele>2426.9</ele>
        <time>2021-06-25T11:48:03.000Z</time>
      </trkpt>
      <trkpt lat="42.69251" lon="0.64122">
        <ele>2423.6</ele>
        <time>2021-06-25T11:48:04.000Z</time>
      </trkpt>
      <trkpt lat="42.69251" lon="0.64122">
        <ele>2429.3</ele>
        <time>2021-06-25T11:48:05.000Z</time>
      </trkpt>
      <trkpt lat="42.69251" lon="0.64121">
        <ele>2433.2</ele>
        <time>2021-06-25T11:48:08.000Z</time>
      </trkpt>
      <trkpt lat="42.69251" lon="0.64121">
        <ele>2433.3</ele>
        <time>2021-06-25T11:48:09.000Z</time>
      </trkpt>
      <trkpt lat="42.69251" lon="0.64121">
        <ele>2430.9</ele>
        <time>2021-06-25T11:48:11.000Z</time>
      </trkpt>
      <trkpt lat="42.6925" lon="0.64121">
        <ele>2432.3</ele>
        <time>2021-06-25T11:48:13.000Z</time>
      </trkpt>
      <trkpt lat="42.69249" lon="0.6412">
        <ele>2427</ele>
        <time>2021-06-25T11:48:17.000Z</time>
      </trkpt>
      <trkpt lat="42.69249" lon="0.6412">
        <ele>2426.9</ele>
        <time>2021-06-25T11:48:18.000Z</time>
      </trkpt>
      <trkpt lat="42.69249" lon="0.6412">
        <ele>2429.8</ele>
        <time>2021-06-25T11:48:19.000Z</time>
      </trkpt>
      <trkpt lat="42.69249" lon="0.64121">
        <ele>2429.8</ele>
        <time>2021-06-25T11:48:20.000Z</time>
      </trkpt>
      <trkpt lat="42.69249" lon="0.64121">
        <ele>2433.8</ele>
        <time>2021-06-25T11:48:24.000Z</time>
      </trkpt>
      <trkpt lat="42.69249" lon="0.64121">
        <ele>2430.3</ele>
        <time>2021-06-25T11:48:30.000Z</time>
      </trkpt>
      <trkpt lat="42.69249" lon="0.64121">
        <ele>2430.3</ele>
        <time>2021-06-25T11:48:31.000Z</time>
      </trkpt>
      <trkpt lat="42.69249" lon="0.6412">
        <ele>2426.1</ele>
        <time>2021-06-25T11:48:35.000Z</time>
      </trkpt>
      <trkpt lat="42.69249" lon="0.64121">
        <ele>2432.2</ele>
        <time>2021-06-25T11:48:36.000Z</time>
      </trkpt>
      <trkpt lat="42.69249" lon="0.64121">
        <ele>2432.2</ele>
        <time>2021-06-25T11:48:37.000Z</time>
      </trkpt>
      <trkpt lat="42.69249" lon="0.64121">
        <ele>2430.9</ele>
        <time>2021-06-25T11:48:39.000Z</time>
      </trkpt>
      <trkpt lat="42.69249" lon="0.6412">
        <ele>2432.3</ele>
        <time>2021-06-25T11:48:44.000Z</time>
      </trkpt>
      <trkpt lat="42.69251" lon="0.6412">
        <ele>2430.9</ele>
        <time>2021-06-25T11:48:53.000Z</time>
      </trkpt>
      <trkpt lat="42.69251" lon="0.6412">
        <ele>2432.2</ele>
        <time>2021-06-25T11:48:55.000Z</time>
      </trkpt>
      <trkpt lat="42.69251" lon="0.6412">
        <ele>2432.2</ele>
        <time>2021-06-25T11:49:09.000Z</time>
      </trkpt>
      <trkpt lat="42.69251" lon="0.64121">
        <ele>2431.7</ele>
        <time>2021-06-25T11:49:11.000Z</time>
      </trkpt>
      <trkpt lat="42.69251" lon="0.64122">
        <ele>2432.2</ele>
        <time>2021-06-25T11:49:23.000Z</time>
      </trkpt>
      <trkpt lat="42.69249" lon="0.64121">
        <ele>2432.2</ele>
        <time>2021-06-25T11:49:38.000Z</time>
      </trkpt>
      <trkpt lat="42.69241" lon="0.64117">
        <ele>2429.3</ele>
        <time>2021-06-25T11:49:49.000Z</time>
      </trkpt>
      <trkpt lat="42.69233" lon="0.64102">
        <ele>2425.6</ele>
        <time>2021-06-25T11:50:05.000Z</time>
      </trkpt>
      <trkpt lat="42.69226" lon="0.64101">
        <ele>2426</ele>
        <time>2021-06-25T11:50:20.000Z</time>
      </trkpt>
      <trkpt lat="42.69227" lon="0.64111">
        <ele>2422.7</ele>
        <time>2021-06-25T11:50:31.000Z</time>
      </trkpt>
      <trkpt lat="42.69226" lon="0.64112">
        <ele>2422.7</ele>
        <time>2021-06-25T11:50:33.000Z</time>
      </trkpt>
      <trkpt lat="42.69224" lon="0.64114">
        <ele>2422.2</ele>
        <time>2021-06-25T11:50:36.000Z</time>
      </trkpt>
      <trkpt lat="42.69222" lon="0.64115">
        <ele>2422.2</ele>
        <time>2021-06-25T11:50:38.000Z</time>
      </trkpt>
      <trkpt lat="42.69219" lon="0.64111">
        <ele>2420.8</ele>
        <time>2021-06-25T11:50:42.000Z</time>
      </trkpt>
      <trkpt lat="42.69211" lon="0.64095">
        <ele>2416.9</ele>
        <time>2021-06-25T11:50:54.000Z</time>
      </trkpt>
      <trkpt lat="42.69211" lon="0.64093">
        <ele>2416.9</ele>
        <time>2021-06-25T11:50:55.000Z</time>
      </trkpt>
      <trkpt lat="42.69206" lon="0.64081">
        <ele>2414.1</ele>
        <time>2021-06-25T11:51:06.000Z</time>
      </trkpt>
      <trkpt lat="42.69206" lon="0.6408">
        <ele>2414</ele>
        <time>2021-06-25T11:51:07.000Z</time>
      </trkpt>
      <trkpt lat="42.69201" lon="0.64072">
        <ele>2411.6</ele>
        <time>2021-06-25T11:51:21.000Z</time>
      </trkpt>
      <trkpt lat="42.69197" lon="0.64069">
        <ele>2411.1</ele>
        <time>2021-06-25T11:51:30.000Z</time>
      </trkpt>
      <trkpt lat="42.69193" lon="0.64071">
        <ele>2409.6</ele>
        <time>2021-06-25T11:51:36.000Z</time>
      </trkpt>
      <trkpt lat="42.69191" lon="0.64066">
        <ele>2405.8</ele>
        <time>2021-06-25T11:51:41.000Z</time>
      </trkpt>
      <trkpt lat="42.69187" lon="0.64048">
        <ele>2406.3</ele>
        <time>2021-06-25T11:51:56.000Z</time>
      </trkpt>
      <trkpt lat="42.69186" lon="0.64044">
        <ele>2404.4</ele>
        <time>2021-06-25T11:51:59.000Z</time>
      </trkpt>
      <trkpt lat="42.69186" lon="0.64043">
        <ele>2389.9</ele>
        <time>2021-06-25T11:52:00.000Z</time>
      </trkpt>
      <trkpt lat="42.69186" lon="0.64042">
        <ele>2415.5</ele>
        <time>2021-06-25T11:52:01.000Z</time>
      </trkpt>
      <trkpt lat="42.69185" lon="0.64041">
        <ele>2407.2</ele>
        <time>2021-06-25T11:52:02.000Z</time>
      </trkpt>
      <trkpt lat="42.69185" lon="0.64039">
        <ele>2404.4</ele>
        <time>2021-06-25T11:52:03.000Z</time>
      </trkpt>
      <trkpt lat="42.69184" lon="0.64037">
        <ele>2403.4</ele>
        <time>2021-06-25T11:52:05.000Z</time>
      </trkpt>
      <trkpt lat="42.69184" lon="0.64019">
        <ele>2401</ele>
        <time>2021-06-25T11:52:20.000Z</time>
      </trkpt>
      <trkpt lat="42.69184" lon="0.64008">
        <ele>2398.1</ele>
        <time>2021-06-25T11:52:30.000Z</time>
      </trkpt>
      <trkpt lat="42.69184" lon="0.64006">
        <ele>2398.2</ele>
        <time>2021-06-25T11:52:31.000Z</time>
      </trkpt>
      <trkpt lat="42.69185" lon="0.63996">
        <ele>2397.6</ele>
        <time>2021-06-25T11:52:39.000Z</time>
      </trkpt>
      <trkpt lat="42.69177" lon="0.6398">
        <ele>2396.3</ele>
        <time>2021-06-25T11:52:54.000Z</time>
      </trkpt>
      <trkpt lat="42.69176" lon="0.63981">
        <ele>2396.3</ele>
        <time>2021-06-25T11:53:12.000Z</time>
      </trkpt>
      <trkpt lat="42.69175" lon="0.63975">
        <ele>2393.3</ele>
        <time>2021-06-25T11:53:22.000Z</time>
      </trkpt>
      <trkpt lat="42.69173" lon="0.6397">
        <ele>2392.3</ele>
        <time>2021-06-25T11:53:25.000Z</time>
      </trkpt>
      <trkpt lat="42.69165" lon="0.63946">
        <ele>2390.5</ele>
        <time>2021-06-25T11:53:44.000Z</time>
      </trkpt>
      <trkpt lat="42.69164" lon="0.63947">
        <ele>2389.9</ele>
        <time>2021-06-25T11:54:05.000Z</time>
      </trkpt>
      <trkpt lat="42.69161" lon="0.63941">
        <ele>2389.5</ele>
        <time>2021-06-25T11:54:10.000Z</time>
      </trkpt>
      <trkpt lat="42.69158" lon="0.63932">
        <ele>2389.9</ele>
        <time>2021-06-25T11:54:19.000Z</time>
      </trkpt>
      <trkpt lat="42.69159" lon="0.63939">
        <ele>2388.5</ele>
        <time>2021-06-25T11:54:26.000Z</time>
      </trkpt>
      <trkpt lat="42.6916" lon="0.63945">
        <ele>2386.6</ele>
        <time>2021-06-25T11:54:32.000Z</time>
      </trkpt>
      <trkpt lat="42.6916" lon="0.63948">
        <ele>2386.7</ele>
        <time>2021-06-25T11:54:34.000Z</time>
      </trkpt>
      <trkpt lat="42.69159" lon="0.63965">
        <ele>2384.7</ele>
        <time>2021-06-25T11:54:49.000Z</time>
      </trkpt>
      <trkpt lat="42.69159" lon="0.6397">
        <ele>2383.3</ele>
        <time>2021-06-25T11:54:53.000Z</time>
      </trkpt>
      <trkpt lat="42.69156" lon="0.63997">
        <ele>2380.9</ele>
        <time>2021-06-25T11:55:13.000Z</time>
      </trkpt>
      <trkpt lat="42.69154" lon="0.64008">
        <ele>2379.4</ele>
        <time>2021-06-25T11:55:22.000Z</time>
      </trkpt>
      <trkpt lat="42.69142" lon="0.64032">
        <ele>2379</ele>
        <time>2021-06-25T11:55:41.000Z</time>
      </trkpt>
      <trkpt lat="42.69128" lon="0.64046">
        <ele>2380.9</ele>
        <time>2021-06-25T11:55:56.000Z</time>
      </trkpt>
      <trkpt lat="42.69126" lon="0.64047">
        <ele>2380.8</ele>
        <time>2021-06-25T11:55:57.000Z</time>
      </trkpt>
      <trkpt lat="42.69123" lon="0.64048">
        <ele>2379</ele>
        <time>2021-06-25T11:56:00.000Z</time>
      </trkpt>
      <trkpt lat="42.69106" lon="0.64044">
        <ele>2376</ele>
        <time>2021-06-25T11:56:17.000Z</time>
      </trkpt>
      <trkpt lat="42.69101" lon="0.64042">
        <ele>2377.9</ele>
        <time>2021-06-25T11:56:23.000Z</time>
      </trkpt>
      <trkpt lat="42.691" lon="0.6404">
        <ele>2377</ele>
        <time>2021-06-25T11:56:24.000Z</time>
      </trkpt>
      <trkpt lat="42.69098" lon="0.64039">
        <ele>2376.1</ele>
        <time>2021-06-25T11:56:26.000Z</time>
      </trkpt>
      <trkpt lat="42.69085" lon="0.64048">
        <ele>2377</ele>
        <time>2021-06-25T11:56:42.000Z</time>
      </trkpt>
      <trkpt lat="42.6908" lon="0.64052">
        <ele>2377.1</ele>
        <time>2021-06-25T11:56:50.000Z</time>
      </trkpt>
      <trkpt lat="42.69078" lon="0.64052">
        <ele>2377.5</ele>
        <time>2021-06-25T11:56:56.000Z</time>
      </trkpt>
      <trkpt lat="42.69077" lon="0.64053">
        <ele>2374.2</ele>
        <time>2021-06-25T11:57:00.000Z</time>
      </trkpt>
      <trkpt lat="42.69077" lon="0.64053">
        <ele>2374.2</ele>
        <time>2021-06-25T11:57:01.000Z</time>
      </trkpt>
      <trkpt lat="42.69077" lon="0.64052">
        <ele>2374.6</ele>
        <time>2021-06-25T11:57:17.000Z</time>
      </trkpt>
      <trkpt lat="42.69077" lon="0.64052">
        <ele>2375.1</ele>
        <time>2021-06-25T11:57:44.000Z</time>
      </trkpt>
      <trkpt lat="42.69076" lon="0.64052">
        <ele>2375.1</ele>
        <time>2021-06-25T11:57:50.000Z</time>
      </trkpt>
      <trkpt lat="42.69077" lon="0.64054">
        <ele>2376.5</ele>
        <time>2021-06-25T11:57:54.000Z</time>
      </trkpt>
      <trkpt lat="42.69077" lon="0.64053">
        <ele>2374.5</ele>
        <time>2021-06-25T11:58:03.000Z</time>
      </trkpt>
      <trkpt lat="42.69077" lon="0.64053">
        <ele>2377.4</ele>
        <time>2021-06-25T11:58:06.000Z</time>
      </trkpt>
      <trkpt lat="42.69077" lon="0.64052">
        <ele>2375.5</ele>
        <time>2021-06-25T11:58:10.000Z</time>
      </trkpt>
      <trkpt lat="42.69078" lon="0.64051">
        <ele>2380.4</ele>
        <time>2021-06-25T11:58:14.000Z</time>
      </trkpt>
      <trkpt lat="42.69078" lon="0.64051">
        <ele>2377</ele>
        <time>2021-06-25T11:58:15.000Z</time>
      </trkpt>
      <trkpt lat="42.69076" lon="0.64054">
        <ele>2375.1</ele>
        <time>2021-06-25T11:58:19.000Z</time>
      </trkpt>
      <trkpt lat="42.69068" lon="0.64058">
        <ele>2374.2</ele>
        <time>2021-06-25T11:58:33.000Z</time>
      </trkpt>
      <trkpt lat="42.69064" lon="0.64057">
        <ele>2374.5</ele>
        <time>2021-06-25T11:58:41.000Z</time>
      </trkpt>
      <trkpt lat="42.69065" lon="0.64056">
        <ele>2373.1</ele>
        <time>2021-06-25T11:58:43.000Z</time>
      </trkpt>
      <trkpt lat="42.69066" lon="0.64055">
        <ele>2373.2</ele>
        <time>2021-06-25T11:58:56.000Z</time>
      </trkpt>
      <trkpt lat="42.69065" lon="0.64056">
        <ele>2370.7</ele>
        <time>2021-06-25T11:59:01.000Z</time>
      </trkpt>
      <trkpt lat="42.69064" lon="0.64056">
        <ele>2373.1</ele>
        <time>2021-06-25T11:59:04.000Z</time>
      </trkpt>
      <trkpt lat="42.69064" lon="0.64054">
        <ele>2372.1</ele>
        <time>2021-06-25T11:59:11.000Z</time>
      </trkpt>
      <trkpt lat="42.69064" lon="0.64055">
        <ele>2373.6</ele>
        <time>2021-06-25T11:59:29.000Z</time>
      </trkpt>
      <trkpt lat="42.69058" lon="0.64051">
        <ele>2371.3</ele>
        <time>2021-06-25T11:59:45.000Z</time>
      </trkpt>
      <trkpt lat="42.69053" lon="0.64051">
        <ele>2369.4</ele>
        <time>2021-06-25T12:00:00.000Z</time>
      </trkpt>
      <trkpt lat="42.69052" lon="0.6405">
        <ele>2369.8</ele>
        <time>2021-06-25T12:00:02.000Z</time>
      </trkpt>
      <trkpt lat="42.69041" lon="0.64054">
        <ele>2365.9</ele>
        <time>2021-06-25T12:00:16.000Z</time>
      </trkpt>
      <trkpt lat="42.69037" lon="0.64057">
        <ele>2365.4</ele>
        <time>2021-06-25T12:00:20.000Z</time>
      </trkpt>
      <trkpt lat="42.69034" lon="0.64068">
        <ele>2363.5</ele>
        <time>2021-06-25T12:00:29.000Z</time>
      </trkpt>
      <trkpt lat="42.69032" lon="0.64079">
        <ele>2363.1</ele>
        <time>2021-06-25T12:00:36.000Z</time>
      </trkpt>
      <trkpt lat="42.69024" lon="0.64095">
        <ele>2361.1</ele>
        <time>2021-06-25T12:00:52.000Z</time>
      </trkpt>
      <trkpt lat="42.69021" lon="0.64098">
        <ele>2360.6</ele>
        <time>2021-06-25T12:00:55.000Z</time>
      </trkpt>
      <trkpt lat="42.6902" lon="0.64115">
        <ele>2362.2</ele>
        <time>2021-06-25T12:01:11.000Z</time>
      </trkpt>
      <trkpt lat="42.69017" lon="0.64123">
        <ele>2360.1</ele>
        <time>2021-06-25T12:01:20.000Z</time>
      </trkpt>
      <trkpt lat="42.69013" lon="0.64144">
        <ele>2356.8</ele>
        <time>2021-06-25T12:01:35.000Z</time>
      </trkpt>
      <trkpt lat="42.69013" lon="0.64163">
        <ele>2354.8</ele>
        <time>2021-06-25T12:01:53.000Z</time>
      </trkpt>
      <trkpt lat="42.69013" lon="0.64169">
        <ele>2354</ele>
        <time>2021-06-25T12:02:09.000Z</time>
      </trkpt>
      <trkpt lat="42.69014" lon="0.64181">
        <ele>2353.5</ele>
        <time>2021-06-25T12:02:27.000Z</time>
      </trkpt>
      <trkpt lat="42.69014" lon="0.64182">
        <ele>2353.4</ele>
        <time>2021-06-25T12:02:28.000Z</time>
      </trkpt>
      <trkpt lat="42.69015" lon="0.64188">
        <ele>2352.1</ele>
        <time>2021-06-25T12:02:43.000Z</time>
      </trkpt>
      <trkpt lat="42.69015" lon="0.64194">
        <ele>2351.1</ele>
        <time>2021-06-25T12:02:56.000Z</time>
      </trkpt>
      <trkpt lat="42.69012" lon="0.64205">
        <ele>2348.6</ele>
        <time>2021-06-25T12:03:12.000Z</time>
      </trkpt>
      <trkpt lat="42.69012" lon="0.64211">
        <ele>2347.2</ele>
        <time>2021-06-25T12:03:19.000Z</time>
      </trkpt>
      <trkpt lat="42.69009" lon="0.64217">
        <ele>2345.7</ele>
        <time>2021-06-25T12:03:24.000Z</time>
      </trkpt>
      <trkpt lat="42.69005" lon="0.64217">
        <ele>2345.3</ele>
        <time>2021-06-25T12:03:28.000Z</time>
      </trkpt>
      <trkpt lat="42.68998" lon="0.64235">
        <ele>2342.8</ele>
        <time>2021-06-25T12:03:45.000Z</time>
      </trkpt>
      <trkpt lat="42.68994" lon="0.64243">
        <ele>2341.4</ele>
        <time>2021-06-25T12:03:55.000Z</time>
      </trkpt>
      <trkpt lat="42.68987" lon="0.64261">
        <ele>2339.5</ele>
        <time>2021-06-25T12:04:11.000Z</time>
      </trkpt>
      <trkpt lat="42.68979" lon="0.64262">
        <ele>2338.6</ele>
        <time>2021-06-25T12:04:20.000Z</time>
      </trkpt>
      <trkpt lat="42.68978" lon="0.64263">
        <ele>2338.1</ele>
        <time>2021-06-25T12:04:22.000Z</time>
      </trkpt>
      <trkpt lat="42.68968" lon="0.64268">
        <ele>2337.6</ele>
        <time>2021-06-25T12:04:32.000Z</time>
      </trkpt>
      <trkpt lat="42.68967" lon="0.64271">
        <ele>2336.7</ele>
        <time>2021-06-25T12:04:36.000Z</time>
      </trkpt>
      <trkpt lat="42.68963" lon="0.64278">
        <ele>2336.7</ele>
        <time>2021-06-25T12:04:43.000Z</time>
      </trkpt>
      <trkpt lat="42.68962" lon="0.64287">
        <ele>2335.6</ele>
        <time>2021-06-25T12:04:49.000Z</time>
      </trkpt>
      <trkpt lat="42.68951" lon="0.64293">
        <ele>2333.7</ele>
        <time>2021-06-25T12:05:01.000Z</time>
      </trkpt>
      <trkpt lat="42.68944" lon="0.64295">
        <ele>2331.9</ele>
        <time>2021-06-25T12:05:14.000Z</time>
      </trkpt>
      <trkpt lat="42.6894" lon="0.64304">
        <ele>2329.8</ele>
        <time>2021-06-25T12:05:28.000Z</time>
      </trkpt>
      <trkpt lat="42.68939" lon="0.64316">
        <ele>2328.9</ele>
        <time>2021-06-25T12:05:40.000Z</time>
      </trkpt>
      <trkpt lat="42.6893" lon="0.64325">
        <ele>2327.4</ele>
        <time>2021-06-25T12:05:53.000Z</time>
      </trkpt>
      <trkpt lat="42.68922" lon="0.64322">
        <ele>2324.1</ele>
        <time>2021-06-25T12:06:08.000Z</time>
      </trkpt>
      <trkpt lat="42.68913" lon="0.64313">
        <ele>2321.3</ele>
        <time>2021-06-25T12:06:21.000Z</time>
      </trkpt>
      <trkpt lat="42.68907" lon="0.64308">
        <ele>2319.9</ele>
        <time>2021-06-25T12:06:28.000Z</time>
      </trkpt>
      <trkpt lat="42.68892" lon="0.64307">
        <ele>2316.5</ele>
        <time>2021-06-25T12:06:49.000Z</time>
      </trkpt>
      <trkpt lat="42.68892" lon="0.64321">
        <ele>2314.9</ele>
        <time>2021-06-25T12:06:59.000Z</time>
      </trkpt>
      <trkpt lat="42.68888" lon="0.64344">
        <ele>2314.1</ele>
        <time>2021-06-25T12:07:19.000Z</time>
      </trkpt>
      <trkpt lat="42.68889" lon="0.64344">
        <ele>2313.1</ele>
        <time>2021-06-25T12:07:21.000Z</time>
      </trkpt>
      <trkpt lat="42.68897" lon="0.64357">
        <ele>2310.6</ele>
        <time>2021-06-25T12:07:39.000Z</time>
      </trkpt>
      <trkpt lat="42.68898" lon="0.64371">
        <ele>2307.8</ele>
        <time>2021-06-25T12:07:58.000Z</time>
      </trkpt>
      <trkpt lat="42.68896" lon="0.64386">
        <ele>2305.3</ele>
        <time>2021-06-25T12:08:16.000Z</time>
      </trkpt>
      <trkpt lat="42.68885" lon="0.64387">
        <ele>2302.9</ele>
        <time>2021-06-25T12:08:29.000Z</time>
      </trkpt>
      <trkpt lat="42.6888" lon="0.64389">
        <ele>2302.4</ele>
        <time>2021-06-25T12:08:36.000Z</time>
      </trkpt>
      <trkpt lat="42.68874" lon="0.64399">
        <ele>2300</ele>
        <time>2021-06-25T12:08:53.000Z</time>
      </trkpt>
      <trkpt lat="42.68875" lon="0.64403">
        <ele>2299.6</ele>
        <time>2021-06-25T12:09:07.000Z</time>
      </trkpt>
      <trkpt lat="42.68874" lon="0.64402">
        <ele>2301.1</ele>
        <time>2021-06-25T12:09:28.000Z</time>
      </trkpt>
      <trkpt lat="42.68869" lon="0.64399">
        <ele>2299.1</ele>
        <time>2021-06-25T12:09:43.000Z</time>
      </trkpt>
      <trkpt lat="42.68867" lon="0.64405">
        <ele>2296.7</ele>
        <time>2021-06-25T12:09:58.000Z</time>
      </trkpt>
      <trkpt lat="42.6887" lon="0.6441">
        <ele>2294.9</ele>
        <time>2021-06-25T12:10:11.000Z</time>
      </trkpt>
      <trkpt lat="42.68877" lon="0.64414">
        <ele>2292.9</ele>
        <time>2021-06-25T12:10:21.000Z</time>
      </trkpt>
      <trkpt lat="42.68869" lon="0.6442">
        <ele>2291.4</ele>
        <time>2021-06-25T12:10:35.000Z</time>
      </trkpt>
      <trkpt lat="42.68858" lon="0.64431">
        <ele>2288.5</ele>
        <time>2021-06-25T12:10:57.000Z</time>
      </trkpt>
      <trkpt lat="42.68853" lon="0.64437">
        <ele>2285.1</ele>
        <time>2021-06-25T12:11:11.000Z</time>
      </trkpt>
      <trkpt lat="42.68852" lon="0.64438">
        <ele>2285.1</ele>
        <time>2021-06-25T12:11:12.000Z</time>
      </trkpt>
      <trkpt lat="42.6884" lon="0.64456">
        <ele>2282.7</ele>
        <time>2021-06-25T12:11:32.000Z</time>
      </trkpt>
      <trkpt lat="42.68832" lon="0.64457">
        <ele>2280.9</ele>
        <time>2021-06-25T12:11:47.000Z</time>
      </trkpt>
      <trkpt lat="42.68826" lon="0.6446">
        <ele>2278.5</ele>
        <time>2021-06-25T12:12:00.000Z</time>
      </trkpt>
      <trkpt lat="42.68818" lon="0.64463">
        <ele>2276.6</ele>
        <time>2021-06-25T12:12:15.000Z</time>
      </trkpt>
      <trkpt lat="42.68807" lon="0.64469">
        <ele>2273.6</ele>
        <time>2021-06-25T12:12:32.000Z</time>
      </trkpt>
      <trkpt lat="42.68809" lon="0.64481">
        <ele>2271.3</ele>
        <time>2021-06-25T12:12:47.000Z</time>
      </trkpt>
      <trkpt lat="42.68814" lon="0.64487">
        <ele>2269.4</ele>
        <time>2021-06-25T12:12:56.000Z</time>
      </trkpt>
      <trkpt lat="42.6882" lon="0.64502">
        <ele>2268.3</ele>
        <time>2021-06-25T12:13:11.000Z</time>
      </trkpt>
      <trkpt lat="42.68825" lon="0.64523">
        <ele>2265.4</ele>
        <time>2021-06-25T12:13:31.000Z</time>
      </trkpt>
      <trkpt lat="42.68827" lon="0.6454">
        <ele>2262.7</ele>
        <time>2021-06-25T12:13:47.000Z</time>
      </trkpt>
      <trkpt lat="42.68828" lon="0.64564">
        <ele>2260.7</ele>
        <time>2021-06-25T12:14:04.000Z</time>
      </trkpt>
      <trkpt lat="42.68828" lon="0.64583">
        <ele>2259.2</ele>
        <time>2021-06-25T12:14:22.000Z</time>
      </trkpt>
      <trkpt lat="42.68824" lon="0.64598">
        <ele>2257.7</ele>
        <time>2021-06-25T12:14:36.000Z</time>
      </trkpt>
      <trkpt lat="42.68821" lon="0.64608">
        <ele>2254.5</ele>
        <time>2021-06-25T12:14:47.000Z</time>
      </trkpt>
      <trkpt lat="42.68811" lon="0.64626">
        <ele>2254.5</ele>
        <time>2021-06-25T12:15:06.000Z</time>
      </trkpt>
      <trkpt lat="42.68808" lon="0.64632">
        <ele>2254</ele>
        <time>2021-06-25T12:15:11.000Z</time>
      </trkpt>
      <trkpt lat="42.68805" lon="0.64642">
        <ele>2253.5</ele>
        <time>2021-06-25T12:15:19.000Z</time>
      </trkpt>
      <trkpt lat="42.68797" lon="0.64659">
        <ele>2252.9</ele>
        <time>2021-06-25T12:15:38.000Z</time>
      </trkpt>
      <trkpt lat="42.68788" lon="0.64678">
        <ele>2254.5</ele>
        <time>2021-06-25T12:15:55.000Z</time>
      </trkpt>
      <trkpt lat="42.68781" lon="0.64688">
        <ele>2253.4</ele>
        <time>2021-06-25T12:16:09.000Z</time>
      </trkpt>
      <trkpt lat="42.68776" lon="0.64709">
        <ele>2252.1</ele>
        <time>2021-06-25T12:16:27.000Z</time>
      </trkpt>
      <trkpt lat="42.68775" lon="0.64721">
        <ele>2252.6</ele>
        <time>2021-06-25T12:16:40.000Z</time>
      </trkpt>
      <trkpt lat="42.68776" lon="0.64723">
        <ele>2250.5</ele>
        <time>2021-06-25T12:16:42.000Z</time>
      </trkpt>
      <trkpt lat="42.68776" lon="0.64728">
        <ele>2250.5</ele>
        <time>2021-06-25T12:16:46.000Z</time>
      </trkpt>
      <trkpt lat="42.68775" lon="0.64741">
        <ele>2250.1</ele>
        <time>2021-06-25T12:16:55.000Z</time>
      </trkpt>
      <trkpt lat="42.68773" lon="0.64752">
        <ele>2249.7</ele>
        <time>2021-06-25T12:17:04.000Z</time>
      </trkpt>
      <trkpt lat="42.68769" lon="0.64776">
        <ele>2250.6</ele>
        <time>2021-06-25T12:17:23.000Z</time>
      </trkpt>
      <trkpt lat="42.68768" lon="0.64785">
        <ele>2251.1</ele>
        <time>2021-06-25T12:17:31.000Z</time>
      </trkpt>
      <trkpt lat="42.68766" lon="0.64789">
        <ele>2251</ele>
        <time>2021-06-25T12:17:34.000Z</time>
      </trkpt>
      <trkpt lat="42.68765" lon="0.64792">
        <ele>2249.7</ele>
        <time>2021-06-25T12:17:37.000Z</time>
      </trkpt>
      <trkpt lat="42.68762" lon="0.64802">
        <ele>2251.6</ele>
        <time>2021-06-25T12:17:48.000Z</time>
      </trkpt>
      <trkpt lat="42.68756" lon="0.64813">
        <ele>2252</ele>
        <time>2021-06-25T12:18:02.000Z</time>
      </trkpt>
      <trkpt lat="42.68752" lon="0.64822">
        <ele>2253.5</ele>
        <time>2021-06-25T12:18:12.000Z</time>
      </trkpt>
      <trkpt lat="42.6875" lon="0.64827">
        <ele>2253</ele>
        <time>2021-06-25T12:18:17.000Z</time>
      </trkpt>
      <trkpt lat="42.68742" lon="0.6484">
        <ele>2254.9</ele>
        <time>2021-06-25T12:18:33.000Z</time>
      </trkpt>
      <trkpt lat="42.6874" lon="0.64843">
        <ele>2253.4</ele>
        <time>2021-06-25T12:18:37.000Z</time>
      </trkpt>
      <trkpt lat="42.68733" lon="0.64859">
        <ele>2255.3</ele>
        <time>2021-06-25T12:18:54.000Z</time>
      </trkpt>
      <trkpt lat="42.68731" lon="0.64869">
        <ele>2254.4</ele>
        <time>2021-06-25T12:19:04.000Z</time>
      </trkpt>
      <trkpt lat="42.6873" lon="0.64886">
        <ele>2256.8</ele>
        <time>2021-06-25T12:19:20.000Z</time>
      </trkpt>
      <trkpt lat="42.6873" lon="0.64892">
        <ele>2257.4</ele>
        <time>2021-06-25T12:19:25.000Z</time>
      </trkpt>
      <trkpt lat="42.6873" lon="0.64897">
        <ele>2255.9</ele>
        <time>2021-06-25T12:19:29.000Z</time>
      </trkpt>
      <trkpt lat="42.68723" lon="0.64913">
        <ele>2258.8</ele>
        <time>2021-06-25T12:19:47.000Z</time>
      </trkpt>
      <trkpt lat="42.6872" lon="0.64918">
        <ele>2258.8</ele>
        <time>2021-06-25T12:19:53.000Z</time>
      </trkpt>
      <trkpt lat="42.68714" lon="0.64924">
        <ele>2258.3</ele>
        <time>2021-06-25T12:20:03.000Z</time>
      </trkpt>
      <trkpt lat="42.68712" lon="0.64927">
        <ele>2259.3</ele>
        <time>2021-06-25T12:20:07.000Z</time>
      </trkpt>
      <trkpt lat="42.68706" lon="0.64939">
        <ele>2260.6</ele>
        <time>2021-06-25T12:20:23.000Z</time>
      </trkpt>
      <trkpt lat="42.68705" lon="0.64939">
        <ele>2259.7</ele>
        <time>2021-06-25T12:20:41.000Z</time>
      </trkpt>
      <trkpt lat="42.68704" lon="0.64939">
        <ele>2260.6</ele>
        <time>2021-06-25T12:21:06.000Z</time>
      </trkpt>
      <trkpt lat="42.68703" lon="0.64941">
        <ele>2261.6</ele>
        <time>2021-06-25T12:21:37.000Z</time>
      </trkpt>
      <trkpt lat="42.68696" lon="0.64948">
        <ele>2262.2</ele>
        <time>2021-06-25T12:21:47.000Z</time>
      </trkpt>
      <trkpt lat="42.68693" lon="0.64951">
        <ele>2260.3</ele>
        <time>2021-06-25T12:21:51.000Z</time>
      </trkpt>
      <trkpt lat="42.68688" lon="0.64959">
        <ele>2261.6</ele>
        <time>2021-06-25T12:22:00.000Z</time>
      </trkpt>
      <trkpt lat="42.68685" lon="0.64966">
        <ele>2261.7</ele>
        <time>2021-06-25T12:22:05.000Z</time>
      </trkpt>
      <trkpt lat="42.68674" lon="0.64982">
        <ele>2263.1</ele>
        <time>2021-06-25T12:22:20.000Z</time>
      </trkpt>
      <trkpt lat="42.68673" lon="0.64982">
        <ele>2261.2</ele>
        <time>2021-06-25T12:22:22.000Z</time>
      </trkpt>
      <trkpt lat="42.68673" lon="0.64983">
        <ele>2262.6</ele>
        <time>2021-06-25T12:22:37.000Z</time>
      </trkpt>
      <trkpt lat="42.68671" lon="0.64992">
        <ele>2262.6</ele>
        <time>2021-06-25T12:22:58.000Z</time>
      </trkpt>
      <trkpt lat="42.68673" lon="0.64997">
        <ele>2262.6</ele>
        <time>2021-06-25T12:23:02.000Z</time>
      </trkpt>
      <trkpt lat="42.68671" lon="0.65015">
        <ele>2262.7</ele>
        <time>2021-06-25T12:23:17.000Z</time>
      </trkpt>
      <trkpt lat="42.6867" lon="0.65032">
        <ele>2264</ele>
        <time>2021-06-25T12:23:31.000Z</time>
      </trkpt>
      <trkpt lat="42.6867" lon="0.65033">
        <ele>2264</ele>
        <time>2021-06-25T12:23:33.000Z</time>
      </trkpt>
      <trkpt lat="42.68669" lon="0.65037">
        <ele>2264</ele>
        <time>2021-06-25T12:23:36.000Z</time>
      </trkpt>
      <trkpt lat="42.68666" lon="0.65057">
        <ele>2264.6</ele>
        <time>2021-06-25T12:23:52.000Z</time>
      </trkpt>
      <trkpt lat="42.68661" lon="0.65074">
        <ele>2265.1</ele>
        <time>2021-06-25T12:24:11.000Z</time>
      </trkpt>
      <trkpt lat="42.68654" lon="0.65083">
        <ele>2262.7</ele>
        <time>2021-06-25T12:24:26.000Z</time>
      </trkpt>
      <trkpt lat="42.68649" lon="0.65092">
        <ele>2259.2</ele>
        <time>2021-06-25T12:24:38.000Z</time>
      </trkpt>
      <trkpt lat="42.68646" lon="0.651">
        <ele>2258.3</ele>
        <time>2021-06-25T12:24:46.000Z</time>
      </trkpt>
      <trkpt lat="42.68641" lon="0.65116">
        <ele>2256.9</ele>
        <time>2021-06-25T12:25:04.000Z</time>
      </trkpt>
      <trkpt lat="42.68635" lon="0.65133">
        <ele>2255</ele>
        <time>2021-06-25T12:25:22.000Z</time>
      </trkpt>
      <trkpt lat="42.68632" lon="0.65144">
        <ele>2252.6</ele>
        <time>2021-06-25T12:25:34.000Z</time>
      </trkpt>
      <trkpt lat="42.68631" lon="0.65149">
        <ele>2253.4</ele>
        <time>2021-06-25T12:25:39.000Z</time>
      </trkpt>
      <trkpt lat="42.68629" lon="0.65155">
        <ele>2252</ele>
        <time>2021-06-25T12:25:44.000Z</time>
      </trkpt>
      <trkpt lat="42.68628" lon="0.65172">
        <ele>2250.5</ele>
        <time>2021-06-25T12:25:59.000Z</time>
      </trkpt>
      <trkpt lat="42.68622" lon="0.65194">
        <ele>2248.7</ele>
        <time>2021-06-25T12:26:19.000Z</time>
      </trkpt>
      <trkpt lat="42.68618" lon="0.65211">
        <ele>2245.7</ele>
        <time>2021-06-25T12:26:36.000Z</time>
      </trkpt>
      <trkpt lat="42.6862" lon="0.65225">
        <ele>2242.8</ele>
        <time>2021-06-25T12:26:50.000Z</time>
      </trkpt>
      <trkpt lat="42.68616" lon="0.65227">
        <ele>2244.3</ele>
        <time>2021-06-25T12:26:56.000Z</time>
      </trkpt>
      <trkpt lat="42.68614" lon="0.65223">
        <ele>2242.5</ele>
        <time>2021-06-25T12:27:00.000Z</time>
      </trkpt>
      <trkpt lat="42.68612" lon="0.65222">
        <ele>2243.8</ele>
        <time>2021-06-25T12:27:03.000Z</time>
      </trkpt>
      <trkpt lat="42.6861" lon="0.65223">
        <ele>2242.5</ele>
        <time>2021-06-25T12:27:08.000Z</time>
      </trkpt>
      <trkpt lat="42.68604" lon="0.65239">
        <ele>2240.4</ele>
        <time>2021-06-25T12:27:23.000Z</time>
      </trkpt>
      <trkpt lat="42.68597" lon="0.65252">
        <ele>2239</ele>
        <time>2021-06-25T12:27:36.000Z</time>
      </trkpt>
      <trkpt lat="42.68594" lon="0.65261">
        <ele>2237.6</ele>
        <time>2021-06-25T12:27:43.000Z</time>
      </trkpt>
      <trkpt lat="42.68589" lon="0.65277">
        <ele>2237.6</ele>
        <time>2021-06-25T12:27:59.000Z</time>
      </trkpt>
      <trkpt lat="42.68583" lon="0.65294">
        <ele>2235.2</ele>
        <time>2021-06-25T12:28:18.000Z</time>
      </trkpt>
      <trkpt lat="42.68578" lon="0.65314">
        <ele>2233.3</ele>
        <time>2021-06-25T12:28:35.000Z</time>
      </trkpt>
      <trkpt lat="42.68573" lon="0.65327">
        <ele>2232.4</ele>
        <time>2021-06-25T12:28:51.000Z</time>
      </trkpt>
      <trkpt lat="42.68571" lon="0.65312">
        <ele>2230</ele>
        <time>2021-06-25T12:29:05.000Z</time>
      </trkpt>
      <trkpt lat="42.6857" lon="0.65294">
        <ele>2228</ele>
        <time>2021-06-25T12:29:21.000Z</time>
      </trkpt>
      <trkpt lat="42.68568" lon="0.65285">
        <ele>2227</ele>
        <time>2021-06-25T12:29:29.000Z</time>
      </trkpt>
      <trkpt lat="42.68567" lon="0.65269">
        <ele>2226.1</ele>
        <time>2021-06-25T12:29:47.000Z</time>
      </trkpt>
      <trkpt lat="42.68567" lon="0.6527">
        <ele>2224.2</ele>
        <time>2021-06-25T12:29:49.000Z</time>
      </trkpt>
      <trkpt lat="42.68567" lon="0.6527">
        <ele>2226</ele>
        <time>2021-06-25T12:29:51.000Z</time>
      </trkpt>
      <trkpt lat="42.68567" lon="0.65268">
        <ele>2225.2</ele>
        <time>2021-06-25T12:29:56.000Z</time>
      </trkpt>
      <trkpt lat="42.68568" lon="0.65241">
        <ele>2222.7</ele>
        <time>2021-06-25T12:30:16.000Z</time>
      </trkpt>
      <trkpt lat="42.68568" lon="0.65232">
        <ele>2223.1</ele>
        <time>2021-06-25T12:30:24.000Z</time>
      </trkpt>
      <trkpt lat="42.68568" lon="0.65222">
        <ele>2218.8</ele>
        <time>2021-06-25T12:30:35.000Z</time>
      </trkpt>
      <trkpt lat="42.68571" lon="0.65211">
        <ele>2219.3</ele>
        <time>2021-06-25T12:30:47.000Z</time>
      </trkpt>
      <trkpt lat="42.68576" lon="0.65202">
        <ele>2217.4</ele>
        <time>2021-06-25T12:30:58.000Z</time>
      </trkpt>
      <trkpt lat="42.68575" lon="0.65194">
        <ele>2214.5</ele>
        <time>2021-06-25T12:31:13.000Z</time>
      </trkpt>
      <trkpt lat="42.68575" lon="0.65194">
        <ele>2214.6</ele>
        <time>2021-06-25T12:31:14.000Z</time>
      </trkpt>
      <trkpt lat="42.68573" lon="0.65194">
        <ele>2214.5</ele>
        <time>2021-06-25T12:31:19.000Z</time>
      </trkpt>
      <trkpt lat="42.68573" lon="0.65187">
        <ele>2214.1</ele>
        <time>2021-06-25T12:31:29.000Z</time>
      </trkpt>
      <trkpt lat="42.68574" lon="0.65182">
        <ele>2211.7</ele>
        <time>2021-06-25T12:31:35.000Z</time>
      </trkpt>
      <trkpt lat="42.68571" lon="0.65176">
        <ele>2209.2</ele>
        <time>2021-06-25T12:31:46.000Z</time>
      </trkpt>
      <trkpt lat="42.68568" lon="0.65177">
        <ele>2206.9</ele>
        <time>2021-06-25T12:31:52.000Z</time>
      </trkpt>
      <trkpt lat="42.68563" lon="0.65182">
        <ele>2203</ele>
        <time>2021-06-25T12:31:59.000Z</time>
      </trkpt>
      <trkpt lat="42.68563" lon="0.65181">
        <ele>2206.3</ele>
        <time>2021-06-25T12:32:00.000Z</time>
      </trkpt>
      <trkpt lat="42.68559" lon="0.65182">
        <ele>2204.4</ele>
        <time>2021-06-25T12:32:04.000Z</time>
      </trkpt>
      <trkpt lat="42.68558" lon="0.65185">
        <ele>2203.1</ele>
        <time>2021-06-25T12:32:11.000Z</time>
      </trkpt>
      <trkpt lat="42.68556" lon="0.6519">
        <ele>2203.4</ele>
        <time>2021-06-25T12:32:18.000Z</time>
      </trkpt>
      <trkpt lat="42.68556" lon="0.65192">
        <ele>2201.6</ele>
        <time>2021-06-25T12:32:20.000Z</time>
      </trkpt>
      <trkpt lat="42.68549" lon="0.652">
        <ele>2197.8</ele>
        <time>2021-06-25T12:32:35.000Z</time>
      </trkpt>
      <trkpt lat="42.68546" lon="0.65202">
        <ele>2197.3</ele>
        <time>2021-06-25T12:32:40.000Z</time>
      </trkpt>
      <trkpt lat="42.68543" lon="0.65206">
        <ele>2193.8</ele>
        <time>2021-06-25T12:32:48.000Z</time>
      </trkpt>
      <trkpt lat="42.68539" lon="0.65217">
        <ele>2194.3</ele>
        <time>2021-06-25T12:32:55.000Z</time>
      </trkpt>
      <trkpt lat="42.68539" lon="0.65219">
        <ele>2192.9</ele>
        <time>2021-06-25T12:32:57.000Z</time>
      </trkpt>
      <trkpt lat="42.68539" lon="0.65222">
        <ele>2194.3</ele>
        <time>2021-06-25T12:33:00.000Z</time>
      </trkpt>
      <trkpt lat="42.68539" lon="0.65224">
        <ele>2191.9</ele>
        <time>2021-06-25T12:33:02.000Z</time>
      </trkpt>
      <trkpt lat="42.68538" lon="0.65226">
        <ele>2193.3</ele>
        <time>2021-06-25T12:33:04.000Z</time>
      </trkpt>
      <trkpt lat="42.68534" lon="0.65231">
        <ele>2190.9</ele>
        <time>2021-06-25T12:33:10.000Z</time>
      </trkpt>
      <trkpt lat="42.68529" lon="0.65239">
        <ele>2190.9</ele>
        <time>2021-06-25T12:33:21.000Z</time>
      </trkpt>
      <trkpt lat="42.68522" lon="0.65251">
        <ele>2187.6</ele>
        <time>2021-06-25T12:33:31.000Z</time>
      </trkpt>
      <trkpt lat="42.68519" lon="0.65255">
        <ele>2184.3</ele>
        <time>2021-06-25T12:33:35.000Z</time>
      </trkpt>
      <trkpt lat="42.68518" lon="0.65256">
        <ele>2187.6</ele>
        <time>2021-06-25T12:33:37.000Z</time>
      </trkpt>
      <trkpt lat="42.68519" lon="0.65256">
        <ele>2184.3</ele>
        <time>2021-06-25T12:33:40.000Z</time>
      </trkpt>
      <trkpt lat="42.68519" lon="0.65257">
        <ele>2187.7</ele>
        <time>2021-06-25T12:33:44.000Z</time>
      </trkpt>
      <trkpt lat="42.68518" lon="0.65257">
        <ele>2183.3</ele>
        <time>2021-06-25T12:33:45.000Z</time>
      </trkpt>
      <trkpt lat="42.68517" lon="0.65256">
        <ele>2184.3</ele>
        <time>2021-06-25T12:33:49.000Z</time>
      </trkpt>
      <trkpt lat="42.68517" lon="0.65255">
        <ele>2185.3</ele>
        <time>2021-06-25T12:33:51.000Z</time>
      </trkpt>
      <trkpt lat="42.68517" lon="0.65245">
        <ele>2180</ele>
        <time>2021-06-25T12:33:59.000Z</time>
      </trkpt>
      <trkpt lat="42.68517" lon="0.65244">
        <ele>2183.2</ele>
        <time>2021-06-25T12:34:00.000Z</time>
      </trkpt>
      <trkpt lat="42.68517" lon="0.65243">
        <ele>2180.4</ele>
        <time>2021-06-25T12:34:01.000Z</time>
      </trkpt>
      <trkpt lat="42.68518" lon="0.65242">
        <ele>2185.2</ele>
        <time>2021-06-25T12:34:02.000Z</time>
      </trkpt>
      <trkpt lat="42.68518" lon="0.6524">
        <ele>2179.4</ele>
        <time>2021-06-25T12:34:04.000Z</time>
      </trkpt>
      <trkpt lat="42.68519" lon="0.65238">
        <ele>2181.9</ele>
        <time>2021-06-25T12:34:05.000Z</time>
      </trkpt>
      <trkpt lat="42.6852" lon="0.65236">
        <ele>2182.4</ele>
        <time>2021-06-25T12:34:07.000Z</time>
      </trkpt>
      <trkpt lat="42.68521" lon="0.65229">
        <ele>2180.5</ele>
        <time>2021-06-25T12:34:12.000Z</time>
      </trkpt>
      <trkpt lat="42.68521" lon="0.65223">
        <ele>2177</ele>
        <time>2021-06-25T12:34:25.000Z</time>
      </trkpt>
      <trkpt lat="42.68521" lon="0.65223">
        <ele>2173.7</ele>
        <time>2021-06-25T12:34:26.000Z</time>
      </trkpt>
      <trkpt lat="42.6852" lon="0.65222">
        <ele>2186.1</ele>
        <time>2021-06-25T12:34:27.000Z</time>
      </trkpt>
      <trkpt lat="42.6852" lon="0.65221">
        <ele>2184.3</ele>
        <time>2021-06-25T12:34:28.000Z</time>
      </trkpt>
      <trkpt lat="42.68519" lon="0.65221">
        <ele>2182.4</ele>
        <time>2021-06-25T12:34:31.000Z</time>
      </trkpt>
      <trkpt lat="42.68519" lon="0.65219">
        <ele>2178.4</ele>
        <time>2021-06-25T12:34:36.000Z</time>
      </trkpt>
      <trkpt lat="42.68519" lon="0.65218">
        <ele>2181.8</ele>
        <time>2021-06-25T12:34:37.000Z</time>
      </trkpt>
      <trkpt lat="42.68519" lon="0.65216">
        <ele>2179.5</ele>
        <time>2021-06-25T12:34:42.000Z</time>
      </trkpt>
      <trkpt lat="42.68522" lon="0.65198">
        <ele>2180</ele>
        <time>2021-06-25T12:34:55.000Z</time>
      </trkpt>
      <trkpt lat="42.68521" lon="0.65195">
        <ele>2178</ele>
        <time>2021-06-25T12:34:58.000Z</time>
      </trkpt>
      <trkpt lat="42.6852" lon="0.65182">
        <ele>2178</ele>
        <time>2021-06-25T12:35:09.000Z</time>
      </trkpt>
      <trkpt lat="42.6852" lon="0.65175">
        <ele>2173.7</ele>
        <time>2021-06-25T12:35:16.000Z</time>
      </trkpt>
      <trkpt lat="42.68519" lon="0.65174">
        <ele>2176.5</ele>
        <time>2021-06-25T12:35:17.000Z</time>
      </trkpt>
      <trkpt lat="42.6852" lon="0.65172">
        <ele>2174.2</ele>
        <time>2021-06-25T12:35:20.000Z</time>
      </trkpt>
      <trkpt lat="42.68516" lon="0.65167">
        <ele>2172.2</ele>
        <time>2021-06-25T12:35:31.000Z</time>
      </trkpt>
      <trkpt lat="42.68503" lon="0.65184">
        <ele>2167.9</ele>
        <time>2021-06-25T12:35:46.000Z</time>
      </trkpt>
      <trkpt lat="42.68503" lon="0.65184">
        <ele>2168</ele>
        <time>2021-06-25T12:35:47.000Z</time>
      </trkpt>
      <trkpt lat="42.685" lon="0.65191">
        <ele>2167.9</ele>
        <time>2021-06-25T12:35:53.000Z</time>
      </trkpt>
      <trkpt lat="42.68494" lon="0.65203">
        <ele>2164.5</ele>
        <time>2021-06-25T12:36:04.000Z</time>
      </trkpt>
      <trkpt lat="42.68494" lon="0.65204">
        <ele>2164.6</ele>
        <time>2021-06-25T12:36:05.000Z</time>
      </trkpt>
      <trkpt lat="42.68493" lon="0.65215">
        <ele>2163.2</ele>
        <time>2021-06-25T12:36:14.000Z</time>
      </trkpt>
      <trkpt lat="42.68492" lon="0.65221">
        <ele>2159.2</ele>
        <time>2021-06-25T12:36:19.000Z</time>
      </trkpt>
      <trkpt lat="42.68492" lon="0.65223">
        <ele>2163.6</ele>
        <time>2021-06-25T12:36:20.000Z</time>
      </trkpt>
      <trkpt lat="42.68492" lon="0.65225">
        <ele>2160.3</ele>
        <time>2021-06-25T12:36:23.000Z</time>
      </trkpt>
      <trkpt lat="42.68492" lon="0.65226">
        <ele>2164</ele>
        <time>2021-06-25T12:36:24.000Z</time>
      </trkpt>
      <trkpt lat="42.6849" lon="0.65232">
        <ele>2159.3</ele>
        <time>2021-06-25T12:36:31.000Z</time>
      </trkpt>
      <trkpt lat="42.6849" lon="0.65236">
        <ele>2155.5</ele>
        <time>2021-06-25T12:36:34.000Z</time>
      </trkpt>
      <trkpt lat="42.6849" lon="0.65237">
        <ele>2167</ele>
        <time>2021-06-25T12:36:35.000Z</time>
      </trkpt>
      <trkpt lat="42.68489" lon="0.65237">
        <ele>2163.1</ele>
        <time>2021-06-25T12:36:36.000Z</time>
      </trkpt>
      <trkpt lat="42.68484" lon="0.65241">
        <ele>2160.2</ele>
        <time>2021-06-25T12:36:51.000Z</time>
      </trkpt>
      <trkpt lat="42.68478" lon="0.65241">
        <ele>2159.2</ele>
        <time>2021-06-25T12:37:01.000Z</time>
      </trkpt>
      <trkpt lat="42.68477" lon="0.65232">
        <ele>2156.8</ele>
        <time>2021-06-25T12:37:07.000Z</time>
      </trkpt>
      <trkpt lat="42.68478" lon="0.65212">
        <ele>2153.4</ele>
        <time>2021-06-25T12:37:23.000Z</time>
      </trkpt>
      <trkpt lat="42.68473" lon="0.65193">
        <ele>2150.2</ele>
        <time>2021-06-25T12:37:39.000Z</time>
      </trkpt>
      <trkpt lat="42.68473" lon="0.65182">
        <ele>2147.2</ele>
        <time>2021-06-25T12:37:49.000Z</time>
      </trkpt>
      <trkpt lat="42.6847" lon="0.65175">
        <ele>2145.9</ele>
        <time>2021-06-25T12:38:01.000Z</time>
      </trkpt>
      <trkpt lat="42.68465" lon="0.65171">
        <ele>2142.9</ele>
        <time>2021-06-25T12:38:12.000Z</time>
      </trkpt>
      <trkpt lat="42.68462" lon="0.65162">
        <ele>2141</ele>
        <time>2021-06-25T12:38:26.000Z</time>
      </trkpt>
      <trkpt lat="42.68458" lon="0.6517">
        <ele>2137.6</ele>
        <time>2021-06-25T12:38:42.000Z</time>
      </trkpt>
      <trkpt lat="42.68454" lon="0.65177">
        <ele>2135.3</ele>
        <time>2021-06-25T12:38:51.000Z</time>
      </trkpt>
      <trkpt lat="42.68449" lon="0.6519">
        <ele>2132.4</ele>
        <time>2021-06-25T12:39:04.000Z</time>
      </trkpt>
      <trkpt lat="42.6844" lon="0.65207">
        <ele>2130.9</ele>
        <time>2021-06-25T12:39:22.000Z</time>
      </trkpt>
      <trkpt lat="42.68434" lon="0.65217">
        <ele>2128</ele>
        <time>2021-06-25T12:39:34.000Z</time>
      </trkpt>
      <trkpt lat="42.68428" lon="0.65217">
        <ele>2126</ele>
        <time>2021-06-25T12:39:47.000Z</time>
      </trkpt>
      <trkpt lat="42.68427" lon="0.65197">
        <ele>2123.2</ele>
        <time>2021-06-25T12:40:02.000Z</time>
      </trkpt>
      <trkpt lat="42.68427" lon="0.65195">
        <ele>2122.8</ele>
        <time>2021-06-25T12:40:04.000Z</time>
      </trkpt>
      <trkpt lat="42.68426" lon="0.65179">
        <ele>2120.9</ele>
        <time>2021-06-25T12:40:18.000Z</time>
      </trkpt>
      <trkpt lat="42.68426" lon="0.65158">
        <ele>2117.4</ele>
        <time>2021-06-25T12:40:35.000Z</time>
      </trkpt>
      <trkpt lat="42.68426" lon="0.65157">
        <ele>2117.4</ele>
        <time>2021-06-25T12:40:36.000Z</time>
      </trkpt>
      <trkpt lat="42.68426" lon="0.65146">
        <ele>2114.1</ele>
        <time>2021-06-25T12:40:48.000Z</time>
      </trkpt>
      <trkpt lat="42.68426" lon="0.65145">
        <ele>2114.1</ele>
        <time>2021-06-25T12:40:49.000Z</time>
      </trkpt>
      <trkpt lat="42.68426" lon="0.65142">
        <ele>2115.5</ele>
        <time>2021-06-25T12:40:52.000Z</time>
      </trkpt>
      <trkpt lat="42.68425" lon="0.65139">
        <ele>2114</ele>
        <time>2021-06-25T12:40:56.000Z</time>
      </trkpt>
      <trkpt lat="42.6842" lon="0.65126">
        <ele>2111.1</ele>
        <time>2021-06-25T12:41:12.000Z</time>
      </trkpt>
      <trkpt lat="42.68419" lon="0.65117">
        <ele>2109.7</ele>
        <time>2021-06-25T12:41:20.000Z</time>
      </trkpt>
      <trkpt lat="42.68419" lon="0.65102">
        <ele>2109.2</ele>
        <time>2021-06-25T12:41:34.000Z</time>
      </trkpt>
      <trkpt lat="42.68418" lon="0.65101">
        <ele>2106.3</ele>
        <time>2021-06-25T12:41:35.000Z</time>
      </trkpt>
      <trkpt lat="42.68418" lon="0.65101">
        <ele>2106.4</ele>
        <time>2021-06-25T12:41:36.000Z</time>
      </trkpt>
      <trkpt lat="42.68418" lon="0.65099">
        <ele>2107.8</ele>
        <time>2021-06-25T12:41:38.000Z</time>
      </trkpt>
      <trkpt lat="42.68418" lon="0.65092">
        <ele>2106.4</ele>
        <time>2021-06-25T12:41:43.000Z</time>
      </trkpt>
      <trkpt lat="42.68422" lon="0.65085">
        <ele>2103.6</ele>
        <time>2021-06-25T12:42:00.000Z</time>
      </trkpt>
      <trkpt lat="42.68424" lon="0.6508">
        <ele>2103</ele>
        <time>2021-06-25T12:42:08.000Z</time>
      </trkpt>
      <trkpt lat="42.68425" lon="0.65073">
        <ele>2101.5</ele>
        <time>2021-06-25T12:42:16.000Z</time>
      </trkpt>
      <trkpt lat="42.68425" lon="0.65066">
        <ele>2099.7</ele>
        <time>2021-06-25T12:42:29.000Z</time>
      </trkpt>
      <trkpt lat="42.68418" lon="0.65077">
        <ele>2096.8</ele>
        <time>2021-06-25T12:42:45.000Z</time>
      </trkpt>
      <trkpt lat="42.68415" lon="0.6507">
        <ele>2094.8</ele>
        <time>2021-06-25T12:42:57.000Z</time>
      </trkpt>
      <trkpt lat="42.68416" lon="0.65066">
        <ele>2092.9</ele>
        <time>2021-06-25T12:43:01.000Z</time>
      </trkpt>
      <trkpt lat="42.68416" lon="0.65065">
        <ele>2093.9</ele>
        <time>2021-06-25T12:43:03.000Z</time>
      </trkpt>
      <trkpt lat="42.68419" lon="0.65059">
        <ele>2090.5</ele>
        <time>2021-06-25T12:43:10.000Z</time>
      </trkpt>
      <trkpt lat="42.68417" lon="0.65052">
        <ele>2090</ele>
        <time>2021-06-25T12:43:26.000Z</time>
      </trkpt>
      <trkpt lat="42.68407" lon="0.65059">
        <ele>2087.1</ele>
        <time>2021-06-25T12:43:40.000Z</time>
      </trkpt>
      <trkpt lat="42.68404" lon="0.65053">
        <ele>2085.3</ele>
        <time>2021-06-25T12:43:48.000Z</time>
      </trkpt>
      <trkpt lat="42.68411" lon="0.65044">
        <ele>2083.3</ele>
        <time>2021-06-25T12:44:03.000Z</time>
      </trkpt>
      <trkpt lat="42.68413" lon="0.65042">
        <ele>2081.9</ele>
        <time>2021-06-25T12:44:07.000Z</time>
      </trkpt>
      <trkpt lat="42.68416" lon="0.65039">
        <ele>2079.5</ele>
        <time>2021-06-25T12:44:12.000Z</time>
      </trkpt>
      <trkpt lat="42.68417" lon="0.65025">
        <ele>2078.5</ele>
        <time>2021-06-25T12:44:29.000Z</time>
      </trkpt>
      <trkpt lat="42.68407" lon="0.65028">
        <ele>2075.1</ele>
        <time>2021-06-25T12:44:41.000Z</time>
      </trkpt>
      <trkpt lat="42.68408" lon="0.65018">
        <ele>2072.2</ele>
        <time>2021-06-25T12:44:54.000Z</time>
      </trkpt>
      <trkpt lat="42.68409" lon="0.65013">
        <ele>2071.3</ele>
        <time>2021-06-25T12:44:58.000Z</time>
      </trkpt>
      <trkpt lat="42.68412" lon="0.65006">
        <ele>2069.8</ele>
        <time>2021-06-25T12:45:02.000Z</time>
      </trkpt>
      <trkpt lat="42.68414" lon="0.65">
        <ele>2068.5</ele>
        <time>2021-06-25T12:45:05.000Z</time>
      </trkpt>
      <trkpt lat="42.68417" lon="0.6499">
        <ele>2065.1</ele>
        <time>2021-06-25T12:45:12.000Z</time>
      </trkpt>
      <trkpt lat="42.68418" lon="0.64977">
        <ele>2064.1</ele>
        <time>2021-06-25T12:45:20.000Z</time>
      </trkpt>
      <trkpt lat="42.68416" lon="0.64961">
        <ele>2060.8</ele>
        <time>2021-06-25T12:45:32.000Z</time>
      </trkpt>
      <trkpt lat="42.68415" lon="0.64959">
        <ele>2060.8</ele>
        <time>2021-06-25T12:45:33.000Z</time>
      </trkpt>
      <trkpt lat="42.68416" lon="0.64942">
        <ele>2058.3</ele>
        <time>2021-06-25T12:45:46.000Z</time>
      </trkpt>
      <trkpt lat="42.68414" lon="0.64917">
        <ele>2055.5</ele>
        <time>2021-06-25T12:46:04.000Z</time>
      </trkpt>
      <trkpt lat="42.6841" lon="0.64897">
        <ele>2051.5</ele>
        <time>2021-06-25T12:46:15.000Z</time>
      </trkpt>
      <trkpt lat="42.68409" lon="0.64876">
        <ele>2048.3</ele>
        <time>2021-06-25T12:46:33.000Z</time>
      </trkpt>
      <trkpt lat="42.6841" lon="0.64874">
        <ele>2046.7</ele>
        <time>2021-06-25T12:46:35.000Z</time>
      </trkpt>
      <trkpt lat="42.68412" lon="0.64857">
        <ele>2047.2</ele>
        <time>2021-06-25T12:46:46.000Z</time>
      </trkpt>
      <trkpt lat="42.68413" lon="0.64846">
        <ele>2045.4</ele>
        <time>2021-06-25T12:46:55.000Z</time>
      </trkpt>
      <trkpt lat="42.68409" lon="0.64837">
        <ele>2043.5</ele>
        <time>2021-06-25T12:47:12.000Z</time>
      </trkpt>
      <trkpt lat="42.68397" lon="0.64862">
        <ele>2040.5</ele>
        <time>2021-06-25T12:47:31.000Z</time>
      </trkpt>
      <trkpt lat="42.68389" lon="0.64887">
        <ele>2037.6</ele>
        <time>2021-06-25T12:47:51.000Z</time>
      </trkpt>
      <trkpt lat="42.68382" lon="0.64901">
        <ele>2034.8</ele>
        <time>2021-06-25T12:48:06.000Z</time>
      </trkpt>
      <trkpt lat="42.68375" lon="0.64925">
        <ele>2032.9</ele>
        <time>2021-06-25T12:48:24.000Z</time>
      </trkpt>
      <trkpt lat="42.68368" lon="0.64945">
        <ele>2029.1</ele>
        <time>2021-06-25T12:48:42.000Z</time>
      </trkpt>
      <trkpt lat="42.68363" lon="0.64956">
        <ele>2028</ele>
        <time>2021-06-25T12:48:53.000Z</time>
      </trkpt>
      <trkpt lat="42.6836" lon="0.64953">
        <ele>2027.6</ele>
        <time>2021-06-25T12:48:57.000Z</time>
      </trkpt>
      <trkpt lat="42.68358" lon="0.64934">
        <ele>2024.1</ele>
        <time>2021-06-25T12:49:11.000Z</time>
      </trkpt>
      <trkpt lat="42.68356" lon="0.64908">
        <ele>2021.7</ele>
        <time>2021-06-25T12:49:29.000Z</time>
      </trkpt>
      <trkpt lat="42.68355" lon="0.6489">
        <ele>2019.3</ele>
        <time>2021-06-25T12:49:45.000Z</time>
      </trkpt>
      <trkpt lat="42.68357" lon="0.64879">
        <ele>2017.9</ele>
        <time>2021-06-25T12:50:01.000Z</time>
      </trkpt>
      <trkpt lat="42.68356" lon="0.6486">
        <ele>2015.5</ele>
        <time>2021-06-25T12:50:16.000Z</time>
      </trkpt>
      <trkpt lat="42.68355" lon="0.64838">
        <ele>2012.6</ele>
        <time>2021-06-25T12:50:32.000Z</time>
      </trkpt>
      <trkpt lat="42.68351" lon="0.6483">
        <ele>2009.7</ele>
        <time>2021-06-25T12:50:47.000Z</time>
      </trkpt>
      <trkpt lat="42.68347" lon="0.64839">
        <ele>2007.8</ele>
        <time>2021-06-25T12:51:04.000Z</time>
      </trkpt>
      <trkpt lat="42.68343" lon="0.64849">
        <ele>2007.4</ele>
        <time>2021-06-25T12:51:22.000Z</time>
      </trkpt>
      <trkpt lat="42.68335" lon="0.64862">
        <ele>2005.5</ele>
        <time>2021-06-25T12:51:32.000Z</time>
      </trkpt>
      <trkpt lat="42.68326" lon="0.64879">
        <ele>2003.6</ele>
        <time>2021-06-25T12:51:50.000Z</time>
      </trkpt>
      <trkpt lat="42.68317" lon="0.64897">
        <ele>2000.6</ele>
        <time>2021-06-25T12:52:07.000Z</time>
      </trkpt>
      <trkpt lat="42.68309" lon="0.64903">
        <ele>1997.7</ele>
        <time>2021-06-25T12:52:20.000Z</time>
      </trkpt>
      <trkpt lat="42.68298" lon="0.64906">
        <ele>1994.3</ele>
        <time>2021-06-25T12:52:29.000Z</time>
      </trkpt>
      <trkpt lat="42.68297" lon="0.64906">
        <ele>1994.3</ele>
        <time>2021-06-25T12:52:30.000Z</time>
      </trkpt>
      <trkpt lat="42.6829" lon="0.64901">
        <ele>1991.6</ele>
        <time>2021-06-25T12:52:39.000Z</time>
      </trkpt>
      <trkpt lat="42.68286" lon="0.64896">
        <ele>1989.6</ele>
        <time>2021-06-25T12:52:46.000Z</time>
      </trkpt>
      <trkpt lat="42.68285" lon="0.64894">
        <ele>1988.6</ele>
        <time>2021-06-25T12:52:48.000Z</time>
      </trkpt>
      <trkpt lat="42.68284" lon="0.6489">
        <ele>1987.7</ele>
        <time>2021-06-25T12:52:51.000Z</time>
      </trkpt>
      <trkpt lat="42.68287" lon="0.6488">
        <ele>1986.3</ele>
        <time>2021-06-25T12:53:00.000Z</time>
      </trkpt>
      <trkpt lat="42.68296" lon="0.64861">
        <ele>1982.4</ele>
        <time>2021-06-25T12:53:17.000Z</time>
      </trkpt>
      <trkpt lat="42.68302" lon="0.64855">
        <ele>1980.5</ele>
        <time>2021-06-25T12:53:24.000Z</time>
      </trkpt>
      <trkpt lat="42.68302" lon="0.64852">
        <ele>1981</ele>
        <time>2021-06-25T12:53:27.000Z</time>
      </trkpt>
      <trkpt lat="42.68309" lon="0.64839">
        <ele>1979</ele>
        <time>2021-06-25T12:53:43.000Z</time>
      </trkpt>
      <trkpt lat="42.6831" lon="0.64836">
        <ele>1978.5</ele>
        <time>2021-06-25T12:53:46.000Z</time>
      </trkpt>
      <trkpt lat="42.6831" lon="0.64819">
        <ele>1973.7</ele>
        <time>2021-06-25T12:53:59.000Z</time>
      </trkpt>
      <trkpt lat="42.68309" lon="0.64817">
        <ele>1973.7</ele>
        <time>2021-06-25T12:54:00.000Z</time>
      </trkpt>
      <trkpt lat="42.68308" lon="0.64795">
        <ele>1970.8</ele>
        <time>2021-06-25T12:54:17.000Z</time>
      </trkpt>
      <trkpt lat="42.68309" lon="0.64768">
        <ele>1968</ele>
        <time>2021-06-25T12:54:36.000Z</time>
      </trkpt>
      <trkpt lat="42.6831" lon="0.64751">
        <ele>1964.5</ele>
        <time>2021-06-25T12:54:52.000Z</time>
      </trkpt>
      <trkpt lat="42.68317" lon="0.64725">
        <ele>1961.2</ele>
        <time>2021-06-25T12:55:12.000Z</time>
      </trkpt>
      <trkpt lat="42.68318" lon="0.64704">
        <ele>1961.2</ele>
        <time>2021-06-25T12:55:30.000Z</time>
      </trkpt>
      <trkpt lat="42.68318" lon="0.64687">
        <ele>1957.9</ele>
        <time>2021-06-25T12:55:43.000Z</time>
      </trkpt>
      <trkpt lat="42.68312" lon="0.64668">
        <ele>1956.4</ele>
        <time>2021-06-25T12:56:01.000Z</time>
      </trkpt>
      <trkpt lat="42.68305" lon="0.64652">
        <ele>1954.6</ele>
        <time>2021-06-25T12:56:17.000Z</time>
      </trkpt>
      <trkpt lat="42.68304" lon="0.64648">
        <ele>1953.1</ele>
        <time>2021-06-25T12:56:20.000Z</time>
      </trkpt>
      <trkpt lat="42.68296" lon="0.64634">
        <ele>1950.1</ele>
        <time>2021-06-25T12:56:38.000Z</time>
      </trkpt>
      <trkpt lat="42.68294" lon="0.64627">
        <ele>1948.2</ele>
        <time>2021-06-25T12:56:55.000Z</time>
      </trkpt>
      <trkpt lat="42.68291" lon="0.6463">
        <ele>1948.2</ele>
        <time>2021-06-25T12:57:04.000Z</time>
      </trkpt>
      <trkpt lat="42.68291" lon="0.64631">
        <ele>1947.3</ele>
        <time>2021-06-25T12:57:14.000Z</time>
      </trkpt>
      <trkpt lat="42.68291" lon="0.64633">
        <ele>1946.9</ele>
        <time>2021-06-25T12:57:34.000Z</time>
      </trkpt>
      <trkpt lat="42.68291" lon="0.64634">
        <ele>1946.3</ele>
        <time>2021-06-25T12:57:55.000Z</time>
      </trkpt>
      <trkpt lat="42.68291" lon="0.64634">
        <ele>1947.7</ele>
        <time>2021-06-25T12:57:58.000Z</time>
      </trkpt>
      <trkpt lat="42.68293" lon="0.64632">
        <ele>1948.8</ele>
        <time>2021-06-25T12:58:08.000Z</time>
      </trkpt>
      <trkpt lat="42.68293" lon="0.64632">
        <ele>1947.2</ele>
        <time>2021-06-25T12:58:10.000Z</time>
      </trkpt>
      <trkpt lat="42.68291" lon="0.64632">
        <ele>1929.9</ele>
        <time>2021-06-25T12:58:18.000Z</time>
      </trkpt>
      <trkpt lat="42.68292" lon="0.64631">
        <ele>1958.9</ele>
        <time>2021-06-25T12:58:19.000Z</time>
      </trkpt>
      <trkpt lat="42.68292" lon="0.64631">
        <ele>1950.2</ele>
        <time>2021-06-25T12:58:20.000Z</time>
      </trkpt>
      <trkpt lat="42.68291" lon="0.64631">
        <ele>1948.2</ele>
        <time>2021-06-25T12:58:22.000Z</time>
      </trkpt>
      <trkpt lat="42.68291" lon="0.6463">
        <ele>1948.2</ele>
        <time>2021-06-25T12:58:42.000Z</time>
      </trkpt>
      <trkpt lat="42.68287" lon="0.64628">
        <ele>1946.8</ele>
        <time>2021-06-25T12:58:49.000Z</time>
      </trkpt>
      <trkpt lat="42.68279" lon="0.64627">
        <ele>1943.5</ele>
        <time>2021-06-25T12:59:02.000Z</time>
      </trkpt>
      <trkpt lat="42.68267" lon="0.64623">
        <ele>1941.1</ele>
        <time>2021-06-25T12:59:19.000Z</time>
      </trkpt>
      <trkpt lat="42.68262" lon="0.64622">
        <ele>1938.1</ele>
        <time>2021-06-25T12:59:33.000Z</time>
      </trkpt>
      <trkpt lat="42.68258" lon="0.64625">
        <ele>1936.3</ele>
        <time>2021-06-25T12:59:39.000Z</time>
      </trkpt>
      <trkpt lat="42.6825" lon="0.64632">
        <ele>1933.3</ele>
        <time>2021-06-25T12:59:56.000Z</time>
      </trkpt>
      <trkpt lat="42.6824" lon="0.64641">
        <ele>1930.4</ele>
        <time>2021-06-25T13:00:11.000Z</time>
      </trkpt>
      <trkpt lat="42.68235" lon="0.64644">
        <ele>1928.6</ele>
        <time>2021-06-25T13:00:18.000Z</time>
      </trkpt>
      <trkpt lat="42.6823" lon="0.64645">
        <ele>1927.1</ele>
        <time>2021-06-25T13:00:23.000Z</time>
      </trkpt>
      <trkpt lat="42.68216" lon="0.64645">
        <ele>1922.7</ele>
        <time>2021-06-25T13:00:38.000Z</time>
      </trkpt>
      <trkpt lat="42.68209" lon="0.64641">
        <ele>1920.9</ele>
        <time>2021-06-25T13:00:50.000Z</time>
      </trkpt>
      <trkpt lat="42.68195" lon="0.64641">
        <ele>1917.9</ele>
        <time>2021-06-25T13:01:04.000Z</time>
      </trkpt>
      <trkpt lat="42.68185" lon="0.6464">
        <ele>1915</ele>
        <time>2021-06-25T13:01:14.000Z</time>
      </trkpt>
      <trkpt lat="42.68182" lon="0.64637">
        <ele>1912.7</ele>
        <time>2021-06-25T13:01:32.000Z</time>
      </trkpt>
      <trkpt lat="42.68175" lon="0.64637">
        <ele>1911.7</ele>
        <time>2021-06-25T13:02:00.000Z</time>
      </trkpt>
      <trkpt lat="42.68166" lon="0.64653">
        <ele>1906.9</ele>
        <time>2021-06-25T13:02:24.000Z</time>
      </trkpt>
      <trkpt lat="42.68159" lon="0.6466">
        <ele>1904.9</ele>
        <time>2021-06-25T13:02:42.000Z</time>
      </trkpt>
      <trkpt lat="42.6816" lon="0.64662">
        <ele>1904.9</ele>
        <time>2021-06-25T13:03:00.000Z</time>
      </trkpt>
      <trkpt lat="42.68159" lon="0.64666">
        <ele>1905</ele>
        <time>2021-06-25T13:03:29.000Z</time>
      </trkpt>
      <trkpt lat="42.68159" lon="0.64665">
        <ele>1906</ele>
        <time>2021-06-25T13:03:34.000Z</time>
      </trkpt>
      <trkpt lat="42.68159" lon="0.64664">
        <ele>1905.9</ele>
        <time>2021-06-25T13:04:07.000Z</time>
      </trkpt>
      <trkpt lat="42.68159" lon="0.64665">
        <ele>1904.6</ele>
        <time>2021-06-25T13:04:24.000Z</time>
      </trkpt>
      <trkpt lat="42.68147" lon="0.64671">
        <ele>1902.2</ele>
        <time>2021-06-25T13:04:43.000Z</time>
      </trkpt>
      <trkpt lat="42.68142" lon="0.64681">
        <ele>1899.7</ele>
        <time>2021-06-25T13:04:57.000Z</time>
      </trkpt>
      <trkpt lat="42.68134" lon="0.64694">
        <ele>1896.3</ele>
        <time>2021-06-25T13:05:14.000Z</time>
      </trkpt>
      <trkpt lat="42.68128" lon="0.64708">
        <ele>1894.5</ele>
        <time>2021-06-25T13:05:30.000Z</time>
      </trkpt>
      <trkpt lat="42.68127" lon="0.64715">
        <ele>1893</ele>
        <time>2021-06-25T13:05:38.000Z</time>
      </trkpt>
      <trkpt lat="42.6812" lon="0.64735">
        <ele>1889.7</ele>
        <time>2021-06-25T13:05:56.000Z</time>
      </trkpt>
      <trkpt lat="42.68111" lon="0.64753">
        <ele>1887.3</ele>
        <time>2021-06-25T13:06:13.000Z</time>
      </trkpt>
      <trkpt lat="42.68111" lon="0.64764">
        <ele>1886.2</ele>
        <time>2021-06-25T13:06:27.000Z</time>
      </trkpt>
      <trkpt lat="42.68105" lon="0.64768">
        <ele>1885.8</ele>
        <time>2021-06-25T13:06:44.000Z</time>
      </trkpt>
      <trkpt lat="42.68106" lon="0.6477">
        <ele>1885.7</ele>
        <time>2021-06-25T13:06:58.000Z</time>
      </trkpt>
      <trkpt lat="42.68105" lon="0.64771">
        <ele>1885.3</ele>
        <time>2021-06-25T13:07:25.000Z</time>
      </trkpt>
      <trkpt lat="42.68105" lon="0.64766">
        <ele>1885.3</ele>
        <time>2021-06-25T13:07:52.000Z</time>
      </trkpt>
      <trkpt lat="42.68105" lon="0.64771">
        <ele>1884.3</ele>
        <time>2021-06-25T13:08:21.000Z</time>
      </trkpt>
      <trkpt lat="42.68106" lon="0.6477">
        <ele>1879.5</ele>
        <time>2021-06-25T13:08:47.000Z</time>
      </trkpt>
      <trkpt lat="42.68106" lon="0.6477">
        <ele>1887.2</ele>
        <time>2021-06-25T13:08:48.000Z</time>
      </trkpt>
      <trkpt lat="42.68107" lon="0.64769">
        <ele>1884.9</ele>
        <time>2021-06-25T13:08:52.000Z</time>
      </trkpt>
      <trkpt lat="42.68106" lon="0.64767">
        <ele>1884.4</ele>
        <time>2021-06-25T13:09:21.000Z</time>
      </trkpt>
      <trkpt lat="42.68102" lon="0.64767">
        <ele>1884.3</ele>
        <time>2021-06-25T13:09:56.000Z</time>
      </trkpt>
      <trkpt lat="42.68106" lon="0.64768">
        <ele>1884.4</ele>
        <time>2021-06-25T13:10:18.000Z</time>
      </trkpt>
      <trkpt lat="42.68105" lon="0.64768">
        <ele>1883.9</ele>
        <time>2021-06-25T13:10:49.000Z</time>
      </trkpt>
      <trkpt lat="42.68105" lon="0.64769">
        <ele>1883.9</ele>
        <time>2021-06-25T13:11:27.000Z</time>
      </trkpt>
      <trkpt lat="42.68104" lon="0.64769">
        <ele>1883.9</ele>
        <time>2021-06-25T13:11:51.000Z</time>
      </trkpt>
      <trkpt lat="42.68106" lon="0.64769">
        <ele>1883.8</ele>
        <time>2021-06-25T13:12:27.000Z</time>
      </trkpt>
      <trkpt lat="42.68107" lon="0.64772">
        <ele>1883.3</ele>
        <time>2021-06-25T13:13:06.000Z</time>
      </trkpt>
      <trkpt lat="42.68106" lon="0.6477">
        <ele>1884.9</ele>
        <time>2021-06-25T13:13:36.000Z</time>
      </trkpt>
      <trkpt lat="42.68106" lon="0.64771">
        <ele>1883.3</ele>
        <time>2021-06-25T13:13:52.000Z</time>
      </trkpt>
      <trkpt lat="42.68105" lon="0.6477">
        <ele>1883.3</ele>
        <time>2021-06-25T13:14:23.000Z</time>
      </trkpt>
      <trkpt lat="42.68104" lon="0.64769">
        <ele>1884.3</ele>
        <time>2021-06-25T13:14:46.000Z</time>
      </trkpt>
      <trkpt lat="42.68105" lon="0.64771">
        <ele>1884.3</ele>
        <time>2021-06-25T13:15:12.000Z</time>
      </trkpt>
      <trkpt lat="42.68104" lon="0.6477">
        <ele>1883.9</ele>
        <time>2021-06-25T13:16:01.000Z</time>
      </trkpt>
      <trkpt lat="42.68105" lon="0.64771">
        <ele>1883.8</ele>
        <time>2021-06-25T13:16:37.000Z</time>
      </trkpt>
      <trkpt lat="42.68105" lon="0.64769">
        <ele>1883.8</ele>
        <time>2021-06-25T13:17:04.000Z</time>
      </trkpt>
      <trkpt lat="42.68105" lon="0.64769">
        <ele>1883.8</ele>
        <time>2021-06-25T13:17:30.000Z</time>
      </trkpt>
      <trkpt lat="42.68107" lon="0.64769">
        <ele>1882.5</ele>
        <time>2021-06-25T13:17:55.000Z</time>
      </trkpt>
      <trkpt lat="42.68106" lon="0.64769">
        <ele>1882.5</ele>
        <time>2021-06-25T13:18:23.000Z</time>
      </trkpt>
      <trkpt lat="42.68105" lon="0.64769">
        <ele>1882.5</ele>
        <time>2021-06-25T13:18:57.000Z</time>
      </trkpt>
      <trkpt lat="42.68105" lon="0.6477">
        <ele>1883.3</ele>
        <time>2021-06-25T13:19:07.000Z</time>
      </trkpt>
      <trkpt lat="42.68103" lon="0.64767">
        <ele>1883.3</ele>
        <time>2021-06-25T13:19:41.000Z</time>
      </trkpt>
      <trkpt lat="42.68105" lon="0.64769">
        <ele>1883.8</ele>
        <time>2021-06-25T13:20:07.000Z</time>
      </trkpt>
      <trkpt lat="42.68105" lon="0.64769">
        <ele>1884.9</ele>
        <time>2021-06-25T13:20:20.000Z</time>
      </trkpt>
      <trkpt lat="42.68106" lon="0.6477">
        <ele>1883.8</ele>
        <time>2021-06-25T13:20:27.000Z</time>
      </trkpt>
      <trkpt lat="42.68106" lon="0.6477">
        <ele>1880.4</ele>
        <time>2021-06-25T13:20:29.000Z</time>
      </trkpt>
      <trkpt lat="42.68106" lon="0.6477">
        <ele>1881.5</ele>
        <time>2021-06-25T13:20:30.000Z</time>
      </trkpt>
      <trkpt lat="42.68106" lon="0.6477">
        <ele>1891</ele>
        <time>2021-06-25T13:20:31.000Z</time>
      </trkpt>
      <trkpt lat="42.68106" lon="0.6477">
        <ele>1886.7</ele>
        <time>2021-06-25T13:20:32.000Z</time>
      </trkpt>
      <trkpt lat="42.68105" lon="0.6477">
        <ele>1884.3</ele>
        <time>2021-06-25T13:20:55.000Z</time>
      </trkpt>
      <trkpt lat="42.68107" lon="0.6477">
        <ele>1884.3</ele>
        <time>2021-06-25T13:21:16.000Z</time>
      </trkpt>
      <trkpt lat="42.68107" lon="0.64771">
        <ele>1883.9</ele>
        <time>2021-06-25T13:21:45.000Z</time>
      </trkpt>
      <trkpt lat="42.68106" lon="0.6477">
        <ele>1884.3</ele>
        <time>2021-06-25T13:22:11.000Z</time>
      </trkpt>
      <trkpt lat="42.68104" lon="0.64771">
        <ele>1884.3</ele>
        <time>2021-06-25T13:22:40.000Z</time>
      </trkpt>
      <trkpt lat="42.68102" lon="0.64772">
        <ele>1884.3</ele>
        <time>2021-06-25T13:23:09.000Z</time>
      </trkpt>
      <trkpt lat="42.68107" lon="0.64779">
        <ele>1884.4</ele>
        <time>2021-06-25T13:23:32.000Z</time>
      </trkpt>
      <trkpt lat="42.68105" lon="0.64777">
        <ele>1884.3</ele>
        <time>2021-06-25T13:24:00.000Z</time>
      </trkpt>
      <trkpt lat="42.68106" lon="0.64789">
        <ele>1884.8</ele>
        <time>2021-06-25T13:24:17.000Z</time>
      </trkpt>
      <trkpt lat="42.68104" lon="0.64807">
        <ele>1885.3</ele>
        <time>2021-06-25T13:24:34.000Z</time>
      </trkpt>
      <trkpt lat="42.68101" lon="0.64813">
        <ele>1886.3</ele>
        <time>2021-06-25T13:24:50.000Z</time>
      </trkpt>
      <trkpt lat="42.68102" lon="0.64829">
        <ele>1886.8</ele>
        <time>2021-06-25T13:25:05.000Z</time>
      </trkpt>
      <trkpt lat="42.68102" lon="0.64834">
        <ele>1886.8</ele>
        <time>2021-06-25T13:25:10.000Z</time>
      </trkpt>
      <trkpt lat="42.68097" lon="0.64855">
        <ele>1888.2</ele>
        <time>2021-06-25T13:25:25.000Z</time>
      </trkpt>
      <trkpt lat="42.68091" lon="0.64873">
        <ele>1890.1</ele>
        <time>2021-06-25T13:25:41.000Z</time>
      </trkpt>
      <trkpt lat="42.6808" lon="0.64893">
        <ele>1890</ele>
        <time>2021-06-25T13:25:57.000Z</time>
      </trkpt>
      <trkpt lat="42.68068" lon="0.64907">
        <ele>1888.6</ele>
        <time>2021-06-25T13:26:15.000Z</time>
      </trkpt>
      <trkpt lat="42.6806" lon="0.64916">
        <ele>1890</ele>
        <time>2021-06-25T13:26:25.000Z</time>
      </trkpt>
      <trkpt lat="42.68044" lon="0.64928">
        <ele>1890.6</ele>
        <time>2021-06-25T13:26:40.000Z</time>
      </trkpt>
      <trkpt lat="42.68033" lon="0.64935">
        <ele>1892</ele>
        <time>2021-06-25T13:26:55.000Z</time>
      </trkpt>
      <trkpt lat="42.68018" lon="0.64944">
        <ele>1894</ele>
        <time>2021-06-25T13:27:13.000Z</time>
      </trkpt>
      <trkpt lat="42.68004" lon="0.64947">
        <ele>1895.8</ele>
        <time>2021-06-25T13:27:31.000Z</time>
      </trkpt>
      <trkpt lat="42.67995" lon="0.64944">
        <ele>1896.8</ele>
        <time>2021-06-25T13:27:47.000Z</time>
      </trkpt>
      <trkpt lat="42.67985" lon="0.64937">
        <ele>1897.8</ele>
        <time>2021-06-25T13:28:02.000Z</time>
      </trkpt>
      <trkpt lat="42.67976" lon="0.64929">
        <ele>1898.2</ele>
        <time>2021-06-25T13:28:19.000Z</time>
      </trkpt>
      <trkpt lat="42.67965" lon="0.64929">
        <ele>1901.1</ele>
        <time>2021-06-25T13:28:34.000Z</time>
      </trkpt>
      <trkpt lat="42.67953" lon="0.64925">
        <ele>1903.6</ele>
        <time>2021-06-25T13:28:51.000Z</time>
      </trkpt>
      <trkpt lat="42.67945" lon="0.64925">
        <ele>1904.9</ele>
        <time>2021-06-25T13:29:03.000Z</time>
      </trkpt>
      <trkpt lat="42.67936" lon="0.64931">
        <ele>1905.9</ele>
        <time>2021-06-25T13:29:15.000Z</time>
      </trkpt>
      <trkpt lat="42.67927" lon="0.64947">
        <ele>1907.8</ele>
        <time>2021-06-25T13:29:33.000Z</time>
      </trkpt>
      <trkpt lat="42.6792" lon="0.64964">
        <ele>1908.4</ele>
        <time>2021-06-25T13:29:50.000Z</time>
      </trkpt>
      <trkpt lat="42.67915" lon="0.64968">
        <ele>1908.8</ele>
        <time>2021-06-25T13:30:04.000Z</time>
      </trkpt>
      <trkpt lat="42.67901" lon="0.64981">
        <ele>1907.9</ele>
        <time>2021-06-25T13:30:25.000Z</time>
      </trkpt>
      <trkpt lat="42.67888" lon="0.64986">
        <ele>1906.5</ele>
        <time>2021-06-25T13:30:42.000Z</time>
      </trkpt>
      <trkpt lat="42.67885" lon="0.64987">
        <ele>1905.5</ele>
        <time>2021-06-25T13:30:46.000Z</time>
      </trkpt>
      <trkpt lat="42.67871" lon="0.64995">
        <ele>1905</ele>
        <time>2021-06-25T13:31:05.000Z</time>
      </trkpt>
      <trkpt lat="42.67863" lon="0.65002">
        <ele>1905</ele>
        <time>2021-06-25T13:31:13.000Z</time>
      </trkpt>
      <trkpt lat="42.67854" lon="0.65012">
        <ele>1905</ele>
        <time>2021-06-25T13:31:31.000Z</time>
      </trkpt>
      <trkpt lat="42.67844" lon="0.65019">
        <ele>1906.5</ele>
        <time>2021-06-25T13:31:48.000Z</time>
      </trkpt>
      <trkpt lat="42.67841" lon="0.65024">
        <ele>1907.3</ele>
        <time>2021-06-25T13:32:05.000Z</time>
      </trkpt>
      <trkpt lat="42.67843" lon="0.65027">
        <ele>1907.8</ele>
        <time>2021-06-25T13:32:30.000Z</time>
      </trkpt>
      <trkpt lat="42.67836" lon="0.65036">
        <ele>1907.8</ele>
        <time>2021-06-25T13:32:45.000Z</time>
      </trkpt>
      <trkpt lat="42.67821" lon="0.6505">
        <ele>1906</ele>
        <time>2021-06-25T13:33:04.000Z</time>
      </trkpt>
      <trkpt lat="42.6782" lon="0.6505">
        <ele>1906</ele>
        <time>2021-06-25T13:33:05.000Z</time>
      </trkpt>
      <trkpt lat="42.67808" lon="0.65052">
        <ele>1905.5</ele>
        <time>2021-06-25T13:33:21.000Z</time>
      </trkpt>
      <trkpt lat="42.67798" lon="0.65061">
        <ele>1906.5</ele>
        <time>2021-06-25T13:33:37.000Z</time>
      </trkpt>
      <trkpt lat="42.67788" lon="0.65071">
        <ele>1907.3</ele>
        <time>2021-06-25T13:33:54.000Z</time>
      </trkpt>
      <trkpt lat="42.67775" lon="0.65083">
        <ele>1908.8</ele>
        <time>2021-06-25T13:34:11.000Z</time>
      </trkpt>
      <trkpt lat="42.67762" lon="0.65095">
        <ele>1910.7</ele>
        <time>2021-06-25T13:34:29.000Z</time>
      </trkpt>
      <trkpt lat="42.67759" lon="0.65093">
        <ele>1909.3</ele>
        <time>2021-06-25T13:34:33.000Z</time>
      </trkpt>
      <trkpt lat="42.67758" lon="0.65092">
        <ele>1910.8</ele>
        <time>2021-06-25T13:34:35.000Z</time>
      </trkpt>
      <trkpt lat="42.6775" lon="0.65092">
        <ele>1910.7</ele>
        <time>2021-06-25T13:34:48.000Z</time>
      </trkpt>
      <trkpt lat="42.6775" lon="0.65092">
        <ele>1909.3</ele>
        <time>2021-06-25T13:34:50.000Z</time>
      </trkpt>
      <trkpt lat="42.67741" lon="0.65085">
        <ele>1909.8</ele>
        <time>2021-06-25T13:35:05.000Z</time>
      </trkpt>
      <trkpt lat="42.67738" lon="0.65092">
        <ele>1907.9</ele>
        <time>2021-06-25T13:35:16.000Z</time>
      </trkpt>
      <trkpt lat="42.67733" lon="0.65096">
        <ele>1906</ele>
        <time>2021-06-25T13:35:29.000Z</time>
      </trkpt>
      <trkpt lat="42.67723" lon="0.65107">
        <ele>1904.6</ele>
        <time>2021-06-25T13:35:44.000Z</time>
      </trkpt>
      <trkpt lat="42.67724" lon="0.65109">
        <ele>1904.6</ele>
        <time>2021-06-25T13:35:47.000Z</time>
      </trkpt>
      <trkpt lat="42.67716" lon="0.65113">
        <ele>1904.5</ele>
        <time>2021-06-25T13:35:53.000Z</time>
      </trkpt>
      <trkpt lat="42.67704" lon="0.65114">
        <ele>1905.9</ele>
        <time>2021-06-25T13:36:06.000Z</time>
      </trkpt>
      <trkpt lat="42.67702" lon="0.65115">
        <ele>1906.5</ele>
        <time>2021-06-25T13:36:10.000Z</time>
      </trkpt>
      <trkpt lat="42.67694" lon="0.6512">
        <ele>1907.3</ele>
        <time>2021-06-25T13:36:20.000Z</time>
      </trkpt>
      <trkpt lat="42.67685" lon="0.6512">
        <ele>1908.4</ele>
        <time>2021-06-25T13:36:39.000Z</time>
      </trkpt>
      <trkpt lat="42.67678" lon="0.65132">
        <ele>1910.2</ele>
        <time>2021-06-25T13:36:56.000Z</time>
      </trkpt>
      <trkpt lat="42.67673" lon="0.65134">
        <ele>1912.6</ele>
        <time>2021-06-25T13:37:12.000Z</time>
      </trkpt>
      <trkpt lat="42.67672" lon="0.65137">
        <ele>1912.6</ele>
        <time>2021-06-25T13:37:15.000Z</time>
      </trkpt>
      <trkpt lat="42.67665" lon="0.65151">
        <ele>1912.3</ele>
        <time>2021-06-25T13:37:28.000Z</time>
      </trkpt>
      <trkpt lat="42.67657" lon="0.65162">
        <ele>1914.2</ele>
        <time>2021-06-25T13:37:48.000Z</time>
      </trkpt>
      <trkpt lat="42.67645" lon="0.65178">
        <ele>1915.5</ele>
        <time>2021-06-25T13:38:06.000Z</time>
      </trkpt>
      <trkpt lat="42.67642" lon="0.65186">
        <ele>1916.1</ele>
        <time>2021-06-25T13:38:23.000Z</time>
      </trkpt>
      <trkpt lat="42.6763" lon="0.65194">
        <ele>1917.4</ele>
        <time>2021-06-25T13:38:37.000Z</time>
      </trkpt>
      <trkpt lat="42.67626" lon="0.65198">
        <ele>1916.5</ele>
        <time>2021-06-25T13:38:42.000Z</time>
      </trkpt>
      <trkpt lat="42.67612" lon="0.65205">
        <ele>1915</ele>
        <time>2021-06-25T13:38:55.000Z</time>
      </trkpt>
      <trkpt lat="42.67609" lon="0.65209">
        <ele>1915.1</ele>
        <time>2021-06-25T13:38:58.000Z</time>
      </trkpt>
      <trkpt lat="42.676" lon="0.65219">
        <ele>1915.1</ele>
        <time>2021-06-25T13:39:12.000Z</time>
      </trkpt>
      <trkpt lat="42.67596" lon="0.65216">
        <ele>1914.2</ele>
        <time>2021-06-25T13:39:23.000Z</time>
      </trkpt>
      <trkpt lat="42.67593" lon="0.65209">
        <ele>1915</ele>
        <time>2021-06-25T13:39:35.000Z</time>
      </trkpt>
      <trkpt lat="42.67587" lon="0.652">
        <ele>1916</ele>
        <time>2021-06-25T13:39:44.000Z</time>
      </trkpt>
      <trkpt lat="42.67579" lon="0.65188">
        <ele>1915</ele>
        <time>2021-06-25T13:40:00.000Z</time>
      </trkpt>
      <trkpt lat="42.67581" lon="0.65172">
        <ele>1916.5</ele>
        <time>2021-06-25T13:40:16.000Z</time>
      </trkpt>
      <trkpt lat="42.67586" lon="0.65157">
        <ele>1918</ele>
        <time>2021-06-25T13:40:34.000Z</time>
      </trkpt>
      <trkpt lat="42.67583" lon="0.6515">
        <ele>1919.5</ele>
        <time>2021-06-25T13:40:46.000Z</time>
      </trkpt>
      <trkpt lat="42.67581" lon="0.65149">
        <ele>1920.4</ele>
        <time>2021-06-25T13:40:58.000Z</time>
      </trkpt>
      <trkpt lat="42.67578" lon="0.6515">
        <ele>1924.7</ele>
        <time>2021-06-25T13:41:03.000Z</time>
      </trkpt>
      <trkpt lat="42.67578" lon="0.65151">
        <ele>1922.2</ele>
        <time>2021-06-25T13:41:04.000Z</time>
      </trkpt>
      <trkpt lat="42.67577" lon="0.65153">
        <ele>1921.4</ele>
        <time>2021-06-25T13:41:06.000Z</time>
      </trkpt>
      <trkpt lat="42.67569" lon="0.65167">
        <ele>1922.7</ele>
        <time>2021-06-25T13:41:22.000Z</time>
      </trkpt>
      <trkpt lat="42.67564" lon="0.6518">
        <ele>1923.2</ele>
        <time>2021-06-25T13:41:36.000Z</time>
      </trkpt>
      <trkpt lat="42.67558" lon="0.65191">
        <ele>1924.2</ele>
        <time>2021-06-25T13:41:50.000Z</time>
      </trkpt>
      <trkpt lat="42.67555" lon="0.65205">
        <ele>1927.5</ele>
        <time>2021-06-25T13:42:09.000Z</time>
      </trkpt>
      <trkpt lat="42.67549" lon="0.65217">
        <ele>1929.1</ele>
        <time>2021-06-25T13:42:26.000Z</time>
      </trkpt>
      <trkpt lat="42.67543" lon="0.65213">
        <ele>1930.4</ele>
        <time>2021-06-25T13:42:41.000Z</time>
      </trkpt>
      <trkpt lat="42.67539" lon="0.65214">
        <ele>1931</ele>
        <time>2021-06-25T13:42:56.000Z</time>
      </trkpt>
      <trkpt lat="42.67538" lon="0.65222">
        <ele>1932.8</ele>
        <time>2021-06-25T13:43:12.000Z</time>
      </trkpt>
      <trkpt lat="42.67536" lon="0.65232">
        <ele>1935.7</ele>
        <time>2021-06-25T13:43:30.000Z</time>
      </trkpt>
      <trkpt lat="42.67532" lon="0.65246">
        <ele>1937.1</ele>
        <time>2021-06-25T13:43:47.000Z</time>
      </trkpt>
      <trkpt lat="42.67531" lon="0.65251">
        <ele>1938.7</ele>
        <time>2021-06-25T13:44:02.000Z</time>
      </trkpt>
      <trkpt lat="42.67526" lon="0.65258">
        <ele>1938.7</ele>
        <time>2021-06-25T13:44:18.000Z</time>
      </trkpt>
      <trkpt lat="42.67521" lon="0.65263">
        <ele>1940.6</ele>
        <time>2021-06-25T13:44:27.000Z</time>
      </trkpt>
      <trkpt lat="42.67518" lon="0.65263">
        <ele>1940.6</ele>
        <time>2021-06-25T13:44:44.000Z</time>
      </trkpt>
      <trkpt lat="42.67519" lon="0.65262">
        <ele>1940.5</ele>
        <time>2021-06-25T13:45:06.000Z</time>
      </trkpt>
      <trkpt lat="42.67519" lon="0.65262">
        <ele>1940.5</ele>
        <time>2021-06-25T13:45:28.000Z</time>
      </trkpt>
      <trkpt lat="42.67518" lon="0.65261">
        <ele>1940.5</ele>
        <time>2021-06-25T13:45:56.000Z</time>
      </trkpt>
      <trkpt lat="42.67519" lon="0.65261">
        <ele>1937.6</ele>
        <time>2021-06-25T13:45:58.000Z</time>
      </trkpt>
      <trkpt lat="42.67519" lon="0.65261">
        <ele>1941.5</ele>
        <time>2021-06-25T13:45:59.000Z</time>
      </trkpt>
      <trkpt lat="42.6752" lon="0.65261">
        <ele>1940</ele>
        <time>2021-06-25T13:46:03.000Z</time>
      </trkpt>
      <trkpt lat="42.67514" lon="0.65265">
        <ele>1940</ele>
        <time>2021-06-25T13:46:18.000Z</time>
      </trkpt>
      <trkpt lat="42.67503" lon="0.65272">
        <ele>1942</ele>
        <time>2021-06-25T13:46:33.000Z</time>
      </trkpt>
      <trkpt lat="42.67488" lon="0.6528">
        <ele>1943.5</ele>
        <time>2021-06-25T13:46:50.000Z</time>
      </trkpt>
      <trkpt lat="42.67476" lon="0.65287">
        <ele>1944.9</ele>
        <time>2021-06-25T13:47:06.000Z</time>
      </trkpt>
      <trkpt lat="42.67471" lon="0.65292">
        <ele>1946.3</ele>
        <time>2021-06-25T13:47:13.000Z</time>
      </trkpt>
      <trkpt lat="42.67468" lon="0.65295">
        <ele>1947.8</ele>
        <time>2021-06-25T13:47:30.000Z</time>
      </trkpt>
      <trkpt lat="42.67463" lon="0.65306">
        <ele>1950.6</ele>
        <time>2021-06-25T13:47:46.000Z</time>
      </trkpt>
      <trkpt lat="42.67454" lon="0.65314">
        <ele>1952.5</ele>
        <time>2021-06-25T13:48:04.000Z</time>
      </trkpt>
      <trkpt lat="42.67443" lon="0.65321">
        <ele>1954.5</ele>
        <time>2021-06-25T13:48:23.000Z</time>
      </trkpt>
      <trkpt lat="42.67436" lon="0.65324">
        <ele>1955.5</ele>
        <time>2021-06-25T13:48:39.000Z</time>
      </trkpt>
      <trkpt lat="42.67426" lon="0.65324">
        <ele>1957.9</ele>
        <time>2021-06-25T13:48:56.000Z</time>
      </trkpt>
      <trkpt lat="42.67416" lon="0.65328">
        <ele>1958.8</ele>
        <time>2021-06-25T13:49:13.000Z</time>
      </trkpt>
      <trkpt lat="42.67407" lon="0.65335">
        <ele>1959.7</ele>
        <time>2021-06-25T13:49:30.000Z</time>
      </trkpt>
      <trkpt lat="42.67401" lon="0.65342">
        <ele>1961.3</ele>
        <time>2021-06-25T13:49:43.000Z</time>
      </trkpt>
      <trkpt lat="42.67393" lon="0.65341">
        <ele>1962.6</ele>
        <time>2021-06-25T13:49:59.000Z</time>
      </trkpt>
      <trkpt lat="42.67391" lon="0.65352">
        <ele>1965.1</ele>
        <time>2021-06-25T13:50:13.000Z</time>
      </trkpt>
      <trkpt lat="42.67388" lon="0.6536">
        <ele>1966.1</ele>
        <time>2021-06-25T13:50:25.000Z</time>
      </trkpt>
      <trkpt lat="42.67388" lon="0.65372">
        <ele>1966.5</ele>
        <time>2021-06-25T13:50:40.000Z</time>
      </trkpt>
      <trkpt lat="42.67381" lon="0.65381">
        <ele>1967.9</ele>
        <time>2021-06-25T13:50:53.000Z</time>
      </trkpt>
      <trkpt lat="42.67377" lon="0.65374">
        <ele>1967.9</ele>
        <time>2021-06-25T13:51:06.000Z</time>
      </trkpt>
      <trkpt lat="42.67376" lon="0.65365">
        <ele>1969</ele>
        <time>2021-06-25T13:51:18.000Z</time>
      </trkpt>
      <trkpt lat="42.67374" lon="0.65359">
        <ele>1970.3</ele>
        <time>2021-06-25T13:51:30.000Z</time>
      </trkpt>
      <trkpt lat="42.67374" lon="0.65362">
        <ele>1970.4</ele>
        <time>2021-06-25T13:51:48.000Z</time>
      </trkpt>
      <trkpt lat="42.67371" lon="0.65363">
        <ele>1972.3</ele>
        <time>2021-06-25T13:52:07.000Z</time>
      </trkpt>
      <trkpt lat="42.67371" lon="0.65364">
        <ele>1972.2</ele>
        <time>2021-06-25T13:52:10.000Z</time>
      </trkpt>
      <trkpt lat="42.6737" lon="0.65367">
        <ele>1972.8</ele>
        <time>2021-06-25T13:52:13.000Z</time>
      </trkpt>
      <trkpt lat="42.67361" lon="0.65369">
        <ele>1974.3</ele>
        <time>2021-06-25T13:52:29.000Z</time>
      </trkpt>
      <trkpt lat="42.67358" lon="0.65366">
        <ele>1969.4</ele>
        <time>2021-06-25T13:52:36.000Z</time>
      </trkpt>
      <trkpt lat="42.67357" lon="0.65366">
        <ele>1980</ele>
        <time>2021-06-25T13:52:37.000Z</time>
      </trkpt>
      <trkpt lat="42.67357" lon="0.65366">
        <ele>1971.9</ele>
        <time>2021-06-25T13:52:38.000Z</time>
      </trkpt>
      <trkpt lat="42.67357" lon="0.65366">
        <ele>1979.9</ele>
        <time>2021-06-25T13:52:39.000Z</time>
      </trkpt>
      <trkpt lat="42.67356" lon="0.65366">
        <ele>1975.6</ele>
        <time>2021-06-25T13:52:42.000Z</time>
      </trkpt>
      <trkpt lat="42.67356" lon="0.65365">
        <ele>1975.6</ele>
        <time>2021-06-25T13:52:43.000Z</time>
      </trkpt>
      <trkpt lat="42.67356" lon="0.65365">
        <ele>1975.7</ele>
        <time>2021-06-25T13:53:06.000Z</time>
      </trkpt>
      <trkpt lat="42.67351" lon="0.65366">
        <ele>1977.1</ele>
        <time>2021-06-25T13:53:14.000Z</time>
      </trkpt>
      <trkpt lat="42.6735" lon="0.65366">
        <ele>1967.4</ele>
        <time>2021-06-25T13:53:16.000Z</time>
      </trkpt>
      <trkpt lat="42.67349" lon="0.65366">
        <ele>1982.9</ele>
        <time>2021-06-25T13:53:17.000Z</time>
      </trkpt>
      <trkpt lat="42.67349" lon="0.65365">
        <ele>1979.5</ele>
        <time>2021-06-25T13:53:18.000Z</time>
      </trkpt>
      <trkpt lat="42.67343" lon="0.65359">
        <ele>1979.5</ele>
        <time>2021-06-25T13:53:34.000Z</time>
      </trkpt>
      <trkpt lat="42.67339" lon="0.65353">
        <ele>1981.4</ele>
        <time>2021-06-25T13:53:50.000Z</time>
      </trkpt>
      <trkpt lat="42.67338" lon="0.65341">
        <ele>1983.4</ele>
        <time>2021-06-25T13:54:04.000Z</time>
      </trkpt>
      <trkpt lat="42.67334" lon="0.65331">
        <ele>1985.8</ele>
        <time>2021-06-25T13:54:19.000Z</time>
      </trkpt>
      <trkpt lat="42.67332" lon="0.65317">
        <ele>1987.1</ele>
        <time>2021-06-25T13:54:38.000Z</time>
      </trkpt>
      <trkpt lat="42.67327" lon="0.65318">
        <ele>1989.1</ele>
        <time>2021-06-25T13:54:48.000Z</time>
      </trkpt>
      <trkpt lat="42.67322" lon="0.65328">
        <ele>1990.6</ele>
        <time>2021-06-25T13:55:03.000Z</time>
      </trkpt>
      <trkpt lat="42.67318" lon="0.65334">
        <ele>1992.5</ele>
        <time>2021-06-25T13:55:18.000Z</time>
      </trkpt>
      <trkpt lat="42.67315" lon="0.65342">
        <ele>1994.3</ele>
        <time>2021-06-25T13:55:33.000Z</time>
      </trkpt>
      <trkpt lat="42.67313" lon="0.65353">
        <ele>1996.9</ele>
        <time>2021-06-25T13:55:52.000Z</time>
      </trkpt>
      <trkpt lat="42.67309" lon="0.65363">
        <ele>1998.7</ele>
        <time>2021-06-25T13:56:11.000Z</time>
      </trkpt>
      <trkpt lat="42.67305" lon="0.65374">
        <ele>2001.2</ele>
        <time>2021-06-25T13:56:29.000Z</time>
      </trkpt>
      <trkpt lat="42.67302" lon="0.65394">
        <ele>2002.6</ele>
        <time>2021-06-25T13:56:50.000Z</time>
      </trkpt>
      <trkpt lat="42.67301" lon="0.65401">
        <ele>2004.5</ele>
        <time>2021-06-25T13:57:10.000Z</time>
      </trkpt>
      <trkpt lat="42.67296" lon="0.65391">
        <ele>2006.8</ele>
        <time>2021-06-25T13:57:26.000Z</time>
      </trkpt>
      <trkpt lat="42.67293" lon="0.65378">
        <ele>2008.8</ele>
        <time>2021-06-25T13:57:44.000Z</time>
      </trkpt>
      <trkpt lat="42.67287" lon="0.65368">
        <ele>2010.7</ele>
        <time>2021-06-25T13:58:02.000Z</time>
      </trkpt>
      <trkpt lat="42.67283" lon="0.65359">
        <ele>2013.1</ele>
        <time>2021-06-25T13:58:17.000Z</time>
      </trkpt>
      <trkpt lat="42.6728" lon="0.65364">
        <ele>2015</ele>
        <time>2021-06-25T13:58:34.000Z</time>
      </trkpt>
      <trkpt lat="42.67278" lon="0.65363">
        <ele>2017</ele>
        <time>2021-06-25T13:58:50.000Z</time>
      </trkpt>
      <trkpt lat="42.67275" lon="0.65352">
        <ele>2018.5</ele>
        <time>2021-06-25T13:59:06.000Z</time>
      </trkpt>
      <trkpt lat="42.6727" lon="0.65341">
        <ele>2020.4</ele>
        <time>2021-06-25T13:59:22.000Z</time>
      </trkpt>
      <trkpt lat="42.67265" lon="0.65333">
        <ele>2021.4</ele>
        <time>2021-06-25T13:59:38.000Z</time>
      </trkpt>
      <trkpt lat="42.67264" lon="0.65317">
        <ele>2023.2</ele>
        <time>2021-06-25T13:59:54.000Z</time>
      </trkpt>
      <trkpt lat="42.67267" lon="0.653">
        <ele>2022.3</ele>
        <time>2021-06-25T14:00:13.000Z</time>
      </trkpt>
      <trkpt lat="42.67266" lon="0.65287">
        <ele>2023.2</ele>
        <time>2021-06-25T14:00:29.000Z</time>
      </trkpt>
      <trkpt lat="42.67257" lon="0.65284">
        <ele>2024.7</ele>
        <time>2021-06-25T14:00:43.000Z</time>
      </trkpt>
      <trkpt lat="42.67252" lon="0.65275">
        <ele>2026.1</ele>
        <time>2021-06-25T14:00:59.000Z</time>
      </trkpt>
      <trkpt lat="42.6725" lon="0.65268">
        <ele>2026.6</ele>
        <time>2021-06-25T14:01:21.000Z</time>
      </trkpt>
      <trkpt lat="42.67244" lon="0.65259">
        <ele>2028</ele>
        <time>2021-06-25T14:01:37.000Z</time>
      </trkpt>
      <trkpt lat="42.6724" lon="0.65254">
        <ele>2029.4</ele>
        <time>2021-06-25T14:01:52.000Z</time>
      </trkpt>
      <trkpt lat="42.67237" lon="0.6525">
        <ele>2030</ele>
        <time>2021-06-25T14:02:08.000Z</time>
      </trkpt>
      <trkpt lat="42.67238" lon="0.6525">
        <ele>2030</ele>
        <time>2021-06-25T14:02:35.000Z</time>
      </trkpt>
      <trkpt lat="42.6723" lon="0.65243">
        <ele>2030.9</ele>
        <time>2021-06-25T14:02:49.000Z</time>
      </trkpt>
      <trkpt lat="42.67224" lon="0.65238">
        <ele>2032.9</ele>
        <time>2021-06-25T14:03:02.000Z</time>
      </trkpt>
      <trkpt lat="42.67218" lon="0.65241">
        <ele>2034.3</ele>
        <time>2021-06-25T14:03:22.000Z</time>
      </trkpt>
      <trkpt lat="42.67217" lon="0.65238">
        <ele>2033.4</ele>
        <time>2021-06-25T14:03:29.000Z</time>
      </trkpt>
      <trkpt lat="42.67217" lon="0.65237">
        <ele>2034.8</ele>
        <time>2021-06-25T14:03:31.000Z</time>
      </trkpt>
      <trkpt lat="42.67212" lon="0.65234">
        <ele>2035.8</ele>
        <time>2021-06-25T14:03:48.000Z</time>
      </trkpt>
      <trkpt lat="42.67203" lon="0.65232">
        <ele>2036.6</ele>
        <time>2021-06-25T14:04:03.000Z</time>
      </trkpt>
      <trkpt lat="42.67202" lon="0.65231">
        <ele>2038.1</ele>
        <time>2021-06-25T14:04:05.000Z</time>
      </trkpt>
      <trkpt lat="42.67192" lon="0.65225">
        <ele>2040</ele>
        <time>2021-06-25T14:04:19.000Z</time>
      </trkpt>
      <trkpt lat="42.67188" lon="0.6522">
        <ele>2040.5</ele>
        <time>2021-06-25T14:04:34.000Z</time>
      </trkpt>
      <trkpt lat="42.67184" lon="0.65215">
        <ele>2043</ele>
        <time>2021-06-25T14:04:51.000Z</time>
      </trkpt>
      <trkpt lat="42.67176" lon="0.65219">
        <ele>2044.9</ele>
        <time>2021-06-25T14:05:07.000Z</time>
      </trkpt>
      <trkpt lat="42.67171" lon="0.6523">
        <ele>2047.2</ele>
        <time>2021-06-25T14:05:25.000Z</time>
      </trkpt>
      <trkpt lat="42.67172" lon="0.65235">
        <ele>2049.1</ele>
        <time>2021-06-25T14:05:45.000Z</time>
      </trkpt>
      <trkpt lat="42.67175" lon="0.6524">
        <ele>2050.1</ele>
        <time>2021-06-25T14:06:15.000Z</time>
      </trkpt>
      <trkpt lat="42.67169" lon="0.65247">
        <ele>2052.1</ele>
        <time>2021-06-25T14:06:34.000Z</time>
      </trkpt>
      <trkpt lat="42.67161" lon="0.65245">
        <ele>2054.5</ele>
        <time>2021-06-25T14:06:53.000Z</time>
      </trkpt>
      <trkpt lat="42.67153" lon="0.65247">
        <ele>2056.5</ele>
        <time>2021-06-25T14:07:09.000Z</time>
      </trkpt>
      <trkpt lat="42.67147" lon="0.6525">
        <ele>2058.8</ele>
        <time>2021-06-25T14:07:30.000Z</time>
      </trkpt>
      <trkpt lat="42.67141" lon="0.6525">
        <ele>2062.1</ele>
        <time>2021-06-25T14:07:46.000Z</time>
      </trkpt>
      <trkpt lat="42.67132" lon="0.6525">
        <ele>2064.5</ele>
        <time>2021-06-25T14:08:04.000Z</time>
      </trkpt>
      <trkpt lat="42.67124" lon="0.65241">
        <ele>2066.5</ele>
        <time>2021-06-25T14:08:24.000Z</time>
      </trkpt>
      <trkpt lat="42.67125" lon="0.65248">
        <ele>2068.5</ele>
        <time>2021-06-25T14:08:42.000Z</time>
      </trkpt>
      <trkpt lat="42.67124" lon="0.65254">
        <ele>2070.3</ele>
        <time>2021-06-25T14:08:59.000Z</time>
      </trkpt>
      <trkpt lat="42.67112" lon="0.65252">
        <ele>2073.3</ele>
        <time>2021-06-25T14:09:22.000Z</time>
      </trkpt>
      <trkpt lat="42.67113" lon="0.6526">
        <ele>2075.6</ele>
        <time>2021-06-25T14:09:41.000Z</time>
      </trkpt>
      <trkpt lat="42.67114" lon="0.65262">
        <ele>2076.5</ele>
        <time>2021-06-25T14:10:00.000Z</time>
      </trkpt>
      <trkpt lat="42.67122" lon="0.6527">
        <ele>2078.1</ele>
        <time>2021-06-25T14:10:16.000Z</time>
      </trkpt>
      <trkpt lat="42.6713" lon="0.65277">
        <ele>2079</ele>
        <time>2021-06-25T14:10:33.000Z</time>
      </trkpt>
      <trkpt lat="42.67126" lon="0.65282">
        <ele>2081.4</ele>
        <time>2021-06-25T14:10:48.000Z</time>
      </trkpt>
      <trkpt lat="42.67118" lon="0.65283">
        <ele>2083.3</ele>
        <time>2021-06-25T14:11:10.000Z</time>
      </trkpt>
      <trkpt lat="42.67118" lon="0.65283">
        <ele>2083.7</ele>
        <time>2021-06-25T14:11:37.000Z</time>
      </trkpt>
      <trkpt lat="42.67117" lon="0.65281">
        <ele>2083.7</ele>
        <time>2021-06-25T14:11:58.000Z</time>
      </trkpt>
      <trkpt lat="42.67118" lon="0.65277">
        <ele>2083.7</ele>
        <time>2021-06-25T14:12:30.000Z</time>
      </trkpt>
      <trkpt lat="42.67119" lon="0.65279">
        <ele>2084.3</ele>
        <time>2021-06-25T14:12:53.000Z</time>
      </trkpt>
      <trkpt lat="42.67117" lon="0.65281">
        <ele>2084.3</ele>
        <time>2021-06-25T14:13:28.000Z</time>
      </trkpt>
      <trkpt lat="42.67117" lon="0.65283">
        <ele>2082.9</ele>
        <time>2021-06-25T14:13:53.000Z</time>
      </trkpt>
      <trkpt lat="42.67117" lon="0.65284">
        <ele>2085.3</ele>
        <time>2021-06-25T14:13:58.000Z</time>
      </trkpt>
      <trkpt lat="42.67116" lon="0.65283">
        <ele>2084.2</ele>
        <time>2021-06-25T14:14:25.000Z</time>
      </trkpt>
      <trkpt lat="42.67117" lon="0.65282">
        <ele>2083.3</ele>
        <time>2021-06-25T14:14:40.000Z</time>
      </trkpt>
      <trkpt lat="42.67116" lon="0.65281">
        <ele>2083.3</ele>
        <time>2021-06-25T14:14:53.000Z</time>
      </trkpt>
      <trkpt lat="42.67116" lon="0.65281">
        <ele>2084.3</ele>
        <time>2021-06-25T14:15:02.000Z</time>
      </trkpt>
      <trkpt lat="42.67115" lon="0.6528">
        <ele>2082.8</ele>
        <time>2021-06-25T14:15:08.000Z</time>
      </trkpt>
      <trkpt lat="42.67115" lon="0.65279">
        <ele>2084.7</ele>
        <time>2021-06-25T14:15:18.000Z</time>
      </trkpt>
      <trkpt lat="42.67117" lon="0.65279">
        <ele>2085.2</ele>
        <time>2021-06-25T14:15:40.000Z</time>
      </trkpt>
      <trkpt lat="42.67117" lon="0.6528">
        <ele>2085.2</ele>
        <time>2021-06-25T14:16:00.000Z</time>
      </trkpt>
      <trkpt lat="42.67118" lon="0.65282">
        <ele>2084.2</ele>
        <time>2021-06-25T14:16:17.000Z</time>
      </trkpt>
      <trkpt lat="42.6712" lon="0.65288">
        <ele>2086.2</ele>
        <time>2021-06-25T14:16:34.000Z</time>
      </trkpt>
      <trkpt lat="42.67121" lon="0.65289">
        <ele>2084.8</ele>
        <time>2021-06-25T14:16:40.000Z</time>
      </trkpt>
      <trkpt lat="42.67122" lon="0.65289">
        <ele>2086.7</ele>
        <time>2021-06-25T14:16:58.000Z</time>
      </trkpt>
      <trkpt lat="42.67122" lon="0.65289">
        <ele>2085.2</ele>
        <time>2021-06-25T14:17:00.000Z</time>
      </trkpt>
      <trkpt lat="42.67122" lon="0.65289">
        <ele>2086.7</ele>
        <time>2021-06-25T14:17:02.000Z</time>
      </trkpt>
      <trkpt lat="42.6712" lon="0.65289">
        <ele>2085.8</ele>
        <time>2021-06-25T14:17:25.000Z</time>
      </trkpt>
      <trkpt lat="42.67122" lon="0.65291">
        <ele>2085.8</ele>
        <time>2021-06-25T14:17:45.000Z</time>
      </trkpt>
      <trkpt lat="42.67124" lon="0.65296">
        <ele>2085.8</ele>
        <time>2021-06-25T14:18:06.000Z</time>
      </trkpt>
      <trkpt lat="42.67124" lon="0.65298">
        <ele>2088.1</ele>
        <time>2021-06-25T14:18:31.000Z</time>
      </trkpt>
      <trkpt lat="42.67123" lon="0.65303">
        <ele>2089</ele>
        <time>2021-06-25T14:18:48.000Z</time>
      </trkpt>
      <trkpt lat="42.67109" lon="0.65303">
        <ele>2092.9</ele>
        <time>2021-06-25T14:19:10.000Z</time>
      </trkpt>
      <trkpt lat="42.67098" lon="0.65298">
        <ele>2093.8</ele>
        <time>2021-06-25T14:19:30.000Z</time>
      </trkpt>
      <trkpt lat="42.6709" lon="0.65296">
        <ele>2095.9</ele>
        <time>2021-06-25T14:19:46.000Z</time>
      </trkpt>
      <trkpt lat="42.67081" lon="0.65295">
        <ele>2098.2</ele>
        <time>2021-06-25T14:20:02.000Z</time>
      </trkpt>
      <trkpt lat="42.67073" lon="0.65292">
        <ele>2101.2</ele>
        <time>2021-06-25T14:20:18.000Z</time>
      </trkpt>
      <trkpt lat="42.67062" lon="0.65292">
        <ele>2103.5</ele>
        <time>2021-06-25T14:20:38.000Z</time>
      </trkpt>
      <trkpt lat="42.67054" lon="0.65287">
        <ele>2105</ele>
        <time>2021-06-25T14:20:55.000Z</time>
      </trkpt>
      <trkpt lat="42.67047" lon="0.65284">
        <ele>2106.8</ele>
        <time>2021-06-25T14:21:15.000Z</time>
      </trkpt>
      <trkpt lat="42.6704" lon="0.65281">
        <ele>2108.7</ele>
        <time>2021-06-25T14:21:31.000Z</time>
      </trkpt>
      <trkpt lat="42.6703" lon="0.65276">
        <ele>2110.7</ele>
        <time>2021-06-25T14:21:49.000Z</time>
      </trkpt>
      <trkpt lat="42.6702" lon="0.65274">
        <ele>2112.6</ele>
        <time>2021-06-25T14:22:06.000Z</time>
      </trkpt>
      <trkpt lat="42.67012" lon="0.65269">
        <ele>2114.5</ele>
        <time>2021-06-25T14:22:23.000Z</time>
      </trkpt>
      <trkpt lat="42.67019" lon="0.65272">
        <ele>2115.1</ele>
        <time>2021-06-25T14:22:39.000Z</time>
      </trkpt>
      <trkpt lat="42.67012" lon="0.65275">
        <ele>2116.4</ele>
        <time>2021-06-25T14:22:54.000Z</time>
      </trkpt>
      <trkpt lat="42.67003" lon="0.65274">
        <ele>2118.8</ele>
        <time>2021-06-25T14:23:13.000Z</time>
      </trkpt>
      <trkpt lat="42.67001" lon="0.65267">
        <ele>2120.4</ele>
        <time>2021-06-25T14:23:21.000Z</time>
      </trkpt>
      <trkpt lat="42.66993" lon="0.65242">
        <ele>2120.4</ele>
        <time>2021-06-25T14:23:41.000Z</time>
      </trkpt>
      <trkpt lat="42.66992" lon="0.6523">
        <ele>2122.3</ele>
        <time>2021-06-25T14:23:57.000Z</time>
      </trkpt>
      <trkpt lat="42.66988" lon="0.65216">
        <ele>2120.8</ele>
        <time>2021-06-25T14:24:11.000Z</time>
      </trkpt>
      <trkpt lat="42.66986" lon="0.65213">
        <ele>2120.3</ele>
        <time>2021-06-25T14:24:14.000Z</time>
      </trkpt>
      <trkpt lat="42.66978" lon="0.65199">
        <ele>2120.3</ele>
        <time>2021-06-25T14:24:30.000Z</time>
      </trkpt>
      <trkpt lat="42.6697" lon="0.6519">
        <ele>2123.3</ele>
        <time>2021-06-25T14:24:48.000Z</time>
      </trkpt>
      <trkpt lat="42.66965" lon="0.65188">
        <ele>2124.6</ele>
        <time>2021-06-25T14:25:02.000Z</time>
      </trkpt>
      <trkpt lat="42.6696" lon="0.6518">
        <ele>2126.5</ele>
        <time>2021-06-25T14:25:17.000Z</time>
      </trkpt>
      <trkpt lat="42.66956" lon="0.65171">
        <ele>2127.5</ele>
        <time>2021-06-25T14:25:32.000Z</time>
      </trkpt>
      <trkpt lat="42.66953" lon="0.6516">
        <ele>2129</ele>
        <time>2021-06-25T14:25:46.000Z</time>
      </trkpt>
      <trkpt lat="42.66953" lon="0.65156">
        <ele>2130</ele>
        <time>2021-06-25T14:26:01.000Z</time>
      </trkpt>
      <trkpt lat="42.66956" lon="0.65152">
        <ele>2130.9</ele>
        <time>2021-06-25T14:26:15.000Z</time>
      </trkpt>
      <trkpt lat="42.66956" lon="0.65145">
        <ele>2132.8</ele>
        <time>2021-06-25T14:26:29.000Z</time>
      </trkpt>
      <trkpt lat="42.66963" lon="0.65134">
        <ele>2135.7</ele>
        <time>2021-06-25T14:26:44.000Z</time>
      </trkpt>
      <trkpt lat="42.66964" lon="0.65126">
        <ele>2138.1</ele>
        <time>2021-06-25T14:26:57.000Z</time>
      </trkpt>
      <trkpt lat="42.66965" lon="0.65119">
        <ele>2140</ele>
        <time>2021-06-25T14:27:10.000Z</time>
      </trkpt>
      <trkpt lat="42.66966" lon="0.65114">
        <ele>2138.6</ele>
        <time>2021-06-25T14:27:16.000Z</time>
      </trkpt>
      <trkpt lat="42.66966" lon="0.651">
        <ele>2140.1</ele>
        <time>2021-06-25T14:27:33.000Z</time>
      </trkpt>
      <trkpt lat="42.66962" lon="0.65091">
        <ele>2140</ele>
        <time>2021-06-25T14:27:45.000Z</time>
      </trkpt>
      <trkpt lat="42.66959" lon="0.65088">
        <ele>2138.5</ele>
        <time>2021-06-25T14:27:50.000Z</time>
      </trkpt>
      <trkpt lat="42.66951" lon="0.65081">
        <ele>2143.2</ele>
        <time>2021-07-02T05:58:00.000Z</time>
      </trkpt>
      <trkpt lat="42.66948" lon="0.65062">
        <ele>2143.4</ele>
        <time>2021-07-02T05:58:20.000Z</time>
      </trkpt>
      <trkpt lat="42.66937" lon="0.65079">
        <ele>2146.7</ele>
        <time>2021-07-02T05:58:40.000Z</time>
      </trkpt>
    </trkseg>
  </trk>
</gpx>